GFSSE_prec_radar_000.txt.gz
Reflectivity
-20 -20 -20 -20 -0 -16 -9 -20 -20 -20 -20 -20 -20 -20 -20 -1 -20 -20 -17 -20 -20 -20 -20 -20 -20 -14 6 -20 5 -20 -20 -20 -20 -20 -20 -20 -20 -20 -20 -20 -20 14 -20
-20 -20 -20 -10 -13 -20 -20 -20 -20 -20 -20 -20 -20 -8 -16 -20 -20 -20 -20 -11 1 -20 -20 -20 6 -4 0 -13 6 -18 -20 -20 -20 -20 -20 -20 -20 -20 -20 -20 -20 -19 12
-20 -20 -20 -14 -8 -20 -20 -20 -20 -20 -20 -20 -20 -3 10 -20 -20 -20 -20 -20 -20 -1 -20 -20 -20 12 -3 -20 15 14 -20 -20 -20 -20 -20 -20 -20 -20 -20 -20 -20 -19 -9
-20 -20 -20 -3 -13 -20 -20 -20 -20 -20 -20 -20 -20 0 16 5 -20 -20 -13 -20 -20 -20 -20 -20 -20 15 -12 -4 15 -13 -20 -20 -20 -20 -20 -2 -20 -20 -15 -20 -20 -20 -20
-20 -20 -20 -20 -20 -20 -20 -20 -20 -20 -20 -18 19 8 18 -0 -20 -20 -20 -20 -20 -20 -20 -20 -20 9 -13 14 17 -15 -20 -20 -20 -20 -20 -20 -20 -20 -20 -20 -20 -20 -20
-20 -20 5 -19 -20 -20 -20 -20 -20 -20 -20 -20 16 10 11 14 -20 -20 -20 -20 -20 -20 -20 -20 -20 -18 15 -20 -20 -20 -20 -20 -20 -20 -20 -20 -20 -20 -20 -20 -20 -20 -20
-20 -20 -20 -20 7 -20 -20 -20 -20 -20 -20 0 -7 -20 -20 -20 8 -20 -20 -20 -20 -20 -20 -20 -20 -20 -20 -20 -19 -20 -20 -20 -20 -20 -20 -20 -20 -20 -20 -20 -20 -20 -20
-20 -20 -20 -20 -20 -20 -20 -20 -20 -20 -20 -19 -20 -20 -20 -16 12 -19 -12 11 -17 -20 -20 -20 -20 -20 -20 -20 -20 -20 -20 -20 -20 -20 -20 -20 -20 -20 -20 -20 -20 -20 -20
-20 -20 -20 -20 -20 -20 -20 -20 -20 -20 -20 -20 -20 -20 -20 -20 -8 -20 4 10 -20 -20 -20 -20 -20 -20 -20 -20 -20 -20 -20 -20 -20 -20 -20 -20 -20 -20 -20 -20 -20 -20 -20
-20 -20 -20 -20 -20 -20 -20 -20 -20 -19 1 -20 -20 -20 -20 -20 -20 -20 -20 -20 -20 -20 -20 -20 -20 -20 -20 -20 -20 -20 -20 -20 -20 -20 -20 -20 -20 -20 -20 -20 -20 -20 -20
-20 -20 -20 -20 -20 -20 -20 -20 -20 -20 -20 -20 -20 -20 -20 -20 -20 -20 -20 -20 -20 -20 -20 -20 -20 -20 -20 -20 -20 -20 -20 -20 -20 -20 -20 -20 -20 -20 -20 -20 -20 -20 -20
-20 -20 -20 -20 -20 -20 -20 -20 -20 -20 -20 -20 -20 -20 -20 -20 -20 -20 -20 -20 -20 -20 -20 -20 -20 -20 -20 -20 -20 -20 -20 -20 -20 -20 -20 -20 -20 -20 -20 -20 -20 -20 -20
-20 -20 -20 -20 -20 -20 -20 -20 -20 -20 -20 -20 -20 -20 -20 -20 -20 -20 -20 -20 -20 -20 -20 -20 -20 -20 -20 -20 -20 -20 -20 -20 -20 -20 -20 -20 -20 -20 -20 -20 -20 -20 -20
-20 -20 -20 -20 -20 -20 -20 -20 -20 -20 -20 -20 -20 -20 -20 -20 -20 -20 -20 -20 -20 -20 -20 -20 -20 -20 -20 -20 -20 -20 -20 -20 -20 -20 -20 -20 -20 -20 -20 -20 -20 -20 -20
-20 -20 -20 -20 -20 -20 -20 -20 -20 -20 -20 -20 -20 -20 -20 -20 -20 -20 -20 -20 -20 -20 -20 -20 -20 -20 -20 -20 -20 -20 -20 -20 -20 -20 -20 -20 -20 -20 -20 -20 -20 -20 -20
-20 -20 -20 -20 -20 -20 -20 -20 -20 -20 -20 -20 -20 -20 -20 -20 -20 -20 -20 -20 -20 -20 -20 -20 -20 -20 -20 -20 -20 -20 -20 -20 -20 -20 -20 -20 -20 -20 -20 -20 -20 -20 -20
-20 -20 -20 -20 -20 -20 -20 -20 -20 -20 -20 -20 -20 -20 -20 -20 -20 -20 -20 -20 -20 -20 -20 -20 -20 -20 -20 -20 -20 -20 -20 -20 -20 -20 -20 -20 -20 -20 -20 -20 -20 -20 -20
-20 -20 -20 -20 -20 -20 -20 -20 -20 -20 -20 -20 -20 -20 -20 -20 -20 -20 -20 -20 -20 -20 -20 -20 -20 -20 -20 -20 -20 -20 -20 -20 -20 -20 -20 -20 -20 -20 -20 -20 -20 -20 -20
-20 -20 -20 -20 -20 -20 -20 -20 -20 -20 -20 -20 -20 -20 -20 -20 -20 -20 -20 -20 -20 -20 -20 -20 -20 -20 -20 -20 -20 -20 -20 -20 -20 -20 -20 -20 -20 -20 -20 -20 -20 -20 -20
-20 -20 -20 -20 -20 -20 -20 -20 -20 -20 -20 -20 -20 -20 -20 -20 -20 -20 -20 -20 -20 -20 -20 -20 -20 -20 -20 -20 -20 -20 -20 -20 -20 -20 -20 -20 -20 -20 -20 -20 -20 -20 -20
-20 -20 -20 -20 -20 -20 -20 -20 -20 -20 -20 -20 -20 -20 -20 -20 -20 -20 -20 -20 -20 -20 -20 -20 -20 -20 -20 -20 -20 -20 -20 -20 -20 -20 -20 -20 -20 -20 -20 -20 -20 -20 -20
-20 -20 -20 -20 -20 -20 -20 -20 -20 -20 -20 -20 -20 -20 -20 -20 -20 -20 -20 -20 -20 -20 -20 -20 -20 -20 -20 -20 -20 -20 -20 -20 -20 -20 -20 -20 -20 -20 -20 -20 -20 -20 -20
-20 -20 -20 -20 -20 -20 -20 -20 -20 -20 -20 -20 -20 -20 -20 -20 -20 -20 -20 -20 -20 -20 -20 -20 -20 -20 -20 -20 -20 -20 -20 -20 -20 -20 -20 -20 -20 -20 -20 -20 -20 -20 -20
-20 -20 -20 -20 -20 -20 -20 -20 -20 -20 -20 -20 -20 -20 -20 -20 -20 -20 -20 -20 -20 -20 -20 -20 -20 -20 -20 -20 -20 -20 -20 -20 -20 -20 -20 -20 -20 -20 -20 -17 0 -14 -19
-20 -20 -20 -20 -20 -20 -20 -20 -20 -20 -20 -20 -20 -20 -20 -20 -20 -20 -20 -20 -20 -20 -20 -20 -2 -20 -20 -20 -20 -20 -20 -20 -20 -20 -20 -20 -20 -20 -20 -20 -20 -20 -20
-20 -20 -20 -20 -20 -20 -20 -20 -20 -20 -20 -20 -20 -20 -20 -20 -20 -20 -20 -20 -20 -20 -17 0 5 -10 -20 -20 -20 -20 -20 -20 -20 -20 -20 -20 -20 -20 -20 -20 -20 -20 -18

GFSSE_prec_radar_003.txt.gz
Reflectivity
-20 -20 -20 -20 -7 11 -20 -20 -20 -20 -20 -20 -15 -20 -8 2 -20 -9 -11 -13 14 -20 -20 -14 -17 15 17 -20 16 -20 -20 -20 -20 -20 -20 -20 -20 -20 5 -20 -19 -4 -5
-20 -20 -20 -20 14 -15 -20 -20 -20 -20 -20 -20 2 15 8 -9 -2 -20 12 10 10 3 -14 -19 13 14 13 -20 16 -20 -20 -20 -20 -20 -20 -20 -19 5 -19 -20 -20 10 5
-20 -20 -20 -14 6 -20 -20 -20 -20 -20 -20 -20 -9 6 17 -20 -17 -20 -17 -20 -12 18 16 -20 9 15 12 14 -10 6 -20 -20 -20 -20 -20 -20 -20 -20 -20 -20 -18 2 10
-20 -20 -20 -5 -5 -20 -20 -20 -20 -20 -20 -20 -18 20 19 13 6 -20 15 -20 -20 13 -20 -20 6 11 -20 -16 9 -17 -20 -20 -20 -20 -20 -20 -20 -20 -20 -20 -20 -20 -20
-20 -20 -20 -20 -11 -20 -20 -20 -20 -20 -20 -15 18 -1 14 15 13 -13 -20 -20 -20 -20 -20 -20 -20 -1 -16 -16 13 -20 -20 -20 -20 -20 -20 -20 -20 -20 -20 -20 -20 -20 -20
-20 -20 -20 -20 -20 -20 -20 -20 -20 -20 -20 -18 11 17 -17 14 16 -20 -20 -20 -20 -20 -20 -20 -20 -20 -20 5 -20 -20 -20 -20 -20 -20 -20 -20 -20 -20 -20 -20 -20 -20 -20
-20 -20 -20 -20 -20 -20 -20 -20 -20 -20 -20 -20 -3 -19 -10 -0 -9 5 -20 -20 -20 -20 -20 -20 -20 -20 -15 -20 -10 -20 -20 -20 -20 -20 -20 -20 -20 -20 -20 -20 -20 -20 -20
-20 -20 -20 -20 -20 -20 -20 -20 -20 -20 -10 -20 -10 -20 -20 -20 -20 -20 -20 -20 -20 -20 -20 -20 -20 -20 -20 -20 -20 -20 -20 -20 -20 -20 -20 -20 -20 -20 -20 -20 -20 -20 -20
-20 -20 -20 -20 -20 -20 -20 -20 -20 -20 -20 -20 -11 -20 -20 -20 -20 -20 -20 -20 -20 -20 -20 -20 -20 -20 -20 -20 -20 -20 -20 -20 -20 -20 -20 -20 -20 -20 -20 -20 -20 -20 -20
-20 -20 -20 -20 -20 -20 -20 -20 -20 -20 -20 -20 -20 -20 -20 -20 -20 -20 -20 1 -3 -20 -20 -20 -20 -20 -20 -20 -20 -20 -20 -20 -20 -20 -20 -20 -20 -20 -20 -20 -20 -20 -20
-20 -20 -20 -20 -20 -20 -20 -20 -20 -20 -20 -20 -20 -20 -20 -20 -20 -20 -20 -20 -20 -20 -20 -20 -20 -20 -20 -20 -20 -20 -20 -20 -20 -20 -20 -20 -20 -20 -20 -20 -20 -20 -20
-20 -20 -20 -20 -20 -20 -20 -20 -20 -20 -20 -20 -20 -20 -20 -20 -20 -20 -20 -20 -20 -20 -20 -20 -20 -20 -20 -20 -20 -20 -20 -20 -20 -20 -20 -20 -20 -20 -20 -20 -20 -20 -20
-20 -20 -20 -20 -20 -20 -20 -20 -20 -20 -20 -20 -20 -20 -20 -20 -20 -20 -20 -20 -20 -20 -20 -20 -20 -20 -20 -20 -20 -20 -20 -20 -20 -20 -20 -20 -20 -20 -20 -20 -20 -20 -20
-20 -20 -20 -20 -20 -20 -20 -20 -20 -20 -20 -20 -20 -20 -20 -20 -20 -20 -20 -20 -20 -20 -20 -20 -20 -20 -20 -20 -20 -20 -20 -20 -20 -20 -20 -20 -20 -20 -20 -20 -20 -20 -20
-20 -20 -20 -20 -20 -20 -20 -20 -20 -20 -20 -20 -20 -20 -20 -20 -20 -20 -20 -20 -20 -20 -20 -20 -20 -20 -20 -20 -20 -20 -20 -20 -20 -20 -20 -20 -20 -20 -20 -20 -20 -20 -20
-20 -20 -20 -20 -20 -20 -20 -20 -20 -20 -20 -20 -20 -20 -20 -20 -20 -20 -20 -20 -20 -20 -20 -20 -20 -20 -20 -20 -20 -20 -20 -20 -20 -20 -20 -20 -20 -20 -20 -20 -20 -20 -20
-20 -20 -20 -20 -20 -20 -20 -20 -20 -20 -20 -20 -20 -20 -20 -20 -20 -20 -20 -20 -20 -20 -20 -20 -20 -20 -20 -20 -20 -20 -20 -20 -20 -20 -20 -20 -20 -20 -20 -20 -20 -20 -20
-20 -20 -20 -20 -20 -20 -20 -20 -20 -20 -20 -20 -20 -20 -20 -20 -20 -20 -20 -20 -20 -20 -20 -20 -20 -20 -20 -20 -20 -20 -20 -20 -20 -20 -20 -20 -20 -20 -20 -20 -20 -20 -20
-20 -20 -20 -20 -20 -20 -20 -20 -20 -20 -20 -20 -20 -20 -20 -20 -20 -20 -20 -20 -20 -20 -20 -20 -20 -20 -20 -20 -20 -20 -20 -20 -20 -20 -20 -20 -20 -20 -20 -20 -20 -20 -20
-20 -20 -20 -20 -20 -20 -20 -20 -20 -20 -20 -20 -20 -20 -20 -20 -20 -20 -20 -20 -20 -20 -20 -20 -20 -20 -20 -20 -20 -20 -20 -20 -20 -20 -20 -20 -20 -20 -20 -20 -20 -20 -20
-20 -20 -20 -20 -20 -20 -20 -20 -20 -20 -20 -20 -20 -20 -20 -20 -20 -20 -20 -20 -20 -20 -20 -20 -20 -20 -20 -20 -20 -20 -20 -20 -20 -20 -20 -20 -20 -20 -20 -20 -20 -20 -20
-20 -20 -20 -20 -20 -20 -20 -20 -20 -20 -20 -20 -20 -20 -20 -20 -20 -20 -20 -20 -20 -20 -20 -20 -20 -20 -20 -20 -20 -20 -20 -20 -20 -20 -20 -20 -20 -20 -20 -20 -20 -20 -20
-20 -20 -20 -20 -20 -20 -20 -20 -20 -20 -20 -20 -20 -20 -20 -20 -20 -20 -20 -20 -20 -20 -20 -20 -20 -20 -20 -20 -20 -20 -20 -20 -20 -20 -20 -20 -20 -20 -20 -20 -20 -20 -20
-20 -20 -20 -20 -20 -20 -20 -20 -20 -20 -20 -20 -20 -20 -20 -20 -20 -20 -20 -20 -20 -20 -20 -20 -20 -10 5 6 -1 -20 -20 -20 -20 -20 -20 -20 -20 -20 -20 -20 -20 -20 -20
-20 -20 -20 -20 -20 -20 -20 -20 -20 -20 -20 -20 -20 -20 -20 -20 -20 -20 -20 -20 -19 5 5 -2 10 21 13 10 3 -8 -14 -20 -20 -20 -20 -20 -20 -20 -20 -20 -20 -20 -20
-20 -20 -20 -20 -20 -20 -20 -20 -20 -20 -20 -20 -20 -20 -20 -20 -20 -20 -20 -17 5 7 9 10 0 14 2 18 14 0 8 3 -20 -20 -20 -20 -20 -20 -20 -20 -20 -20 -20

GFSSE_prec_radar_006.txt.gz
Reflectivity
-20 -20 -20 -14 5 -0 -20 -20 -20 -20 -20 -20 3 -1 16 4 -20 9 4 -14 13 -11 -20 3 9 16 13 12 15 -20 -20 -20 -20 -20 -20 -20 -20 -11 -20 -20 -20 -2 -3
-20 -20 -20 -20 12 10 -20 -20 -20 -20 -20 -20 -4 15 16 -4 5 -20 9 16 16 12 13 15 16 17 14 -1 12 -20 -20 -20 -20 -20 -20 -20 -1 -14 -20 -20 7 -8 8
-20 -20 -20 -15 -1 7 3 -20 -20 -20 -20 -20 16 17 18 -19 -11 -20 -19 8 13 13 12 -7 10 16 11 14 9 -20 -20 -20 -20 -20 -20 -20 -20 -20 -20 -20 -18 4 -3
-20 -20 -20 -6 -20 -20 -20 -20 -20 -20 -20 -20 -20 18 16 14 13 -20 -15 -20 -8 13 -20 -20 -20 -20 -20 11 12 -20 -20 -20 -20 -20 -20 -20 -20 -20 -20 -20 -20 -20 -20
-20 -20 -20 -10 -20 -20 -20 -20 -20 -20 -20 -20 9 9 17 15 17 -20 -20 -20 -20 -20 -20 -20 -20 -20 -20 -20 6 -20 -20 -20 -20 -20 -20 -20 -20 -20 -20 -20 -20 -20 -20
-20 -20 -20 -20 -20 -20 -20 -20 -20 -20 -20 5 19 17 18 -11 -19 -20 -20 -20 -20 -20 -20 -20 -20 -20 -20 -20 -20 -20 -20 -20 -20 -20 -20 -20 -20 -20 -20 -20 -20 -20 -20
-20 -20 -20 -20 -20 -20 -20 -20 -20 -20 -20 -20 1 14 -10 8 -16 -20 -20 -20 -20 -20 -20 -20 -20 -20 -20 -20 -20 -20 -20 -20 -20 -20 -20 -20 -20 -20 -20 -20 -20 -20 -20
-20 -20 -20 -20 -20 -20 -20 -20 -20 -20 -20 -20 -12 2 -20 -20 -20 -20 -20 -20 -20 -20 -20 -20 -20 -20 -20 -20 -20 -20 -20 -20 -20 -20 -20 -20 -20 -20 -20 -20 -20 -20 -20
-20 -20 -20 -20 -20 -20 -20 -20 -20 -20 -20 -20 -20 -20 -20 -20 -20 -20 -20 -7 -4 -20 -20 -20 -20 -20 -20 -20 -20 -20 -20 -20 -20 -20 -20 -20 -20 -20 -20 -20 -20 -20 -20
-20 -20 -20 -20 -20 -20 -20 -20 -20 -20 -20 -20 -20 -20 -20 -20 -20 -20 -20 -15 -19 -1 -20 -20 -20 -20 -20 -20 -20 -20 -20 -20 -20 -20 -20 -20 -20 -20 -20 -20 -20 -20 -20
-20 -20 -20 -20 -20 -20 -20 -20 -20 -20 -20 -20 -20 -20 -20 -20 -20 -20 -20 -20 -20 -20 -20 -20 -20 -20 -20 -20 -20 -20 -20 -20 -20 -20 -20 -20 -20 -20 -20 -20 -20 -20 -20
-20 -20 -20 -20 -20 -20 -20 -20 -20 -20 -20 -20 -20 -20 -20 -20 -20 -20 -20 -20 -20 -20 -20 -20 -20 -20 -20 -20 -20 -20 -20 -20 -20 -20 -20 -20 -20 -20 -20 -20 -20 -20 -20
-20 -20 -20 -20 -20 -20 -20 -20 -20 -20 -20 -20 -20 -20 -20 -20 -20 -20 -20 -20 -20 -20 -20 -20 -20 -20 -20 -20 -20 -20 -20 -20 -20 -20 -20 -20 -20 -20 -20 -20 -20 -20 -20
-20 -20 -20 -20 -20 -20 -20 -20 -20 -20 -20 -20 -20 -20 -20 -20 -20 -20 -20 -20 -20 -20 -20 -20 -20 -20 -20 -20 -20 -20 -20 -20 -20 -20 -20 -20 -20 -20 -20 -20 -20 -20 -20
-20 -20 -20 -20 -20 -20 -20 -20 -20 -20 -20 -20 -20 -20 -20 -20 -20 -20 -20 -20 -20 -20 -20 -20 -20 -20 -20 -20 -20 -20 -20 -20 -20 -20 -20 -20 -20 -20 -20 -20 -20 -20 -20
-20 -20 -20 -20 -20 -20 -20 -20 -20 -20 -20 -20 -20 -20 -20 -20 -20 -20 -20 -20 -20 -20 -20 -20 -20 -20 -20 -20 -20 -20 -20 -20 -20 -20 -20 -20 -20 -20 -20 -20 -20 -20 -20
-20 -20 -20 -20 -20 -20 -20 -20 -20 -20 -20 -20 -20 -20 -20 -20 -20 -20 -20 -20 -20 -20 -20 -20 -20 -20 -20 -20 -20 -20 -20 -20 -20 -20 -20 -20 -20 -20 -20 -20 -20 -20 -20
-20 -20 -20 -20 -20 -20 -20 -20 -20 -20 -20 -20 -20 -20 -20 -20 -20 -20 -20 -20 -20 -20 -20 -20 -20 -20 -20 -20 -20 -20 -20 -20 -20 -20 -20 -20 -20 -20 -20 -20 -20 -20 -20
-20 -20 -20 -20 -20 -20 -20 -20 -20 -20 -20 -20 -20 -20 -20 -20 -20 -20 -20 -20 -20 -20 -20 -20 -20 -20 -20 -20 -20 -20 -20 -20 -20 -20 -20 -20 -20 -20 -20 -20 -20 -20 -20
-20 -20 -20 -20 -20 -20 -20 -20 -20 -20 -20 -20 -20 -20 -20 -20 -20 -20 -20 -20 -20 -20 -20 -20 -20 -20 -20 -20 -20 -20 -20 -20 -20 -20 -20 -20 -20 -20 -20 -20 -20 -20 -20
-20 -20 -20 -20 -20 -20 -20 -20 -20 -20 -20 -20 -20 -20 -20 -20 -20 -20 -20 -20 -20 -20 -20 -20 -20 -20 -20 -20 -20 -20 -20 -20 -20 -20 -20 -20 -20 -20 -20 -20 -20 -20 -20
-20 -20 -20 -20 -20 -20 -20 -20 -20 -20 -20 -20 -20 -20 -20 -20 -20 -20 -20 -20 -20 -20 -20 -20 -20 -20 -20 -20 -20 -9 12 -15 -20 -20 -20 -20 -20 -20 -20 -20 -20 -20 -20
-20 -20 -20 -20 -20 -20 -20 -20 -20 -20 -20 -20 -20 -20 -20 -20 -20 -20 -20 -20 -20 -20 -20 -20 -20 -20 -14 3 -19 13 22 2 -20 -20 -20 -20 -20 -20 -20 -20 -20 -20 -20
-20 -20 -20 -20 -20 -20 -20 -20 -20 -20 -20 -20 -20 -20 -20 -20 -20 -20 -20 -20 -20 -20 -20 -5 0 -16 11 -3 9 -9 4 13 17 14 -20 -20 -20 -20 -20 -20 -20 -20 -20
-20 -20 -20 -20 -20 -20 -20 -20 -20 -20 -20 -20 -20 -20 -20 -20 -20 -20 -20 -20 -20 -20 4 13 14 15 17 14 13 12 10 -8 11 18 18 -20 -20 -20 -20 -20 -20 -20 -20
-20 -20 -20 -20 -20 -20 -20 -20 -20 -20 -20 -20 -20 -20 -20 -20 -20 -20 -20 -20 -20 -20 -20 0 12 4 15 16 12 22 19 1 15 11 11 -3 -2 -18 -20 -20 -20 -17 -10

GFSSE_prec_radar_009.txt.gz
Reflectivity
-20 -20 -20 12 2 11 -18 -20 -20 -20 -20 -20 -20 -19 10 -13 -20 5 17 -11 -20 -10 -20 -20 -9 10 18 16 12 -7 -20 -20 -20 -20 -20 -20 -20 6 -16 -20 -18 -20 -20
-20 -20 -20 -14 2 6 -6 -20 -20 -20 -20 -20 -20 15 -14 -2 9 -20 -1 16 -20 -19 -1 -2 10 13 15 4 10 -20 -20 -20 -20 -20 -20 -20 1 7 -20 -20 9 1 9
-20 -20 -20 -20 8 13 -14 -20 -20 -20 -20 -20 -18 -20 9 -18 7 -11 5 11 15 -13 3 16 17 18 8 -3 15 -20 -20 -20 -20 -20 -20 -20 -20 -20 4 -20 9 7 -19
-20 -20 -20 -17 13 15 1 -20 -20 -20 -20 -20 -20 -20 -19 -3 4 10 7 -20 7 16 11 -20 -2 11 -20 16 15 -12 -20 -20 -20 -20 -20 -20 -20 -6 -20 -20 -20 -17 -6
-20 -20 -20 -20 14 -20 -20 -20 -20 -20 -20 -20 -20 -6 10 15 14 3 -20 -20 -20 -12 -19 -20 -18 -20 -20 -20 -20 -11 -20 -20 -20 -20 -20 -20 -20 -20 -20 -20 -20 -20 -20
-20 -20 -20 -13 -20 -20 -20 -20 -20 -20 -20 -20 -20 -20 19 19 16 13 -20 -20 -20 -20 -20 -20 -20 -20 -20 -20 -20 -20 -20 -20 -20 -20 -20 -20 -20 -20 -20 -20 -20 -20 -20
-20 -20 -20 -16 -16 -20 -20 -20 -20 -20 -20 -20 7 8 8 -13 14 -20 -20 -20 -20 -20 -20 -20 -20 -20 -20 -20 -20 -20 -20 -20 -20 -20 -20 -20 -20 -20 -20 -20 -20 -20 -20
-20 -20 -20 -4 -20 -20 -20 -20 -20 -20 -20 -20 -20 -20 -20 13 -7 -20 -20 -20 -20 -20 -20 -20 -20 -20 -20 -20 -20 -19 -20 -20 -20 -20 -20 -20 -20 -20 -20 -20 -20 -20 -20
-20 -20 -20 -15 -10 -20 -20 -20 -20 -20 -20 -20 -20 -20 -20 -16 -20 -20 -20 -20 -20 -20 -19 -20 -20 -20 -20 -20 -20 -20 -20 -20 -20 -20 -20 -20 -20 -20 -20 -20 -20 -20 -20
-20 -20 -20 -20 -20 -20 -20 -20 -20 -20 -20 -20 -20 -20 -20 -20 -20 -20 -20 -20 -20 -20 -15 -20 -20 -20 -20 -20 -20 -20 -20 -20 -20 -20 -20 -20 -20 -20 -20 -20 -20 -20 -20
-20 -20 -20 -20 -20 -20 -20 -20 -20 -20 -20 -20 -20 -20 -20 -20 -20 -20 -20 -20 -20 -20 -0 -13 -20 -20 -20 -20 -20 -20 -9 -20 -20 -20 -20 -20 -20 -20 -20 -20 -20 -20 -20
-20 -20 -20 -20 -20 -20 -20 -20 -20 -20 -20 -20 -20 -20 -20 -20 -20 -20 -20 -20 -20 -20 -20 -20 -20 -20 -20 -20 -20 -20 -20 -20 -20 -20 -20 -20 -20 -20 -20 -20 -20 -20 -20
-20 -20 -20 -20 -20 -20 -20 -20 -20 -20 -20 -20 -20 -20 -20 -20 -20 -20 -20 -20 -20 -20 -20 -20 -20 -20 -20 -20 -20 -20 -20 -20 -20 -20 -20 -20 -20 -20 -20 -20 -20 -20 -20
-20 -20 -20 -20 -20 -20 -20 -20 -20 -20 -20 -20 -20 -20 -20 -20 -20 -20 -20 -20 -20 -20 -20 -20 -20 -20 -20 -20 -20 -20 -20 -20 -20 -20 -20 -20 -20 -20 -20 -20 -20 -20 -20
-20 -20 -20 -20 -20 -20 -20 -20 -20 -20 -20 -20 -20 -20 -20 -20 -20 -20 -20 -20 -20 -20 -20 -20 -20 -20 -20 -20 -20 -20 -20 -20 -20 -20 -20 -20 -20 -20 -20 -20 -20 -20 -20
-20 -20 -20 -20 -20 -20 -20 -20 -20 -20 -20 -20 -20 -20 -20 -20 -20 -20 -20 -20 -20 -20 -20 -20 -20 -20 -20 -20 -20 -20 -20 -20 -20 -20 -20 -20 -20 -20 -20 -20 -20 -20 -15
-20 -20 -20 -20 -20 -20 -20 -20 -20 -20 -20 -20 -20 -20 -20 -20 -20 -20 -20 -20 -20 -20 -20 -20 -20 -20 -20 -20 -20 -20 -20 -20 -20 -20 -20 -20 -20 -20 -20 -20 -20 -20 -20
-20 -20 -20 -20 -20 -20 -20 -20 -20 -20 -20 -20 -20 -20 -20 -20 -20 -20 -20 -20 -20 -20 -20 -20 -20 -20 -20 -20 -20 -20 -20 -20 -20 -20 -20 -20 -20 -20 -20 -20 -20 -20 -20
-20 -20 -20 -20 -20 -20 -20 -20 -20 -20 -20 -20 -20 -20 -20 -20 -20 -20 -20 -20 -20 -20 -20 -20 -20 -20 -20 -20 -20 -20 -20 -20 -20 -20 -20 -20 -20 -20 -20 -20 -20 -20 -20
-20 -20 -20 -20 -20 -20 -20 -20 -20 -20 -20 -20 -20 -20 -20 -20 -20 -20 -20 -20 -20 -20 -20 -20 -20 -20 -20 -20 -20 -20 -20 -20 -20 -20 -20 -20 -20 -20 -20 -20 -20 -20 -20
-20 -20 -20 -20 -20 -20 -20 -20 -20 -20 -20 -20 -20 -20 -20 -20 -20 -20 -20 -20 -20 -20 -20 -20 -20 -20 -20 -20 -15 -20 -20 -20 -20 -20 -20 -20 -20 -20 -20 -20 -20 -20 -20
-20 -20 -20 -20 -20 -20 -20 -20 -20 -20 -20 -20 -20 -20 -20 -20 -20 -20 -20 -20 -20 -20 -20 -20 -20 -20 -20 -20 -16 8 -10 -20 -20 -20 -20 -20 -20 -20 -20 -20 -20 -20 -20
-20 -20 -20 -20 -20 -20 -20 -20 -20 -20 -20 -20 -20 -20 -20 -20 -20 -20 -20 -20 -20 -20 -20 -20 -20 -20 12 -11 -19 5 3 -14 -20 -20 -20 -20 -20 -20 -20 -20 -20 -20 -20
-20 -20 -20 -20 -20 -20 -20 -20 -20 -20 -20 -20 -20 -20 -20 -20 -20 -20 -20 -20 -20 -20 -20 -20 -19 -13 -11 -12 13 -20 -16 -13 15 5 -16 -20 -20 -20 -20 -20 -20 -20 -20
-20 -20 -20 -20 -20 -20 -20 -20 -20 -20 -20 -20 -20 -20 -20 -20 -20 -20 -20 -20 -20 -20 -20 -20 -20 1 12 19 18 23 17 18 16 23 18 -2 -5 -20 -20 -20 -20 -20 -20
-20 -20 -20 -20 -20 -20 -20 -20 -20 -20 -20 -20 -20 -20 -20 -20 -20 -20 -20 -20 -20 -20 -20 -20 -20 -20 -20 -20 -16 -13 2 17 19 20 24 16 13 -14 -17 -20 -8 12 -9

GFSSE_prec_radar_012.txt.gz
Reflectivity
-20 -20 -20 15 2 -12 16 -20 -20 -20 -20 -20 -20 -20 -8 -20 -20 -20 -2 8 -12 -20 -20 -20 -20 16 18 13 14 -4 -20 -20 -20 -20 -20 -20 -20 16 2 13 -20 -20 -20
-20 -20 -20 14 -5 18 19 9 -20 -20 -20 -20 -20 -20 -19 14 -20 -20 -18 14 15 9 -20 -20 -20 17 17 11 15 -18 -20 -20 -20 -20 -20 -20 -20 2 -20 -20 5 -20 -20
-20 -20 -20 -3 9 2 10 6 -20 -20 -20 -20 -20 -20 11 9 5 -9 12 10 17 11 -20 -16 -20 9 1 -0 11 15 -20 -20 -20 -20 -20 -20 -20 -20 -19 -20 17 15 10
-20 -20 -20 -14 -9 -13 17 12 -20 -20 -20 -20 -20 -20 14 11 -20 14 -20 -20 -7 16 10 -20 8 16 5 16 18 13 -17 -20 -20 -20 -20 -20 -20 -18 -2 -20 -3 9 -4
-20 -20 -20 -20 17 10 13 -15 -20 -20 -20 -20 -20 -20 17 -7 -18 -20 -20 -20 -20 -20 -20 -20 5 -1 -20 -19 1 9 -20 -20 -20 -20 -20 -20 -20 -20 -18 -20 -15 -20 -20
-20 -20 -20 -20 14 -12 10 -20 -20 -20 -20 -20 -20 -20 12 14 -19 -19 -20 -20 -20 -20 -20 -20 -20 -20 -20 -20 -20 -20 -20 -20 -20 -20 -20 -20 -20 -20 -20 -20 -20 -20 -20
-20 -20 -20 -20 9 -20 -20 -20 -20 -20 -20 -20 -0 -9 10 15 4 10 -20 -20 -20 -20 -20 -20 -20 -20 -20 -20 -20 -20 -2 -20 -20 -20 -20 -20 -20 -20 -20 -20 -20 -20 -20
-20 -20 -20 -20 -5 -20 -20 -20 -20 -20 -20 -20 -20 -8 -20 -20 11 -20 -20 -20 -20 -20 -20 -20 -20 -20 -20 -20 -20 -20 -11 3 -20 -20 -20 -20 -20 -20 -20 -20 -20 -20 -20
-20 -20 -20 -20 0 -20 -14 -8 -20 -20 -20 -20 -20 -20 -20 -20 -20 -20 -20 -20 -20 -20 9 11 5 4 -20 -20 -20 -20 -20 -1 -20 -20 -20 -20 -20 -20 -20 -20 -20 -20 -20
-20 -20 -20 -20 -14 -4 -20 -19 -19 -20 -20 -20 -20 -20 -20 -20 -20 -20 -20 -20 -20 -20 11 14 -6 6 -8 -20 -20 -20 -14 -20 -20 -20 -20 -20 -20 -20 -20 -20 -20 -20 -20
-20 -20 -20 -20 -20 -20 -20 -20 -4 -13 -20 -20 -20 -20 -20 -20 -20 -20 -20 -20 -20 -20 -17 9 12 8 7 -20 -20 -20 -20 -20 -20 -20 -20 -20 -20 -20 -20 -20 -20 -20 -20
-20 -20 -20 -20 -20 -20 -20 -20 -20 -20 -20 -20 -20 -20 -20 -20 -20 -20 -20 -20 -20 -20 -20 -20 1 6 4 -20 -20 -20 -20 -20 -20 -20 -20 -20 -20 -20 -20 -16 -20 -20 -20
-20 -20 -20 -20 -20 -20 -20 -20 -20 -20 -20 -20 -20 -20 -20 -20 -20 -20 -20 -20 -20 -20 -20 -20 -20 -20 -20 -20 -20 -20 -20 -20 -20 -20 -20 -20 -20 -20 -20 -20 -20 -10 -20
-20 -20 -20 -20 -20 -20 -20 -20 -20 -20 -20 -20 -20 -20 -20 -20 -20 -20 -20 -20 -20 -20 -20 -20 -20 -20 -20 -20 -20 -20 -20 -20 -20 -20 -20 -20 -20 -20 -20 -20 -20 -9 9
-20 -20 -20 -20 -20 -20 -20 -20 -20 -20 -20 -20 -20 -20 -20 -20 -20 -20 -20 -20 -20 -20 -20 -20 -20 -20 -20 -20 -20 -20 -20 -20 -20 -20 -20 -20 -20 -20 -20 -20 -20 -20 -20
-20 -20 -20 -20 -20 -20 -20 -20 -20 -20 -20 -20 -20 -20 -20 -20 -20 -20 -20 -20 -20 -20 -20 -20 -20 -20 -20 -20 -20 -20 -20 -20 -20 -20 -20 -20 -20 -20 -20 -20 -20 -20 -20
-20 -20 -20 -20 -20 -20 -20 -20 -20 -20 -20 -20 -20 -20 -20 -20 -20 -20 -20 -20 -20 -20 -20 -20 -20 -20 -20 -20 -20 -20 -20 -20 -20 -20 -20 -20 -20 -20 -20 -20 -20 -20 -20
-20 -20 -20 -20 -20 -20 -20 -20 -20 -20 -20 -20 -20 -20 -20 -20 -20 -20 -20 -20 -20 -20 -20 -20 -20 -20 -20 -20 -20 -20 -20 -20 -20 -20 -20 -20 -20 -20 -20 -20 -20 -20 -20
-20 -20 -20 -20 -20 -20 -20 -20 -20 -20 -20 -20 -20 -20 -20 -20 -20 -20 -20 -20 -20 -20 -20 -20 -20 -20 -20 -20 -20 -20 -20 -20 -20 -20 -20 -20 -20 -20 -20 -20 -20 -20 -20
-20 -20 -20 -20 -20 -20 -20 -20 -20 -20 -20 -20 -20 -20 -20 -20 -20 -20 -20 -20 -20 -20 -20 -20 -20 5 0 -20 -20 -20 -20 -20 -20 -20 -20 -20 -20 -20 -20 -20 -20 -20 -20
-20 -20 -20 -20 -20 -20 -20 -20 -20 -20 -20 -20 -20 -20 -20 -20 -20 -20 -20 -20 -20 -20 -20 -20 -20 -20 -20 -20 -20 -20 -20 -20 -20 -20 -20 -20 -20 -20 -20 -20 -20 -20 -20
-20 -20 -20 -20 -20 -20 -20 -20 -20 -20 -20 -20 -20 -20 -20 -20 -20 -20 -20 -20 -20 -20 -20 -20 -20 -7 -2 -20 2 4 -15 -20 -20 -20 -20 -20 -20 -20 -20 -20 -20 -20 -20
-20 -20 -20 -20 -20 -20 -20 -20 -20 -20 -20 -20 -20 -20 -20 -20 -20 -20 -20 -20 -20 -20 -20 -20 -13 4 4 -20 6 21 14 14 14 -14 -16 -20 -20 -20 -20 -20 -20 -20 -20
-20 -20 -20 -20 -20 -20 -20 -20 -20 -20 -20 -20 -20 -20 -20 -20 -20 -20 -20 -20 -20 -20 -20 -20 -20 -20 -17 -8 -11 6 20 16 25 10 6 -1 -11 -20 -20 -20 -20 -20 -20
-20 -20 -20 -20 -20 -20 -20 -20 -20 -20 -20 -20 -20 -20 -20 -20 -20 -20 -20 -20 -20 -20 -20 -20 -20 -20 -20 -20 -20 -20 -20 -20 -2 16 -3 -20 -20 -20 -10 -20 -20 -20 -20
-20 -20 -20 -20 -20 -20 -20 -20 -20 -20 -20 -20 -20 -20 -20 -20 -20 -20 -20 -20 -20 -20 -20 -20 -20 -20 -20 -20 -20 -20 -20 -10 -1 6 5 -13 2 -20 -20 -20 -20 -20 -15

GFSSE_prec_radar_015.txt.gz
Reflectivity
-20 -20 -20 2 4 10 -19 -9 -15 -20 -20 -20 -20 -20 -20 -20 -20 -20 -15 -20 -20 -20 -20 -20 -20 -1 15 18 11 -13 -20 -20 -20 -20 -20 -20 -20 0 -20 -20 -20 -20 -20
-20 -20 -20 14 -5 9 9 14 -8 -20 -20 -20 -20 -20 -20 -20 -20 -20 -20 -16 8 -3 -20 -20 -20 12 14 -16 3 -7 -20 -20 -20 -20 -20 -20 -20 -19 -20 -20 -5 -20 -20
-20 -20 -20 -11 -3 -1 4 2 10 -20 -20 -20 -20 -20 -8 -20 -19 -7 -14 -20 -15 2 -20 -20 -20 -3 -1 -18 2 5 -11 -20 -20 -20 -20 -20 -20 -20 -20 -20 13 18 14
-20 -20 -20 2 -10 -20 14 -16 15 -20 -20 -20 -20 -20 2 6 -20 -20 -20 -20 -20 -4 -20 -20 -20 -20 6 3 17 13 -6 -20 -20 -20 -20 -20 -20 -20 -11 -20 7 16 4
-20 -20 -20 -20 -20 -20 8 15 -20 -20 -20 -20 -20 -20 7 11 -20 -20 -20 -20 -20 -20 -20 -20 -20 -4 -17 -20 -1 13 2 -12 -20 -20 -20 -20 -20 -20 8 -20 -20 -0 -20
-20 -20 -20 -20 -20 15 -19 -19 -20 -20 -20 -20 -20 -20 13 16 0 -20 -20 -20 -20 -20 -20 -20 -20 1 -20 -20 -20 -19 6 2 -20 -20 -20 -20 -20 -20 -20 -5 -8 -20 -20
-20 -20 -20 -20 -20 8 2 -20 -20 -20 -20 -20 -20 -5 -20 16 13 -20 -20 -20 -20 -20 -20 -20 -20 -20 -4 -15 -16 -20 -20 -0 -10 -20 -20 -20 -20 -20 -20 -16 -20 -20 -20
-20 -20 -20 -20 -4 -20 -20 -20 -20 -20 -20 -20 -20 11 4 -5 -20 -20 -20 -20 -20 -20 -7 -6 -8 -20 -20 -20 -7 1 10 4 -4 -20 -20 -20 -20 -20 -20 -4 -20 -20 -20
-20 -20 -20 -20 -11 2 4 -20 -20 -20 -20 -20 -20 -20 -20 -20 -20 -20 -20 -20 -2 -1 14 14 14 12 8 -10 -8 -20 -5 4 -17 -5 -20 -20 -20 -20 -20 -12 5 -7 -20
-20 -20 -20 -20 -20 -20 -20 6 -20 -20 -20 -20 -20 -20 -20 -20 -20 -20 -20 -10 2 -20 -20 11 13 11 11 11 -17 -20 -20 -20 -20 -20 -20 -20 -20 -20 -11 4 5 -7 -20
-20 -20 -20 -20 -20 -20 -20 -20 -10 1 -12 -20 -20 -20 -20 -20 -20 -20 -20 -20 -20 -20 -20 -20 0 10 10 10 -19 -20 -20 -20 -20 -20 -20 -20 -20 -20 -20 -8 5 5 1
-20 -20 -20 -20 -20 -20 -20 -20 -20 -20 -20 -20 -20 -20 -20 -20 -20 -20 -20 -20 -20 -20 -20 -20 -20 -20 -20 -20 -20 -20 -20 -20 -20 -20 -20 -20 -20 -20 -20 -20 -19 1 -20
-20 -20 -20 -20 -20 -20 -20 -20 -20 -20 -20 -20 -20 -20 -20 -20 -20 -20 -20 -20 -20 -20 -20 -20 -20 -20 -20 -20 -20 -20 -20 -20 -20 -20 -20 -20 -20 -20 -20 -20 -20 -20 -20
-20 -20 -20 -20 -20 -20 -20 -20 -20 -20 -20 -20 -20 -20 -20 -20 -20 -20 -20 -20 -20 -20 -20 -20 -20 -20 -20 -20 -20 -20 -20 -20 -20 -20 -20 -20 -20 -20 -20 -20 -20 -20 -20
-20 -20 -20 -20 -20 -20 -20 -20 -20 -20 -20 -20 -20 -20 -20 -20 -20 -20 -20 -20 -20 -20 -20 -20 -20 -20 -20 -20 -20 -20 -20 -20 -20 -20 -20 -20 -20 -20 -20 -20 -20 -20 -20
-20 -20 -20 -20 -20 -20 -20 -20 -20 -20 -20 -20 -20 -20 -20 -20 -20 -20 -20 -20 -20 -20 -20 -20 -20 -20 -20 -20 -20 -20 -20 -20 -20 -20 -20 -20 -20 -20 -20 -20 -20 -20 -20
-20 -20 -20 -20 -20 -20 -20 -20 -20 -20 -20 -20 -20 -20 -20 -20 -20 -20 -20 -20 -20 -20 -20 -20 -20 -20 -20 -20 -20 -20 -20 -20 -20 -20 -20 -20 -20 -20 -20 -20 -20 -20 -20
-20 -20 -20 -20 -20 -20 -20 -20 -20 -20 -20 -20 -20 -20 -20 -20 -20 -20 -20 -20 -20 -20 -20 -20 -20 -20 -20 -20 -20 -20 -20 -20 -20 -20 -20 -20 -20 -20 -20 -20 -20 -20 -20
-20 -20 -20 -20 -20 -20 -20 -20 -20 -20 -20 -20 -20 -20 -20 -20 -20 -20 -20 -20 -20 -20 -20 -20 -20 -20 -20 -20 -20 -20 -20 -20 -20 -20 -20 -20 -20 -20 -20 -20 -20 -20 -20
-20 -20 -20 -20 -20 -20 -20 -20 -20 -20 -20 -20 -20 -20 -20 -20 -20 -20 -20 -20 -20 -20 -20 -20 -20 -20 -20 -20 -20 -20 -20 -20 -20 -20 -20 -20 -20 -20 -20 -20 -20 -20 -20
-20 -20 -20 -20 -20 -20 -20 -20 -20 -20 -20 -20 -20 -20 -20 -20 -20 -20 -20 -20 -20 -20 -20 -20 -20 -20 -20 -20 3 -20 -20 -20 -20 -20 -20 -20 -20 -20 -20 -20 -20 -20 -20
-20 -20 -20 -20 -20 -20 -20 -20 -20 -20 -20 -20 -20 -20 -20 -20 -20 -20 -20 -20 -20 -20 -20 -20 -20 -20 -20 -20 11 6 8 -20 -20 -16 -20 -20 -20 -20 -20 -20 -20 -20 -20
-20 -20 -20 -20 -20 -20 -20 -20 -20 -20 -20 -20 -20 -20 -20 -20 -20 -20 -20 -20 -20 -20 -20 -20 -20 -20 -20 -20 -20 -4 -7 -5 -20 -20 -20 -20 -20 -20 -20 -20 -20 -20 -20
-20 -20 -20 -20 -20 -20 -20 -20 -20 -20 -20 -20 -20 -20 -20 -20 -20 -20 -20 -20 -20 -20 -20 -20 -20 -20 -20 -20 -20 -20 -20 -20 -20 -20 -20 -20 -20 -20 -20 -20 -20 -20 -20
-20 -20 -20 -20 -20 -20 -20 -20 -20 -20 -20 -20 -20 -20 -20 -20 -20 -20 -20 -20 -20 -20 -20 -20 -20 -20 -20 -20 -20 -20 -20 -20 -20 -20 -19 -19 -20 -20 -20 -20 -20 -20 -7
-20 -20 -20 -20 -20 -20 -20 -20 -20 -20 -20 -20 -20 -20 -20 -20 -20 -20 -20 -20 -20 -20 -20 -20 -20 -20 -20 -20 -20 -20 -20 3 9 11 2 -20 -20 -20 -20 -20 -20 -20 -20

GFSSE_prec_radar_018.txt.gz
Reflectivity
-20 -20 -20 -18 14 -20 14 -20 -20 -20 -20 -20 -20 -20 -20 -20 -20 -20 -20 -20 -20 -17 -20 -20 -20 -18 16 -10 -5 2 -20 -20 -20 -20 -20 -20 -20 -13 -11 -20 -20 -20 -20
-20 -20 -20 -20 16 -20 7 -20 -20 -20 -20 -20 -20 -20 -20 -20 -20 -20 -20 -19 -12 -20 -20 -20 -20 -18 5 -15 -20 -20 -20 -20 -20 -20 -20 -20 -20 -20 -20 -20 -20 -20 -20
-20 -20 -20 4 -2 -20 -17 15 3 -20 -20 -20 -20 -20 -12 -2 -6 -20 -4 -20 -16 -20 -20 -20 -20 -20 -18 -20 -20 -15 8 -20 -20 -20 -20 -20 -20 -20 -20 -20 -20 -10 -17
-20 -20 -20 -16 -4 15 1 4 -20 -20 -20 -20 -20 -20 0 11 -8 -20 -20 -20 -20 -20 -20 -20 -20 -20 -20 -20 -17 6 -14 -20 -20 -20 -20 -20 -20 -20 -20 -20 -20 8 11
-20 -20 -20 -20 -16 -20 -20 2 -20 -20 -20 -20 -20 -20 -14 17 -12 -20 -20 -20 -20 -20 -20 -20 -20 -20 -20 -20 -20 7 5 -20 -20 -20 -20 -20 -20 -20 -20 5 -20 -20 -18
-20 -20 -20 -20 -20 4 -18 3 -20 -20 -20 -20 -20 -20 -9 17 13 -20 -20 -20 -20 -20 -20 -20 -20 2 14 -20 -20 -20 10 11 -20 -20 -20 -20 -20 -20 -20 -20 -20 -20 -13
-20 -20 -20 -20 -20 -12 4 -20 -20 -20 -20 -20 -20 -20 -4 9 18 4 -20 -20 -20 -20 -20 -20 -19 -20 -20 -20 -19 -19 -11 -20 -20 -20 -20 -20 -20 -20 6 7 2 -20 -20
-20 -20 -20 -20 -20 13 -20 -20 -20 -20 -20 -20 -20 9 14 0 -4 -8 -20 -20 -20 -20 -16 0 -14 -7 -20 -20 -20 -20 -16 11 -8 -20 -20 -20 -20 -20 -4 11 -3 -20 -20
-20 -20 -20 -20 -20 -19 -20 10 -13 -20 -20 -20 -20 -20 -9 -20 -20 -20 -20 -20 -20 9 -8 5 9 12 11 12 12 -5 -1 -2 -20 -20 -20 -20 -20 -20 -20 6 -7 7 -9
-20 -20 -20 -20 -20 -1 -3 8 -19 -19 -20 -20 -20 -20 -20 -20 -20 -20 -20 -20 -20 -20 -20 -20 -20 -16 -7 -9 -20 -20 -20 -20 -20 -20 -20 -20 -20 -20 -20 -20 1 -7 2
-20 -20 -20 -20 -20 -20 -20 -16 4 5 -6 -15 -20 -20 -20 -20 -20 -20 -20 -20 -20 -20 -20 -20 -20 -20 -20 -20 -20 -20 -20 -20 -20 -20 -20 -20 -20 -20 -20 -20 -20 -5 -20
-20 -20 -20 -20 -20 -20 -20 -15 -12 -20 -15 -20 -20 -20 -20 -20 -20 -20 -20 -20 -20 -20 -20 -20 -20 -20 -20 -20 -20 -20 -20 -20 -20 -20 -20 -20 -20 -20 -20 -20 -20 -20 -15
-20 -20 -20 -20 -20 -20 -20 -20 -20 -20 -20 -20 -20 -20 -20 -20 -20 -20 -20 -20 -20 -20 -20 -20 -20 -20 -20 -20 -20 -20 -20 -20 -20 -20 -20 -20 -20 -20 -20 -20 -20 -20 -20
-20 -20 -20 -20 -20 -20 -20 -20 -20 -20 -20 -20 -20 -20 -20 -20 -20 -20 -20 -20 -20 -20 -20 -20 -20 -20 -20 -20 -20 -20 -20 -20 -20 -20 -20 -20 -20 -20 -20 -20 -20 -20 -20
-20 -20 -20 -20 -20 -20 -20 -20 -20 -20 -20 -20 -20 -20 -20 -20 -20 -20 -20 -20 -20 -20 -20 -20 -20 -20 -20 -20 -20 -20 -20 -20 -20 -20 -20 -20 -20 -20 -20 -20 -20 -20 -20
-20 -20 -20 -20 -20 -20 -20 -20 -20 -20 -20 -20 -20 -20 -20 -20 -20 -20 -20 -20 -20 -20 -20 -20 -20 -20 -20 -20 -20 -20 -20 -20 -20 -20 -20 -20 -20 -20 -20 -20 -20 -20 -20
-20 -20 -20 -20 -20 -20 -20 -20 -20 -20 -20 -20 -20 -20 -20 -20 -20 -20 -20 -20 -20 -20 -20 -20 -20 -20 -20 -20 -20 -20 -20 -20 -20 -20 -20 -20 -20 -20 -20 -20 -20 -20 -20
-20 -20 -20 -20 -20 -20 -20 -20 -20 -20 -20 -20 -20 -20 -20 -20 -20 -20 -20 -20 -20 -20 -20 -20 -20 -20 -20 -20 -20 -20 -20 -20 -20 -20 -20 -20 -20 -20 -20 -20 -20 -20 -20
-20 -20 -20 -20 -20 -20 -20 -20 -20 -20 -20 -20 -20 -20 -20 -20 -20 -20 -20 -20 -20 -20 -20 -20 -20 -20 -20 -20 -20 -20 -20 -20 -20 -20 -20 -20 -20 -20 -20 -20 -20 -20 -20
-20 -20 -20 -20 -20 -20 -20 -20 -20 -20 -20 -20 -20 -20 -20 -20 -20 -20 -20 -20 -20 -20 -20 -20 -20 -20 -20 -20 -20 -20 -20 -20 -20 -20 -20 -20 -20 -20 -20 -20 -20 -20 -20
-20 -20 -20 -20 -20 -20 -20 -20 -20 -20 -20 -20 -20 -20 -20 -20 -20 -20 -20 -20 -20 -20 -20 -20 -20 -20 -20 -20 -20 -20 -20 -20 -20 -20 -20 -20 -20 -20 -20 -20 -20 -20 -20
-20 -20 -20 -20 -20 -20 -20 -20 -20 -20 -20 -20 -20 -20 -20 -20 -20 -20 -20 -20 -20 -20 -20 -20 -20 -20 -20 -20 -20 -20 -20 -20 -20 -20 -20 -20 -20 -20 -20 -20 -20 -20 -5
-20 -20 -20 -20 -20 -20 -20 -20 -20 -20 -20 -20 -20 -20 -20 -20 -20 -20 -20 -20 -20 -20 -20 -20 -20 -20 -20 -20 -20 -20 -20 -20 -20 -20 -20 -20 -20 -20 -20 -20 -20 -20 -20
-20 -20 -20 -20 -20 -20 -20 -20 -20 -20 -20 -20 -20 -20 -20 -20 -20 -20 -20 -20 -20 -20 -20 -20 -20 -20 -20 -20 -20 -20 -20 -20 -20 -20 -20 -20 -20 -20 -20 -20 -20 -20 -20
-20 -20 -20 -20 -20 -20 -20 -20 -20 -20 -20 -20 -20 -20 -20 -20 -20 -20 -20 -20 -20 -20 -20 -20 -20 -20 -20 -20 -20 -20 -20 -20 -20 -20 -20 -20 -20 -20 -20 -20 -20 -20 -20
-20 -20 -20 -20 -20 -20 -20 -20 -20 -20 -20 -20 -20 -20 -20 -20 -20 -20 -20 -20 -20 -20 -20 -20 -20 -20 -20 -20 -20 -20 -20 -20 -20 -20 -20 -20 -20 -20 -20 -20 -20 -20 -20

GFSSE_prec_radar_021.txt.gz
Reflectivity
-20 -20 -20 6 -15 -20 10 -20 -20 -20 -20 -20 -20 -20 -20 -20 -20 -20 -16 -20 -20 -20 -20 -20 -20 -20 15 -10 13 12 -15 -20 -20 -20 -20 -20 -20 -20 11 -20 -20 -20 -20
-20 -20 -20 10 -3 -20 -1 12 -20 -20 -20 -20 -20 -20 -20 -20 -20 -20 -20 -20 2 -20 -20 -20 -20 -20 -2 9 4 -6 -20 -17 -20 -20 -20 -20 -20 -20 -20 -20 -20 -3 -20
-20 -20 -20 -20 18 -20 8 13 5 -20 -20 -20 -20 -20 -18 7 -19 -20 -17 3 7 -2 -20 -20 -20 -20 -20 -15 -13 7 11 4 -20 -20 -20 -20 -20 -20 -20 -20 -20 -20 -10
-20 -20 -20 -20 -5 -5 -18 14 -5 -20 -20 -20 -20 -20 -20 2 14 -20 -20 -20 -20 -20 -20 -20 -20 -20 -20 -20 -20 -18 9 -14 -20 -20 -20 -20 -20 -20 -20 -20 -20 -20 8
-20 -20 -20 -20 -20 -9 15 9 -20 -20 -20 -20 -20 -20 -20 -5 -1 -5 -20 -20 -20 -20 -20 -20 -20 -20 -20 -20 -20 -20 6 4 -20 -20 -20 -20 -20 -20 -20 -20 -20 -20 -4
-20 -20 -20 -20 -20 -13 -17 -20 5 -20 -20 -20 -20 -20 -20 -20 7 -6 -20 -20 -20 -20 -20 -20 -20 -20 -20 -20 -20 -20 -20 9 -20 -20 -20 -20 -20 -20 -20 -20 -20 -20 -20
-20 -20 -20 -20 -20 -20 7 -4 6 -20 -20 -20 -20 -20 -19 2 17 12 -20 -20 -20 -20 -20 -20 -20 -20 -20 -20 -20 -20 -20 -20 -20 -20 -20 -20 -20 -20 -20 -3 4 -2 -20
-20 -20 -20 -20 -20 -20 9 -16 7 -20 -20 -20 -20 -20 -20 -3 -20 -13 -16 -20 -20 -20 -20 -20 -20 1 -14 -20 -20 -20 -20 -20 -20 -20 -20 -20 -20 -20 -20 -20 -17 -20 -11
-20 -20 -20 -20 -20 -20 -20 9 -20 -20 -20 -20 -20 -20 -17 -20 -20 -20 -20 -20 -20 -20 -4 -20 -20 -19 -18 -15 -20 -20 -20 -20 -20 -20 -20 -20 -20 -20 -20 -20 -20 -9 -1
-20 -20 -20 -20 -20 -20 -20 -20 -3 4 -20 -20 -20 -20 -20 -20 -20 -20 -20 -20 -20 -20 -20 -20 -20 -20 -20 -20 -20 -20 -20 -20 -20 -20 -20 -20 -20 -20 -20 -20 -20 -20 2
-20 -20 -20 -20 -20 -20 -20 -20 -20 -3 -1 -9 -20 -20 -20 -20 -20 -20 -20 -20 -20 -20 -20 -20 -20 -20 -20 -20 -20 -20 -20 -20 -20 -20 -20 -20 -20 -20 -20 -20 -20 -20 -20
-20 -20 -20 -20 -20 -20 -20 -20 -20 -20 -20 -20 -20 -20 -20 -20 -20 -20 -20 -20 -20 -20 -20 -20 -20 -20 -20 -20 -20 -20 -20 -20 -20 -20 -20 -20 -20 -20 -20 -20 -20 -20 -20
-20 -20 -20 -20 -20 -20 -20 -20 -20 -20 -20 -20 -20 -20 -20 -20 -20 -20 -20 -20 -20 -20 -20 -20 -20 -20 -20 -20 -20 -20 -20 -20 -20 -20 -20 -20 -20 -20 -20 -20 -20 -20 -20
-20 -20 -20 -20 -20 -20 -20 -20 -20 -20 -20 -20 -20 -20 -20 -20 -20 -20 -20 -20 -20 -20 -20 -20 -20 -20 -20 -20 -20 -20 -20 -20 -20 -20 -20 -20 -20 -20 -20 -20 -20 -20 -20
-20 -20 -20 -20 -20 -20 -20 -20 -20 -20 -20 -20 -20 -20 -20 -20 -20 -20 -20 -20 -20 -20 -20 -20 -20 -20 -20 -20 -20 -20 -20 -20 -20 -20 -20 -20 -20 -20 -20 -20 -20 -20 -20
-20 -20 -20 -20 -20 -20 -20 -20 -20 -20 -20 -20 -20 -20 -20 -20 -20 -20 -20 -20 -20 -20 -20 -20 -20 -20 -20 -20 -20 -20 -20 -20 -20 -20 -20 -20 -20 -20 -20 -20 -20 -20 -6
-20 -20 -20 -20 -20 -20 -20 -20 -20 -20 -20 -20 -20 -20 -20 -20 -20 -20 -20 -20 -20 -20 -20 -20 -20 -15 3 4 -1 -20 -20 -20 -20 -20 -20 -20 -20 -20 -20 -20 -20 -20 -19
-20 -20 -20 -20 -20 -20 -20 -20 -20 -20 -20 -20 -20 -20 -20 -20 -20 -20 -20 -20 -17 2 4 0 -2 -20 -20 -20 -20 -20 -20 -20 -20 -20 -20 -20 -20 -20 -20 -9 -2 -20 -20
-20 -20 -20 -20 -20 -20 -20 -20 -20 -20 -20 -20 -20 -20 -20 -20 -20 -20 -17 -20 -20 -20 -20 -20 -20 -20 -20 -20 -20 -20 -20 -20 -20 -20 -20 -20 -20 -20 -20 -20 -20 -20 -20
-20 -20 -20 -20 -20 -20 -20 -20 -20 -20 -20 -20 -20 -20 -20 -20 -20 -20 -20 -20 -20 -20 -20 -20 -20 -20 -20 -20 -20 -20 -20 -20 -20 -20 -20 -20 -20 -20 -20 -20 -20 -20 -18
-20 -20 -20 -20 -20 -20 -20 -20 -20 -20 -20 -20 -20 -20 -20 -20 -20 -20 -20 -20 -20 -20 -20 -20 -20 -20 -20 -20 -20 -20 -20 -20 -20 -20 -20 -20 -20 -20 -20 -20 -20 -20 -8
-20 -20 -20 -20 -20 -20 -20 -20 -20 -20 -20 -20 -20 -20 -20 -20 -20 -20 -20 -20 -20 -20 -20 -20 -20 -20 -20 -20 -20 -20 -20 -20 -20 -20 -20 -20 -20 -20 -20 -20 -20 -20 -20
-20 -20 -20 -20 -20 -20 -20 -20 -20 -20 -20 -20 -20 -20 -20 -20 -20 -20 -20 -20 -20 -20 -20 -20 -20 -20 -20 -20 -20 -20 -20 -20 -20 -20 -20 -20 -20 -20 -20 -20 -20 -20 -20
-20 -20 -20 -20 -20 -20 -20 -20 -20 -20 -20 -20 -20 -20 -20 -20 -20 -20 -20 -20 -20 -20 -20 -20 -20 -20 -20 -20 -20 -20 -20 -20 -20 -20 -20 -20 -20 -20 -20 -20 -20 -20 -20
-20 -20 -20 -20 -20 -20 -20 -20 -20 -20 -20 -20 -20 -20 -20 -20 -20 -20 -20 -20 -20 -20 -20 -20 -20 -20 -20 -20 -20 -20 -20 -20 -20 -20 -20 -20 -20 -20 -20 -20 -20 -20 -20
-20 -20 -20 -20 -20 -20 -20 -20 -20 -20 -20 -20 -20 -20 -20 -20 -20 -20 -20 -20 -20 -20 -20 -20 -20 -20 -20 -20 -20 -20 -20 -20 -20 -20 -20 -20 -20 -20 -20 -20 -20 -20 -20

GFSSE_prec_radar_024.txt.gz
Reflectivity
-20 -20 -20 5 -14 6 -2 -20 -20 -20 -20 -20 -20 -20 -20 -20 -20 -20 -20 -20 -15 -10 -20 -20 -20 -20 18 -2 14 -19 -20 -20 -20 -20 -20 -20 -20 -20 -12 -20 -20 -12 -13
-20 -20 -20 7 -8 -20 14 18 -12 -20 -20 -20 -20 -20 -20 -20 -20 -20 -20 -20 13 -18 -20 -20 2 9 9 9 -19 -7 -20 9 -20 -20 -20 -20 -20 -20 -20 -20 -20 -15 13
-20 -20 -3 -17 -20 -20 18 21 14 -20 -20 -20 -20 -20 -20 -18 -20 -20 -20 -13 -10 11 -20 -20 -20 -20 5 -20 -20 -15 -10 -15 -20 -20 -20 -20 -20 -20 -20 -20 -20 -20 -5
-20 -20 -20 -16 0 12 14 20 -6 -20 -20 -20 -20 -20 -9 -4 7 -20 -20 -20 -20 -20 -20 -20 -20 -20 -20 -20 -20 -20 16 9 -15 -20 -20 -20 -20 -20 -20 -20 -20 -20 -20
-20 -20 -20 -20 -20 12 -20 12 9 -20 -20 -20 -20 -20 -20 5 18 9 -20 -20 -20 -20 -20 -20 -20 -20 -20 -20 -20 -20 -20 6 -20 -20 -20 -20 -20 -20 -12 -20 -20 -20 -20
-20 -20 -20 -20 -20 7 -20 -20 -20 -20 -20 -20 -20 -20 -20 -20 13 -3 -20 -20 -20 -20 -20 -20 -20 -20 -20 -20 -20 -20 -20 -20 -20 -20 -20 -20 -20 -20 -20 -20 -20 -20 -20
-20 -20 -20 -20 -20 -20 -20 -20 -20 -20 -20 -20 -20 -20 -20 -20 11 13 -2 -20 -20 -20 -20 -20 -20 -20 -20 -20 -20 -20 -20 -20 -20 -20 -20 -20 -20 -20 -20 -20 -20 -20 -20
-20 -20 -20 -20 -20 -20 -20 -20 -20 -20 -20 -20 -20 -20 -20 -18 -20 -3 -20 -20 -20 -20 -20 -20 -20 -20 -16 -17 -20 -20 -20 -20 -20 -20 -20 -20 -20 -20 -20 -20 -20 -20 3
-20 -20 -20 -20 -20 -20 -20 -20 -20 -20 -20 -20 -20 -20 -20 -20 -20 -20 -20 -20 -20 -20 -20 -20 -20 -20 -20 -8 3 -6 -20 -20 -20 -20 -20 -20 -20 -20 -20 -20 -20 -20 -20
-20 -20 -20 -20 -20 -20 -20 -20 -20 -20 -20 -20 -20 -20 -20 -20 -20 -20 -20 -20 -20 -20 -20 -20 -20 -20 -20 -20 -20 -20 -20 -20 -20 -20 -20 -20 -20 -20 -20 -20 -20 -20 -20
-20 -20 -20 -20 -20 -20 -20 -20 -20 -20 -20 -20 -20 -20 -20 -20 -20 -20 -20 -20 -20 -20 -20 -20 -20 -20 -20 -20 -20 -20 -20 -20 -20 -20 -20 -20 -20 -20 -20 -20 -20 -20 -20
-20 -20 -20 -20 -20 -20 -20 -20 -20 -20 -20 -20 -20 -20 -20 -20 -20 -20 -20 -20 -20 -20 -20 -20 -20 -20 -20 -20 -20 -20 -20 -20 -20 -20 -20 -20 -20 -20 -20 -20 -20 -20 -20
-20 -20 -20 -20 -20 -20 -20 -20 -20 -20 -20 -20 -20 -20 -20 -20 -20 -20 -20 -20 -20 -20 -20 -20 -20 -20 -20 -20 -20 -20 -20 -20 -20 -20 -20 -20 -20 -20 -20 -20 -20 -20 -20
-20 -20 -20 -20 -20 -20 -20 -20 -20 -20 -20 -20 -20 -20 -20 -20 -20 -20 -20 -20 -20 -20 -20 -20 -20 -20 -20 -20 -20 -20 -20 -20 -19 -19 -20 -20 -20 -20 -20 -20 -20 -20 -18
-20 -20 -20 -20 -20 -20 -20 -20 -20 -20 -20 -20 -20 -20 -20 -20 -20 -20 -20 -20 -20 -20 -20 -20 -20 -20 -20 -20 -20 -8 7 5 6 9 -3 14 -2 -20 -8 -11 -12 -10 9
-20 -20 -20 -20 -20 -20 -20 -20 -20 -20 -20 -20 -20 -20 -20 -20 -20 -20 -20 -20 -20 -20 -20 -12 -13 -16 -18 3 3 -12 -19 -20 -20 -20 -20 -20 -20 -20 -20 -10 8 10 11
-20 -20 -20 -20 -20 -20 -20 -20 -20 -20 -20 -20 -20 -20 -20 -20 -20 -20 -20 -15 -20 -18 7 -6 9 -10 -20 -20 -20 -20 -20 -20 -20 -20 -20 -20 -20 -20 -2 8 -20 -19 -19
-20 -20 -20 -20 -20 -20 -20 -20 -20 6 -7 -20 -15 -8 2 -20 -20 -20 -10 -9 10 2 -16 -20 -20 -20 -20 -20 -20 -20 -20 -20 -20 -20 -20 -20 -20 -20 -20 -20 -17 15 -10
-20 -20 -20 -20 -20 -20 -20 -20 -20 -20 -20 -20 -20 -20 -20 -20 -20 -20 -20 -20 -20 -20 -20 -20 -20 -20 -20 -20 -20 -20 -20 -20 -20 -20 -20 -20 -20 -20 -20 7 -9 -20 -15
-20 -20 -20 -20 -20 -20 -20 -20 -20 -20 -20 -20 -20 -20 -20 -20 -20 -20 -20 -20 -20 -20 -20 -20 -20 -20 -20 -20 -20 -20 -20 -20 -20 -20 -20 -20 -20 -20 -20 -20 -20 -20 -20
-20 -20 -20 -20 -20 -20 -20 -20 -20 -20 -20 -20 -20 -20 -20 -20 -20 -20 -20 -20 -20 -20 -20 -20 -20 -20 -20 -20 -20 -20 -20 -20 -20 -20 -20 -20 -20 -20 -20 -20 -20 -20 -20
-20 -20 -20 -20 -20 -20 -20 -20 -20 -20 -20 -20 -20 -20 -20 -20 -20 -20 -20 -20 -20 -20 -20 -20 -20 -20 -20 -20 -20 -20 -20 -20 -20 -20 -20 -20 -20 -20 -20 -20 -20 -20 -20
-20 -20 -20 -20 -20 -20 -20 -20 -20 -20 -20 -20 -20 -20 -20 -20 -20 -20 -20 -20 -20 -20 -20 -20 -20 -20 -20 -20 -20 -20 -20 -20 -20 -20 -20 -20 -20 -20 -20 -20 -20 -20 -20
-20 -20 -20 -20 -20 -20 -20 -20 -20 -20 -20 -20 -20 -20 -20 -20 -20 -20 -20 -20 -20 -20 -20 -20 -20 -20 -20 -20 -20 -20 -20 -20 -20 -20 -20 -20 -20 -20 -20 -20 -20 -20 -20
-20 -20 -20 -20 -20 -20 -20 -20 -20 -20 -20 -20 -20 -20 -20 -20 -20 -20 -20 -20 -20 -20 -20 -20 -20 -20 -20 -20 -20 -20 -20 -20 -20 -20 -20 -20 -20 -20 -20 -20 -20 -20 -20
-20 -20 -20 -20 -20 -20 -20 -20 -20 -20 -20 -20 -20 -20 -20 -20 -20 -20 -20 -20 -20 -20 -20 -20 -20 -20 -20 -20 -20 -20 -20 -20 -20 -20 -20 -20 -20 -20 -20 -20 -20 -20 -20

GFSSE_prec_radar_027.txt.gz
Reflectivity
-20 -20 -20 -10 -14 1 -17 -15 -20 -20 -20 -20 -20 -20 -20 -20 -20 -20 -20 -20 -18 -7 -17 6 -20 -17 24 11 14 -20 -17 -20 -20 -20 -20 -20 -20 -20 -20 -20 -20 -20 -15
-20 -20 -20 -20 -20 -20 16 10 -20 -20 -20 -20 -20 -20 -20 -20 -20 -20 -20 -20 -20 -8 -20 -20 -20 -17 1 -8 -19 -20 -17 11 -20 -20 -20 -20 -20 -20 -20 -20 -20 -20 16
-20 -20 -20 -20 -20 -15 12 -20 -20 -20 -20 -20 -20 -20 -20 -20 -20 -20 -20 -20 -4 -20 -20 -20 -20 -20 5 -12 -20 -20 -20 -20 -20 -20 -20 -20 -20 -20 -20 -20 -20 -20 -20
-20 -20 -20 -20 -14 -4 -20 -20 -20 -20 -20 -20 -20 -20 -16 8 9 -20 -20 -20 -20 -20 -20 -20 -20 -20 -20 -20 -20 -20 -20 -20 -20 -20 -20 -20 -20 -20 -20 -20 -20 -20 -20
-20 -20 -20 -20 -20 -7 -19 -20 -20 -20 -20 -20 -20 -20 -20 12 14 -19 -20 -20 -20 -20 -20 -20 -20 -20 -20 -20 -20 -20 -20 -20 -20 -20 -20 -20 -20 -20 -20 -20 -20 -20 -20
-20 -20 -20 -20 -20 -20 -17 -20 -20 -20 -20 -20 -20 -20 -20 -20 14 -20 -20 -20 -20 -20 -20 -20 -20 -20 -20 -20 -20 -20 -20 -20 -20 -20 -20 -20 -20 -20 -20 -20 -20 -20 -20
-20 -20 -20 -20 -20 -20 -20 -20 -20 -20 -20 -20 -20 -20 -20 -20 -10 -20 -20 -20 -20 -20 -20 -20 -20 -20 -20 -20 -20 -20 -20 -20 -20 -20 -20 -20 -20 -20 -20 -20 -20 -5 -20
-20 -20 -20 -20 -20 -20 -20 -20 -20 -20 -20 -20 -20 -20 -20 -20 -11 -20 -20 -20 -20 -20 -20 -20 -20 -20 -11 -3 -19 -20 -20 -20 -20 -20 -20 -20 -20 -20 -20 -20 -20 -20 -20
-20 -20 -20 -20 -20 -20 -20 -20 -20 -20 -20 -20 -20 -20 -20 -20 -20 -20 -20 -20 -20 -20 -20 -20 -20 -20 -20 -20 -15 -16 -20 -20 -20 -20 -20 -20 -20 -20 -20 -20 -20 -20 -20
-20 -20 -20 -20 -20 -20 -20 -20 -20 -20 -20 -20 -20 -20 -20 -20 -20 -20 -20 -20 -20 -20 -20 -20 -20 -20 -20 -20 -20 -20 -20 -20 -20 -20 -20 -20 -20 -20 -20 -20 -20 -20 -20
-20 -20 -20 -20 -20 -20 -20 -20 -20 -20 -20 -20 -20 -20 -20 -20 -20 -20 -20 -20 -20 -20 -20 -20 -20 -20 -20 -20 -20 -20 -20 -20 -20 -20 -20 -20 -20 -20 -20 -20 -20 -20 -20
-20 -20 -20 -20 -20 -20 -20 -20 -20 -20 -20 -20 -20 -20 -20 -20 -20 -20 -20 -20 -20 -20 -20 -20 -20 -20 -20 -20 -20 -20 -20 -20 -20 -20 -20 -20 -20 -20 -20 -20 -20 -20 -20
-20 -20 -20 -20 -20 -20 -20 -20 -20 -20 -20 -20 -20 -20 -20 -20 -20 -20 -20 -20 -20 -20 -20 -20 -20 -20 -20 -20 -20 -20 -20 -20 -20 -20 -2 -2 -5 -20 -20 7 3 -20 -20
-20 -20 -20 -20 -20 -20 -20 -20 -20 -20 -20 -20 -20 -20 -20 -20 -20 -20 -20 -20 -20 -20 -20 -20 -20 -20 -20 -20 -20 -20 -20 -20 -20 -12 -4 14 16 3 15 -12 14 -1 -10
-20 -20 -20 -20 -20 -20 -20 -20 -20 -20 -20 -20 -20 -20 -20 -20 -20 -20 -20 -20 -20 -20 -20 -20 -11 -14 -11 -20 -20 -20 -20 -20 -20 -20 -20 -20 -20 -20 -20 -20 -17 7 20
-20 -20 -20 -20 -20 -20 -20 -20 -20 -20 -20 -13 -20 -20 -20 -20 -20 -20 -20 -20 -20 -20 1 -6 -2 -12 -16 -20 -20 -20 -20 -20 -20 -20 -20 -20 -20 -20 -20 -20 -20 13 -17
-20 -20 -20 -20 -20 -20 -20 -20 -20 -17 10 5 6 -15 10 -20 -20 -20 -20 -11 -4 6 1 -0 -18 -20 -20 -20 -20 -20 -20 -20 -20 -20 -20 -20 -20 -20 -20 -20 -20 -20 -19
-20 -20 -20 -20 -20 -20 -20 -20 -20 3 7 4 -9 3 11 -7 5 -8 -18 -4 11 -3 -20 -20 -20 -20 -20 -20 -20 -20 -20 -20 -20 -20 -20 -20 -20 -20 -20 -20 -20 -20 3
-20 -20 -20 -20 -20 -20 -20 -20 -20 -9 -10 -10 2 -8 -20 -6 -19 -20 -20 -20 -20 -20 -20 -20 -20 -20 -20 -20 -20 -20 -20 -20 -20 -20 -20 -20 -20 -20 -20 -20 -20 -20 -20
-20 -20 -20 -20 -20 -20 -20 -20 -20 -20 -20 -19 -19 -20 -20 -20 -20 -20 -20 -20 -20 -20 -20 -20 -20 -20 -20 -20 -20 -20 -20 -20 -20 -20 -20 -20 -20 -20 -20 -20 -20 -20 -20
-20 -20 -20 -20 -20 -20 -20 -20 -20 -20 -20 -20 -20 -20 -20 -20 -20 -20 -20 -20 -20 -20 -20 -20 -20 -20 -20 -20 -20 -20 -20 -20 -20 -20 -20 -20 -20 -20 -20 -20 -20 -20 -20
-20 -20 -20 -20 -20 -20 -20 -20 -20 -20 -20 -20 -20 -20 -20 -20 -20 -20 -20 -20 -20 -20 -20 -20 -20 -20 -20 -20 -20 -20 -20 -20 -20 -20 -20 -20 -20 -20 -20 -20 -20 -20 -20
-20 -20 -20 -20 -20 -20 -20 -20 -20 -20 -20 -20 -20 -20 -20 -20 -20 -20 -20 -20 -20 -20 -20 -20 -20 -20 -20 -20 -20 -20 -20 -20 -20 -20 -20 -20 -20 -20 -20 -20 -20 -20 -20
-20 -20 -20 -20 -20 -20 -20 -20 -20 -20 -20 -20 -20 -20 -20 -20 -20 -20 -20 -20 -20 -20 -20 -20 -20 -20 -20 -20 -20 -20 -20 -20 -20 -20 -20 -20 -20 -20 -20 -20 -20 -20 -20
-20 -20 -20 -20 -20 -20 -20 -20 -20 -20 -20 -20 -20 -20 -20 -20 -20 -20 -20 -20 -20 -20 -20 -20 -20 -20 -20 -20 -20 -20 -20 -20 -20 -20 -20 -20 -20 -20 -20 -20 -20 -20 -20
-20 -20 -20 -20 -20 -20 -20 -20 -20 -20 -20 -20 -20 -20 -20 -20 -20 -20 -20 -20 -20 -20 -20 -20 -20 -20 -20 -20 -20 -20 -20 -20 -20 -20 -20 -20 -20 -20 -20 -20 -20 -20 -20

GFSSE_prec_radar_030.txt.gz
Reflectivity
-20 -20 -20 -20 0 -4 -14 -20 -20 -20 -20 -20 -20 -20 -20 -20 -8 -7 -20 -20 -20 -20 -13 9 -20 14 16 10 10 10 -20 -20 -20 -20 -20 -20 -20 -20 -20 -20 -20 -20 -20
-20 -19 -20 -20 -19 6 4 -20 -20 -20 -20 -20 -20 -20 -20 -20 -20 -20 -20 -20 -20 -20 -20 -20 -20 -2 -17 -17 -19 -20 -20 -20 -20 -20 -20 -20 -20 -20 -20 -20 -20 -20 -2
-20 -20 -20 -20 -17 -18 5 -20 -20 -20 -20 -20 -20 -20 -20 -20 -19 -20 -20 -20 -20 -20 -20 -20 -20 -20 -20 -20 -20 -20 -20 -20 -20 -20 -20 -20 -20 -20 -20 -20 -20 -20 -20
-20 -20 -20 -20 -20 -18 -19 -20 -20 -20 -20 -20 -20 -20 -20 8 1 -20 -20 -20 -20 -20 -20 -20 -20 -20 -20 -20 -20 -20 -20 -20 -20 -20 -20 -20 -20 -20 -20 -20 -11 -20 -20
-20 -20 -20 -20 -20 -20 3 -20 -20 -20 -20 -20 -20 -20 -18 9 1 -17 -20 -20 -20 -20 -20 -20 -20 -20 -20 -20 -20 -20 -20 -20 -20 -20 -20 -20 -20 -20 -17 9 -9 -20 -20
-20 -20 -20 -20 -20 14 -20 -20 -20 -20 -20 -20 -20 -20 -20 -8 -5 -20 -20 -20 -20 -20 -20 -20 -20 -20 -20 -20 -20 -20 -20 -20 -20 -20 -20 -20 -20 -20 -20 -20 -20 -20 -20
-20 -20 -20 -20 -20 5 -20 -20 -20 -20 -20 -20 -20 -20 -20 -18 7 -20 -20 -20 -20 -20 -20 -20 -20 -20 -20 -20 -20 -20 -20 -20 -20 -20 -20 -20 -20 -20 -20 -20 -20 7 3
-20 -20 -20 -20 -13 -5 -20 -20 -20 -20 -20 -20 -20 -20 -20 -20 5 -20 -20 -20 -20 -20 -20 -20 -20 -20 -20 -1 12 14 -15 -20 -20 -20 -20 -20 -20 -20 -20 -20 -20 -20 -20
-20 -20 -20 -20 -17 -20 -20 -20 -20 -20 -20 -20 -20 -20 -20 -20 -16 -20 -20 -20 -20 -20 -20 -20 -20 -20 -20 -20 -20 -20 -20 -20 -20 -20 -20 -20 -20 -20 -20 -20 -20 -20 -20
-20 -20 -20 -20 -20 -20 -20 -20 -20 -20 -20 -20 -20 -20 -20 -20 -20 -20 -20 -20 -20 -20 -20 -20 -20 -20 -20 -20 -20 -20 -20 -20 -20 -20 -20 -20 -20 -20 -20 -20 -20 -20 -20
-20 -20 -20 -20 -20 -20 -20 -20 -20 -20 -20 -20 -20 -20 -20 -20 -20 -20 -20 -20 -20 -20 -20 -20 -20 -20 -20 -20 -20 -20 -20 -20 -20 -20 -20 -20 -20 -20 -20 -20 -14 -20 -20
-20 -20 -20 -20 -20 -20 -20 -20 -20 -20 -20 -20 -20 -20 -20 -20 -20 -20 -20 -20 -20 -20 -20 -20 -20 -20 -20 -20 -20 -20 -20 -20 -20 -20 -20 -20 -20 2 6 8 15 10 -20
-20 -20 -20 -20 -20 -20 -20 -20 -20 -20 -20 -20 -20 -20 -20 -20 -20 -20 -20 -20 -20 -20 -20 -20 -20 -20 -20 -20 -20 -20 -20 -20 -20 -20 -20 -20 -19 -20 16 12 17 21 15
-20 -20 -20 -20 -20 -20 -20 -20 -20 -20 -20 -20 -20 -20 -20 -20 -20 -20 -20 -20 -20 -20 -20 -20 -20 -20 -20 -16 -20 -20 -20 -20 -20 -20 -20 -20 -20 -20 -20 -20 -20 -3 -17
-20 -20 -20 -20 -20 -20 -20 -20 -20 -20 -20 -20 -20 -20 -20 -20 -20 -20 -20 -20 -20 -20 -19 -12 -2 4 -6 -0 -6 -20 -20 -20 -20 -20 -20 -20 -20 -20 -20 -20 -20 -20 -20
-20 -20 -20 -20 -20 -20 -20 -20 -20 -20 -20 -20 -20 -20 -20 -20 -20 -20 -20 -20 -20 -20 -14 -20 13 7 4 -20 -20 -20 -20 -20 -20 -20 -20 -20 -20 -20 -20 -20 -20 -20 -20
-20 -20 -20 -20 -20 -20 -20 -20 -20 -20 -4 6 9 -7 12 9 -20 -20 -20 -20 -20 10 -17 0 -19 -20 -20 -20 -20 -20 -20 -20 -20 -20 -20 -20 -20 -20 -20 -20 -20 -20 -20
-20 -20 -20 -20 -20 -20 -20 -20 -20 -20 12 -20 8 -13 -6 12 3 13 4 -18 -15 -6 -20 -20 -20 -20 -20 -20 -20 -20 -20 -20 -20 -20 -20 -20 -20 -20 -20 -20 -20 -20 -20
-20 -20 -20 -20 -20 -20 -20 -20 -20 -20 10 9 3 8 6 -8 -4 -14 -20 -20 -20 -20 -20 -20 -20 -20 -20 -20 -20 -20 -20 -20 -20 -20 -20 -20 -20 -20 -20 -20 -20 -20 -20
-20 -20 -20 -20 -20 -20 -20 -20 -20 -20 3 12 4 2 -8 -20 -20 -20 -20 -20 -20 -20 -20 -20 -20 -20 -20 -20 -20 -20 -20 -20 -20 -20 -20 -20 -20 -20 -20 -20 -20 -20 -20
-20 -20 -20 -20 -20 -20 -20 -20 -20 -20 -20 -20 -19 -20 -20 -20 -20 -20 -20 -20 -20 -20 -20 -20 -20 -20 -20 -20 -20 -20 -20 -20 -20 -20 -20 -20 -20 -20 -20 -20 -20 -20 -20
-20 -20 -20 -20 -20 -20 -20 -20 -20 -20 -20 -20 -19 -20 -20 -20 -20 -20 -20 -20 -20 -20 -20 -20 -20 -20 -20 -20 -20 -20 -20 -20 -20 -20 -20 -20 -20 -20 -20 -20 -20 -20 -20
-20 -20 -20 -20 -20 -20 -20 -20 -20 -20 -20 -20 -20 -20 -20 -20 -20 -20 -20 -20 -20 -20 -20 -20 -20 -20 -20 -20 -20 -20 -20 -20 -20 -20 -20 -20 -20 -20 -20 -20 -20 -20 -20
-20 -20 -20 -20 -20 -20 -20 -20 -20 -20 -20 -20 -20 -20 -20 -20 -20 -20 -20 -20 -20 -20 -20 -20 -20 -20 -20 -20 -20 -20 -20 -20 -20 -20 -20 -20 -20 -20 -20 -20 -20 -20 -20
-20 -20 -20 -20 -20 -20 -20 -20 -20 -20 -20 -20 -20 -20 -20 -20 -20 -20 -20 -20 -20 -20 -20 -20 -20 -20 -20 -20 -20 -20 -20 -20 -20 -20 -20 -20 -20 -20 -20 -20 -20 -20 -20
-20 -20 -20 -20 -20 -20 -20 -20 -20 -20 -20 -20 -20 -20 -20 -20 -20 -20 -20 -20 -20 -20 -20 -20 -20 -20 -20 -20 -20 -20 -20 -20 -20 -20 -20 -20 -20 -20 -20 -20 -20 -20 -20

GFSSE_prec_radar_033.txt.gz
Reflectivity
-20 -20 -20 -9 18 9 7 -20 -20 -20 -20 -20 -20 -20 -20 -2 -2 -20 -20 -20 -20 -20 6 -11 -20 17 17 -2 12 -20 -20 -20 -20 -20 -20 -20 -20 -20 -20 -20 -20 -20 -20
-20 -20 -20 -12 9 -20 -20 -20 -20 -20 -20 -20 -20 -20 -20 -20 -20 -20 -20 -20 -20 -20 -7 1 11 9 15 -1 -20 -20 -20 -20 -20 -20 -20 -20 -20 -20 -20 -20 -20 -20 8
-20 -20 -20 -20 -20 5 -20 -20 -20 -20 -20 -20 -20 -20 -20 -20 -20 -20 -20 -20 -20 -20 -20 -20 -20 -20 -15 -20 -20 -20 -20 -20 -20 -20 -20 -20 -20 -20 -20 -20 -20 -20 -20
-20 -20 -20 -20 -19 10 -13 -20 -20 -20 -20 -20 -20 -20 -20 1 -15 -20 -20 -20 -20 -20 -20 -20 -20 -20 -20 -20 -20 -20 -20 -20 -20 -20 -20 -20 -20 -20 -20 -20 -20 -20 -20
-20 -20 -20 -20 -20 -7 -20 -20 -20 -20 -20 -20 -20 -20 -17 15 3 -10 -20 -20 -20 -20 -20 -20 -20 -20 -20 -20 -20 -20 -20 -20 -20 -20 -20 -20 -20 -20 -20 -5 19 -4 -13
-20 -20 -20 -20 -20 -19 4 -20 -20 -20 -20 -20 -20 -20 -15 15 15 -20 -20 -20 -20 -20 -20 -20 -20 -20 -20 -20 -20 -20 -20 -20 -20 -20 -20 -20 -20 -20 -20 -20 -20 -20 -20
-20 -20 -20 -20 -20 -11 -20 -20 -20 -20 -20 -20 -20 -20 -20 -4 14 -8 -20 -20 -20 -20 -20 -20 -20 -20 -20 -18 -20 -20 -20 -20 -20 -20 -20 -20 -20 -20 -20 -20 -17 -20 -1
-20 -20 -20 -20 -20 7 -20 -20 -20 -20 -20 -20 -20 -20 -20 -20 15 -15 -20 -20 -20 -20 -20 -20 -20 -20 -20 -20 4 -0 -10 -18 -20 -20 -20 -20 -20 -20 -20 -20 -20 -6 -20
-20 -20 -20 -20 -20 -20 -20 -20 -20 -20 -20 -20 -20 -20 -20 -20 5 -3 -20 -20 -20 -20 -20 -20 -20 -20 -20 -20 -20 -20 -20 -20 -20 -20 -20 -20 -20 -20 -20 -20 -20 -18 -8
-20 -20 -20 -20 -20 -20 -20 -20 -20 -20 -20 -20 -20 -20 -20 -20 -20 -20 -20 -20 -20 -20 -20 -20 -20 -20 -20 -20 -20 -20 -20 -20 -20 -20 -20 -20 -20 -20 -20 -20 -20 -20 -20
-20 -20 -20 -20 -20 -20 -20 -20 -20 -20 -20 -20 -20 -20 -20 -20 -20 -20 -20 -20 -20 -20 -20 -20 -20 -20 -20 -20 -20 -20 -20 -20 -20 -20 -20 -20 -20 -20 -1 16 9 -18 -5
-20 -20 -20 -20 -20 -20 -20 -20 -20 -20 -20 -20 -20 -20 -20 -20 -20 -20 -20 -20 -20 -20 -20 -20 -20 -20 -20 -20 -20 -20 -20 -20 -20 -20 -20 -20 7 1 16 10 17 12 12
-20 -20 -20 -20 -20 -20 -20 -20 -20 -20 -20 -20 -20 -20 -20 -20 -20 -20 -20 -20 -20 -20 -20 -20 -20 -20 -20 -20 -20 -20 -20 -20 -20 -20 -20 -20 -20 -20 -20 -20 -20 -20 -20
-20 -20 -20 -20 -20 -20 -20 -20 -20 -20 -20 -20 -20 -20 -20 -20 -20 -20 -20 -20 -20 -20 -20 -20 -20 -20 -20 -20 -18 -20 -20 -20 -20 -20 -20 -20 -20 -20 -20 -20 -20 -20 -20
-20 -20 -20 -20 -20 -20 -20 -20 -20 -20 -20 -20 -20 -20 -20 -20 -20 -20 -20 -20 -20 -20 -20 -0 8 1 13 11 -6 -20 -20 -20 -20 -20 -20 -20 -20 -20 -20 -20 -20 -20 -20
-20 -20 -20 -20 -20 -20 -20 -20 -20 -20 -20 -20 -18 -3 -2 11 7 -9 -20 -20 -20 -20 -4 7 8 10 -18 -20 -20 -20 -20 -20 -20 -20 -20 -20 -20 -20 -20 -20 -20 -20 -20
-20 -20 -20 -20 -20 -20 -20 -20 -20 -20 -13 -7 -14 12 5 5 12 -17 10 -20 -20 -20 -19 -20 -20 -20 -20 -20 -20 -20 -20 -20 -20 -20 -20 -20 -20 -20 -20 -20 -20 -20 -20
-20 -20 -20 -20 -20 -20 -20 -20 -20 -20 0 11 -2 -15 4 3 -10 -10 1 8 -20 -20 -20 -20 -20 -20 -20 -20 -20 -20 -20 -20 -20 -20 -20 -20 -20 -20 -20 -20 -20 -20 -20
-20 -20 -20 -20 -20 -20 -20 -20 -20 -20 13 -4 2 -3 10 -1 0 -16 -20 -20 -20 -20 -20 -20 -20 -20 -20 -20 -20 -20 -20 -20 -20 -20 -20 -20 -20 -20 -20 -20 -20 -20 -20
-20 -20 -20 -20 -20 -20 -20 -20 -20 -20 16 11 -1 9 6 7 -20 -20 -20 -20 -20 -20 -20 -20 -20 -20 -20 -20 -20 -20 -20 -20 -20 -20 -20 -20 -20 -20 -20 -20 -20 -20 -20
-20 -20 -20 -20 -20 -20 -20 -20 -20 -20 2 15 -5 5 -20 -20 -20 -20 -20 -20 -20 -20 -20 -20 -20 -20 -20 -20 -20 -20 -20 -20 -20 -20 -20 -20 -20 -20 -20 -20 -20 -20 -20
-20 -20 -20 -20 -20 -20 -20 -20 -20 -20 -10 -20 -20 -20 -20 -20 -20 -20 -20 -20 -20 -20 -20 -20 -20 -20 -20 -20 -20 -20 -20 -20 -20 -20 -20 -20 -20 -20 -20 -20 -20 -20 -20
-20 -20 -20 -20 -20 -20 -20 -20 -20 -20 -20 -20 -20 -20 -20 -20 -20 -20 -20 -20 -20 -20 -20 -20 -20 -20 -20 -20 -20 -20 -20 -20 -20 -20 -20 -20 -20 -20 -20 -20 -20 -20 -20
-20 -20 -20 -20 -20 -20 -20 -20 -20 -20 -20 -20 -20 -20 -20 -20 -20 -20 -20 -20 -20 -20 -20 -20 -20 -20 -20 -20 -20 -20 -20 -20 -20 -20 -20 -20 -20 -20 -20 -20 -20 -20 -20
-20 -20 -20 -20 -20 -20 -20 -20 -20 -20 -20 -20 -20 -20 -20 -20 -20 -20 -20 -20 -20 -20 -20 -20 -20 -20 -20 -20 -20 -20 -20 -20 -20 -20 -20 -20 -20 -20 -20 -20 -20 -20 -20
-20 -20 -20 -20 -20 -20 -20 -20 -20 -20 -20 -20 -20 -20 -20 -20 -20 -20 -20 -20 -20 -20 -20 -20 -20 -20 -20 -20 -20 -20 -20 -20 -20 -20 -20 -20 -20 -20 -20 -20 -20 -20 -20

GFSSE_prec_radar_036.txt.gz
Reflectivity
-20 -20 12 8 -16 -6 -14 -20 -20 -20 -20 -20 -20 -20 -20 -14 -5 -20 -20 -20 -20 -20 -12 -17 -20 -20 7 15 15 -14 -20 -20 -20 -20 -20 -20 -20 -20 -20 -19 -20 -20 -20
-20 -20 -20 -17 7 -9 -20 -20 -20 -20 -20 -20 -20 -20 -18 15 -20 -20 -20 -20 -20 -20 -20 -8 15 13 22 18 13 -19 -20 -20 -20 -20 -20 -20 -20 -20 -20 -20 -20 -20 -17
-20 -20 -20 -2 -3 -20 -20 -20 -20 -20 -20 -20 -20 -20 -20 -20 -20 -20 -20 -20 -20 -20 -20 -20 -20 7 1 15 -20 -20 -20 -20 -20 -20 -20 -20 -20 -20 -20 -20 -20 -20 -20
-20 -20 -20 -20 -20 -20 -20 -20 -20 -20 -20 -20 -20 -20 -19 -14 -20 -20 -20 -20 -20 -20 -20 -20 -20 -20 -20 -20 -20 -20 -20 -20 -20 -20 -20 -20 -20 -20 -20 -20 -20 -9 -20
-20 -20 -20 -20 -20 -7 -20 -20 -20 -20 -20 -20 -20 -20 14 13 -12 -20 -20 -20 -20 -20 -20 -20 -20 -20 -20 -20 -20 -20 -20 -20 -20 -20 -20 -20 -20 -20 -20 -20 5 18 -4
-20 -20 -20 -20 -20 10 5 -20 -20 -20 -20 -20 -20 -20 -0 16 6 -20 -20 -20 -20 -20 -20 -20 -20 -20 -20 -20 -20 -20 -20 -20 -20 -20 -20 -20 -20 -20 -20 -20 -20 -20 -20
-20 -20 -20 -20 -11 -20 -2 -20 -20 -20 -20 -20 -20 -20 -20 10 6 -7 -20 -20 -20 -20 -20 -20 -20 -20 -20 -17 -15 -14 -17 -20 -20 -20 -20 -20 -20 -20 -20 -20 -20 -9 -12
-20 -20 -20 -14 -3 9 -20 -20 -20 -20 -20 -20 -20 -20 -20 -6 17 12 -20 -20 -20 -20 -20 -20 -20 -20 -20 -20 -8 -5 -8 -10 -20 -20 -20 -20 -20 -20 -20 -20 -20 -20 -10
-20 -20 -20 -20 -20 -15 -1 -20 -20 -20 -20 -20 -20 -20 -20 5 15 -20 -20 -20 -20 -20 -20 -20 -20 -20 -20 -20 -20 -20 -20 -20 -20 -20 -20 -20 -20 -20 -20 -20 -20 -20 -18
-20 -20 -20 -20 -20 -20 -20 -20 -20 -20 -20 -20 -20 -20 -20 -20 2 11 -20 -20 -20 -20 -20 -20 -20 -20 -20 -20 -20 -20 -20 -20 -20 -20 -20 -20 -20 -20 12 13 8 -2 -18
-20 -20 -20 -20 -20 -20 -20 -20 -20 -20 -20 -20 -20 -20 -20 -20 -20 -20 -20 -20 -20 -20 -20 -20 -20 -20 -20 -20 -20 -20 -20 -20 -20 -20 -20 -20 -20 -12 6 11 23 26 26
-20 -20 -20 -20 -20 -20 -9 -20 -20 -20 -20 -20 -20 -20 -20 -20 -20 -20 -20 -20 -20 -20 -20 -20 -20 -20 -20 -20 -20 -20 -20 -20 -20 -20 -20 -20 -20 -20 -20 -20 -20 -20 -20
-20 -20 -20 -20 -20 -20 -17 -20 -20 -20 -20 -20 -20 -20 -20 -20 -20 -20 -20 -20 -20 -20 -20 -20 -20 -20 -20 -20 -20 -20 -20 -20 -20 -20 -20 -20 -20 -20 -20 -20 -20 -20 -20
-20 -20 -20 -20 -20 -20 -20 -20 -20 -20 -20 -20 -20 -20 -20 -20 -20 -20 -20 -20 -20 -20 -20 -20 -18 -6 -2 -18 4 -20 -20 -20 -20 -20 -20 -20 -20 -20 -20 -20 -20 -20 -20
-20 -20 -20 -20 -20 -20 -20 -20 -20 -20 -20 -20 -20 -20 -20 -20 -20 -20 -20 -20 -20 -20 -20 -9 11 -16 12 -10 -20 -20 -20 -20 -20 -20 -20 -20 -20 -20 -20 -20 -20 -20 -20
-20 -20 -20 -20 -20 -20 -20 -20 -20 -20 -20 -20 -9 3 -6 7 -2 -4 -3 -4 1 7 -6 4 -6 -20 -20 -20 -20 -20 -20 -20 -20 -20 -20 -20 -20 -20 -20 -20 -20 -20 -20
-20 -20 -20 -20 -20 -20 -20 -20 -20 -20 -19 12 5 8 9 -10 14 6 -15 7 -18 -20 -20 -20 -20 -20 -20 -20 -20 -20 -20 -20 -20 -20 -20 -20 -20 -20 -20 -20 -20 -20 -20
-20 -20 -20 -20 -20 -20 -20 -20 -20 -20 -20 12 10 13 -5 -20 7 7 -9 10 -16 -20 -20 -20 -20 -20 -20 -20 -20 -20 -20 -20 -20 -20 -20 -20 -20 -20 -20 -20 -20 -20 -20
-20 -20 -20 -20 -20 -20 -20 -20 -20 -20 -18 7 -13 1 -8 -19 -18 2 -20 -20 -20 -20 -20 -20 -20 -20 -20 -20 -20 -20 -20 -20 -20 -20 -20 -20 -20 -20 -20 -20 -20 -20 -20
-20 -20 -20 -20 -20 -20 -20 -20 -20 -20 -8 -12 10 -10 2 4 -6 -11 -20 -20 -20 -20 -20 -20 -20 -20 -20 -20 -20 -20 -20 -20 -20 -20 -20 -20 -20 -20 -20 -20 -20 -20 -20
-20 -20 -20 -20 -20 -20 -20 -20 -20 -20 -20 -20 2 6 -18 11 -20 -20 -20 -20 -20 -20 -20 -20 -20 -20 -20 -20 -20 -20 -20 -20 -20 -20 -20 -20 -20 -20 -20 -20 -20 -20 -20
-20 -20 -20 -20 -20 -20 -20 -20 -20 11 -9 -20 -20 -3 -18 -5 -20 -20 -20 -20 -20 -20 -20 -20 -20 -20 -20 -20 -20 -20 -20 -20 -20 -20 -20 -20 -20 -20 -20 -20 -20 -20 -20
-20 -20 -20 -20 -20 -20 -20 -20 -20 -20 -20 -6 -8 14 -20 -20 -20 -20 -20 -20 -20 -20 -20 -20 -20 -20 -20 -20 -20 -20 -20 -20 -20 -20 -20 -20 -20 -20 -20 -20 -20 -20 -20
-20 -20 -20 -20 -20 -20 -20 -20 -20 -20 -20 -20 -2 7 -18 -20 -20 -20 -20 -20 -20 -20 -20 -20 -20 -20 -20 -20 -20 -20 -20 -20 -20 -20 -20 -20 -20 -20 -20 -20 -20 -20 -20
-20 -20 -20 -20 -20 -20 -20 -20 -20 -20 -20 -20 -20 5 -20 -20 -20 -20 -20 -20 -20 -20 -20 -20 -20 -20 -20 -20 -20 -20 -20 -20 -20 -20 -20 -20 -20 -20 -20 -20 -20 -20 -20
-20 -20 -20 -20 -20 -20 -20 -20 -20 -20 -20 -19 -17 -20 -20 -20 -20 -20 -20 -20 -20 -20 -20 -20 -20 -20 -20 -20 -20 -20 -20 -20 -20 -20 -20 -20 -20 -20 -20 -20 -20 -20 -20

GFSSE_prec_radar_039.txt.gz
Reflectivity
-20 -20 -20 15 10 -5 -20 -20 -20 -20 -20 -20 -15 13 11 10 -5 -20 -20 -20 -20 -20 -4 -20 -20 -20 6 -7 2 8 -20 -20 -20 -20 -20 -20 -20 -20 -20 -20 -20 -20 -20
-20 -20 -20 -11 7 -16 -20 -20 -20 -20 -20 -20 -20 -1 13 15 7 12 -20 -20 -20 -20 5 14 16 -11 24 14 13 -1 -20 -20 -20 -20 -20 -20 -20 -20 -20 -20 -20 -20 -20
-20 -20 -20 -20 -20 -15 -20 -20 -20 -20 -20 -20 -20 -20 -20 -1 -20 -20 -20 -20 -20 -20 -20 -20 3 11 3 9 2 -20 -20 -20 -20 -20 -20 -20 -20 -20 -20 -20 -20 -20 -20
-20 -20 -20 -20 -20 -20 -20 -20 -20 -20 -20 -20 -20 -20 -20 -20 -20 -20 -20 -20 -20 -20 -20 -20 -20 6 -20 -18 -20 -20 -20 -20 -20 -20 -20 -20 -20 -20 -20 -20 -20 -20 -20
-20 -20 -20 -20 -20 -20 -20 -20 -20 -20 -20 -20 -20 -20 -9 -20 -20 -20 -20 -20 -20 -20 -20 -20 -20 -20 -20 -20 -20 -20 -20 -20 -20 -20 -20 -20 -20 -20 -20 -20 -20 -7 16
-20 -20 -20 -20 -20 -20 -20 -20 -20 -20 -20 -20 -20 -20 -20 -10 -2 -20 -20 -20 -20 -20 -20 -20 -20 -20 -20 -20 -20 -20 -20 -20 -20 -20 -20 -20 -20 -20 -20 -20 -20 -20 -20
-20 -20 -20 -20 -1 -20 -17 -20 -20 -20 -20 -20 -20 -20 -20 14 16 -18 -20 -20 -20 -20 -20 -20 -20 -20 -20 -17 -12 5 -1 -16 -20 -20 -20 -20 -20 -20 -16 -20 -20 -20 4
-20 -20 -20 -20 -20 -20 -20 -20 -20 -20 -20 -20 -20 -20 -20 4 15 15 3 -20 -20 -20 -20 -20 -20 -15 -20 -20 -10 -20 -7 -20 -20 -20 -20 -20 -20 -20 -6 9 -20 -20 -20
-20 -20 -20 -20 -14 -14 -20 -20 -20 -20 -20 -20 -20 -20 -20 7 7 15 8 -20 -20 -20 -20 -20 -20 -20 -20 -20 -20 -20 -20 -20 -20 -20 -20 -20 -20 -20 -20 -20 -3 -3 -20
-20 -20 -20 -20 -20 4 10 -20 -20 -20 -20 -20 -20 -20 -20 -20 -19 0 -20 -20 -20 -20 -20 -20 -20 -20 -20 -20 -20 -20 -20 -20 -20 -20 -20 -20 -20 -19 -7 -19 11 28 28
-20 -20 -20 -16 5 -20 -20 -2 -20 -20 -20 -20 -20 -20 -20 -20 -20 -20 -20 -20 -20 -20 -20 -20 -20 -20 -20 -20 -20 -20 -20 -20 -20 -20 -20 -20 -20 -15 -20 -18 -20 -20 -20
-20 -20 -20 -20 -15 5 -20 -8 -15 -20 -20 -20 -20 -20 -20 -20 -20 -20 -20 -20 -20 -20 -20 -20 -20 -20 -20 -20 -20 -20 -20 -20 -20 -20 -20 -20 -20 -20 -20 -20 -20 -20 -20
-20 -20 -20 -20 -20 -20 -7 -20 -20 -20 -20 -20 -20 -20 -20 -20 -20 -20 -20 -20 -20 -20 -20 -20 -20 -20 -20 -20 -20 -20 -20 -20 -20 -20 -20 -20 -20 -20 -20 -20 -20 -20 -20
-20 -20 -20 -20 -20 -20 0 -20 -20 -20 -20 -20 -20 -20 -20 -20 -20 -20 -20 -20 -20 -20 -20 -20 -20 -20 -20 -20 -15 -20 -20 -20 -20 -20 -20 -20 -20 -20 -20 -20 -20 -20 -20
-20 -20 -20 -20 -20 -20 -20 -20 -20 -20 -20 -20 -20 -20 -20 -20 -20 -20 -20 -20 -20 -20 -20 -20 -20 -20 -20 -20 -20 -20 -20 -20 -20 -20 -20 -20 -20 -20 -20 -20 -20 -20 -20
-20 -20 -20 -20 -20 -20 -20 -20 -20 -20 -20 -20 -20 -20 -15 4 -13 -20 -20 -20 6 -15 -8 -20 -20 -20 -20 -20 -20 -20 -20 -20 -20 -20 -20 -20 -20 -20 -20 -20 -20 -20 -20
-20 -20 -20 -20 -20 -20 -20 -20 -20 -20 -20 4 -3 -20 -17 -19 -20 -17 -18 -20 -20 -20 -20 -20 -20 -20 -20 -20 -20 -20 -20 -20 -20 -20 -20 -20 -20 -20 -20 -20 -20 -20 -20
-20 -20 -20 -20 -20 -20 -20 -20 -20 -20 -20 6 -9 -20 -20 -17 -16 -4 -11 -20 -20 -20 -20 -20 -20 -20 -20 -20 -20 -20 -20 -20 -20 -20 -20 -20 -20 -20 -20 -20 -20 -20 -20
-20 -20 -20 -20 -20 -20 -20 -20 -20 -20 -20 -20 -19 -16 -20 -20 -14 -20 -19 -20 -20 -20 -20 -20 -20 -20 -20 -20 -20 -20 -20 -20 -20 -20 -20 -20 -20 -20 -20 -20 -20 -20 -20
-20 -20 -20 -20 -20 -20 -20 -20 -20 -20 -20 -5 -7 -17 -20 -20 -14 -20 -20 -20 -20 -20 -20 -20 -20 -20 -20 -20 -20 -20 -20 -20 -20 -20 -20 -20 -20 -20 -20 -20 -20 -20 -20
-20 -20 -20 -20 -20 -20 -20 -20 -20 -20 32 -1 -4 -17 -1 -9 -16 -20 -20 -20 -20 -20 -20 -20 -20 -20 -20 -20 -20 -20 -20 -20 -20 -20 -20 -20 -20 -20 -20 -20 -20 -20 -20
-20 -20 -20 -20 -20 -20 -20 -20 -20 -20 14 14 -16 -20 21 14 -15 -10 -20 -20 -20 -20 -20 -20 -20 -20 -20 -20 -20 -20 -20 -20 -20 -20 -20 -20 -20 -20 -20 -20 -20 -20 -20
-20 -20 -20 -20 -20 -20 -20 -20 -20 -20 -20 14 -20 8 21 5 -20 -20 -20 -20 -20 -20 -20 -20 -20 -20 -20 -20 -20 -20 -20 -20 -20 -20 -20 -20 -20 -20 -20 -20 -20 -20 -20
-20 -20 -20 -20 -20 -20 -20 -20 -20 -20 -20 5 1 16 -20 -15 -20 -20 -20 -20 -20 -20 -20 -20 -20 -20 -20 -20 -20 -20 -20 -20 -20 -20 -20 -20 -20 -20 -20 -20 -20 -20 -20
-20 -20 -20 -20 -20 -20 -20 -20 -20 -20 -17 -0 -20 6 3 -5 -20 -20 -20 -20 -20 -20 -20 -20 -20 -20 -20 -20 -20 -20 -20 -20 -20 -20 -20 -20 -20 -20 -20 -20 -20 -20 -20
-20 -20 -20 -20 -20 -20 -20 -20 -20 -20 9 -16 12 9 -20 -19 -20 -20 -20 -20 -20 -20 -20 -20 -20 -20 -20 -20 -20 -20 -20 -20 -20 -20 -20 -20 -20 -20 -20 -20 -20 -20 -20

GFSSE_prec_radar_042.txt.gz
Reflectivity
-20 -20 -10 -15 12 9 -20 -20 -20 -20 -20 -10 -18 -20 -20 -20 -20 -20 -20 -20 -20 -20 -20 -20 -20 -20 4 -18 9 -20 -20 -20 -20 -20 -20 -20 -20 -20 -20 -20 -20 -20 -20
-20 -20 -20 10 9 2 -20 -20 -20 -20 -20 -20 -20 5 7 -10 -20 -20 -20 -20 -20 -20 8 6 23 -20 23 16 1 7 -20 -20 -20 -20 -20 -20 -20 -20 -20 -20 -20 -20 -20
-20 -20 -20 10 -1 -19 -20 -20 -20 -20 -20 -20 -20 -20 15 2 -20 -20 -20 -20 -20 -20 -20 -19 -8 23 21 -7 11 -11 -20 -20 -20 -20 -20 -20 -20 -20 -20 -20 -20 -20 -20
-20 -20 -20 -20 -14 -20 -20 -20 -20 -20 -20 -20 -20 -20 -20 -20 -20 -20 -20 -20 -20 -20 -20 -20 6 -3 4 -20 -20 -20 -20 -20 -20 -20 -20 -20 -20 -20 -20 -20 -20 -20 -17
-20 -20 -20 -15 -5 -19 -20 -20 -20 -20 -20 -20 -20 -20 -20 -20 -20 -20 -20 -20 -20 -20 -20 -20 -20 -19 -20 -20 -20 -20 -20 -20 -20 -20 -20 -20 -20 -20 -20 -20 -20 -20 11
-20 -20 -15 -20 -20 -20 -20 -20 -20 -20 -20 -20 -20 -20 -20 -20 -20 -20 -20 -20 -20 -20 -20 -20 -20 -20 -20 -20 -20 -20 -20 -20 -20 -20 -20 -20 -20 -20 -20 -20 -20 -20 -20
-20 -20 -10 -18 -20 -20 -20 -20 -20 -20 -20 -20 -20 -20 -20 -20 -19 -20 -20 -20 -20 -20 -20 -20 -20 -20 -20 -20 1 0 10 -20 -9 -20 -20 -20 -20 -20 1 -8 -20 -20 -20
-20 -20 -20 -6 -20 -17 -20 -20 -20 -20 -20 -20 -20 -20 -20 -20 6 -20 -20 -20 -20 -20 -20 -20 -20 -20 -20 -20 -20 -20 -20 -20 -20 -20 -20 -20 -20 -20 -20 4 -20 -20 -20
-20 -20 -20 2 7 8 -18 -20 -20 -20 -20 -20 -20 -20 -20 -20 -20 -7 1 -20 -20 -20 -20 -20 -20 -20 -20 -20 -20 -20 -20 -20 -20 -20 -20 -20 -20 -20 -20 -4 25 10 23
-20 -20 -20 -20 3 9 6 -20 -20 -20 -20 -20 -20 -20 -20 -20 7 -20 -20 -20 -20 -20 -20 -20 -20 -20 -20 -20 -20 -20 -20 -20 -20 -20 -20 -20 -20 -20 2 12 -20 -20 -20
-20 -20 -20 -20 -20 4 9 -3 -1 -20 -20 -20 -20 -20 -20 -20 -20 -12 -20 -20 -20 -20 -20 -20 -20 -20 -20 -20 -20 -20 -20 -20 -20 -20 -20 -20 -20 -20 -20 -20 -20 -20 -20
-20 -20 -20 -20 -4 2 6 12 9 8 1 -20 -20 -20 -20 -20 -20 -20 -20 -20 -20 -20 -20 -20 -20 -20 -20 -20 -20 -20 -20 -20 -20 -20 -20 -20 -20 -20 -20 -20 -20 -20 -20
-20 -20 -20 -20 -5 1 4 7 9 10 1 -9 -20 -20 -20 -20 -20 -20 -20 -20 -20 -20 -20 -20 -20 -20 -20 -20 -20 -20 -20 -20 -20 -20 -20 -20 -20 -20 -20 -20 -20 -20 -20
-20 -20 -20 -20 -20 -20 -20 1 4 6 -1 -9 -20 -20 -20 -20 -20 -20 -20 -20 -20 -20 -20 -20 -20 -20 -20 -20 -20 -20 -20 -20 -20 -20 -20 -20 -20 -20 -20 -20 -20 -20 -20
-20 -20 -20 -20 -20 -20 -20 -20 -2 4 -13 -9 -20 -20 -20 -20 -20 -20 -20 -20 -20 -20 -20 -20 -20 -20 -20 -20 -20 -20 -20 -20 -20 -20 -20 -20 -20 -20 -20 -20 -20 -20 -20
-20 -20 -20 -20 -20 -20 -20 -20 -20 -5 -4 4 -20 -20 -20 -20 -20 -20 -20 -20 -20 -20 -20 -20 -20 -20 -20 -20 -20 -20 -20 -20 -20 -20 -20 -20 -20 -20 -20 -20 -20 -20 -20
-20 -20 -20 -20 -20 -20 -20 -20 -1 -20 -20 1 -20 -20 -20 -20 -20 -20 -20 -20 -20 -20 -20 -20 -20 -20 -20 -20 -20 -20 -20 -20 -20 -20 -20 -20 -20 -20 -20 -20 -20 -20 -20
-20 -20 -20 -20 -20 -20 -20 -20 -20 -20 -20 4 -20 -20 -20 -20 -20 -20 -20 -20 -20 -20 -20 -20 -20 -20 -20 -20 -20 -20 -20 -20 -20 -20 -20 -20 -20 -20 -20 -20 -20 -20 -20
-20 -20 -20 -20 -20 -20 -20 -20 -20 -20 -20 1 -20 -20 -20 -20 -20 -20 -20 -20 -20 -20 -20 -20 -20 -20 -20 -20 -20 -20 -20 -20 -20 -20 -20 -20 -20 -20 -20 -20 -20 -20 -20
-20 -20 -20 -20 -20 -20 -20 -20 -18 -20 4 -15 -20 -20 -20 -20 -20 -20 -20 -20 -20 -20 -20 -20 -20 -20 -20 -20 -20 -20 -20 -20 -20 -20 -20 -20 -20 -20 -20 -20 -20 -20 -20
-20 -20 -20 -20 -20 -20 -20 -20 -20 -20 -20 28 -20 -20 -20 -20 -20 -20 -20 -20 -20 -20 -20 -20 -20 -20 -20 -20 -20 -20 -20 -20 -20 -20 -20 -20 -20 -20 -20 -20 -20 -20 -20
-20 -20 -20 -20 -20 -20 -20 -20 -20 -20 -8 4 16 -20 -11 -20 -13 -20 -20 -20 -20 -20 -20 -20 -20 -20 -20 -20 -20 -20 -20 -20 -20 -20 -20 -20 -20 -20 -20 -20 -20 -20 -20
-20 -20 -20 -20 -20 -20 -20 -20 -20 -20 -20 -20 -20 -20 1 -20 -20 -20 -20 -20 -20 -20 -20 -20 -20 -20 -20 -20 -20 -20 -20 -20 -20 -20 -20 -20 -20 -20 -20 -20 -20 -20 -20
-20 -20 -20 -20 -20 -20 -20 -20 -20 -20 -20 25 4 14 19 -0 17 -20 -20 -20 -20 -20 -20 -20 -20 -20 -20 -20 -20 -20 -20 -20 -20 -20 -20 -20 -20 -20 -20 -20 -20 -20 -20
-20 -20 -20 -20 -20 -20 -20 -20 -20 -20 -20 -18 20 17 -10 -18 2 -20 -20 -20 -20 -20 -20 -20 -20 -20 -20 -20 -20 -20 -20 -20 -20 -20 -20 -20 -20 -20 -20 -20 -20 -20 -20
-20 -20 -20 -20 -20 -20 -20 -20 -20 -20 -20 -20 3 4 -9 18 6 -20 -20 -20 -20 -20 -20 -20 -20 -20 -20 -20 -20 -20 -20 -20 -20 -20 -20 -20 -20 -20 -20 -20 -20 -20 -20

GFSSE_prec_radar_045.txt.gz
Reflectivity
-20 -20 -20 -20 1 17 -17 -20 -20 -20 -12 -20 -20 -20 -20 -20 -20 -20 -20 -20 -20 -20 -20 -20 -20 -20 16 14 -20 -20 -20 -20 -20 -20 -20 -20 -20 -20 -20 -20 -20 -20 -20
-20 -20 -20 -20 -20 -18 -20 -20 -20 -20 -20 -20 -20 -12 -20 -20 -20 -20 -20 -20 -20 -20 -2 13 3 -20 21 20 -5 7 -20 -20 -20 -20 -20 -20 -20 -20 -20 -20 -20 -20 -20
-20 -20 -20 -20 -17 -14 -20 -20 -20 -20 -20 -20 -20 -20 14 -9 -20 -20 -20 -20 -20 -20 -20 7 -18 10 26 18 9 -20 -20 -20 -20 -20 -20 -20 -20 -20 -20 -20 -20 -20 -20
-20 -20 -20 4 -11 -20 -20 -20 -20 -20 -20 -20 -20 -7 -3 -20 -20 -20 -20 -20 -20 -20 -20 5 13 12 15 11 -19 -20 -20 -20 -20 -20 -20 -20 -20 -20 -20 -20 -20 -20 -20
-20 -20 -20 -20 -20 -17 -20 -20 -20 -20 -20 -20 -20 -20 -20 -20 -20 -20 -20 -20 -20 -20 -20 -20 -5 -13 -13 -20 -20 -20 -20 -20 -20 -20 -20 -20 -20 -20 -20 -20 -20 -20 -20
-20 -20 -20 -20 -7 -19 -20 -20 -20 -20 -20 -20 -20 -20 -20 -20 -20 -20 -20 -20 -20 -20 -20 -20 -20 -20 -20 -20 -20 -20 -20 -20 -20 -20 -20 -20 -20 -20 -20 -20 -20 -20 -20
-20 -20 -20 -20 -11 -20 -20 -20 -20 -20 -20 -20 -20 -20 -20 -20 -20 -20 -20 -20 -20 -20 -20 -20 -20 -20 -20 -20 -20 -20 -20 -20 -20 -20 -20 -20 -20 -20 -20 15 -4 -20 -20
-20 -20 -20 -13 -20 -20 -20 -20 -20 -20 -20 -20 -20 -20 -8 -10 -7 -20 -20 -20 -20 -20 -20 -20 -20 -20 -20 -20 -20 -20 -20 -20 -20 -20 -20 -20 -20 -20 -20 0 7 14 15
-20 -20 -20 2 -20 -20 -20 -20 -20 -20 -20 -20 -20 -20 -20 -20 -20 -7 -20 -20 -20 -20 -20 -20 -20 -20 -20 -20 -20 -20 -20 -20 -20 -20 -20 -20 -20 -20 8 -16 1 -20 -20
-20 -20 -20 -20 -1 -6 -4 -20 -20 -20 -20 -20 -20 -20 -20 -20 -20 10 -20 -20 -20 -20 -20 -20 -20 -20 -20 -20 -20 -20 -20 -20 -20 -20 -9 -20 -20 -20 -20 -20 -20 -20 -20
-20 -20 -20 -20 -20 -20 0 -18 -17 -20 -20 -20 -20 -20 -20 -20 -0 -20 -20 -20 -20 -20 -20 -20 -20 -20 -20 -20 -20 -20 -20 -20 -14 -7 -16 -20 -20 -20 -20 -20 -20 -20 -20
-20 -20 -20 -20 -20 -20 -5 -13 -12 -0 -20 -20 -20 -20 -20 -20 -20 -20 -20 -20 -20 -20 -20 -20 -20 -20 -20 -20 -20 -20 -20 -20 -20 -20 -20 -20 -20 -20 -20 -20 -20 -20 -20
-20 -20 -20 -20 -20 -20 -19 -11 -7 -2 -20 -20 -20 -20 -20 -20 -20 -20 -20 -20 -20 -20 -20 -20 -20 -20 -20 -20 -20 -20 -20 -20 -20 -20 -20 -20 -20 -20 -20 -20 -20 -20 -20
-20 -20 -20 -20 -20 -20 -20 -20 -13 6 -20 5 -20 -20 -20 -20 -20 -20 -20 -20 -20 -20 -20 -6 -20 -20 -20 -20 -20 -20 -20 -20 -20 -20 -20 -20 -20 -20 -20 -20 -20 -20 -20
-20 -20 -20 -20 -20 -20 -20 -20 -20 -12 -12 -18 -16 -20 -20 -20 -20 -20 -20 -20 -20 -20 -18 -20 -20 -20 -20 -20 -20 -20 -20 -20 -20 -20 -20 -20 -20 -20 -20 -20 -20 -20 -20
-20 -20 -20 -20 -20 -20 -20 1 -20 -20 -0 -20 -13 -20 -20 -20 -20 -20 -20 -20 -20 -20 -20 -20 -20 -20 -20 -20 -20 -20 -20 -20 -20 -20 -20 -20 -20 -20 -20 -20 -20 -20 -20
-20 -20 -20 -20 -20 -20 -20 -13 -20 -20 -18 -20 -6 -20 -20 -20 -20 -20 -20 -20 -20 -20 -20 -20 -20 -20 -20 -20 -20 -20 -20 -20 -20 -20 -20 -20 -20 -20 -20 -20 -20 -20 -20
-20 -20 -20 -20 -20 -20 -20 -20 -15 -20 -20 3 0 -20 -20 -20 -20 -6 -18 -20 -20 -20 -20 -20 -20 -20 -20 -20 -20 -20 -20 -20 -20 -20 -20 -20 -20 -20 -20 -20 -20 -20 -20
-20 -20 -20 -20 -20 -20 -20 -20 -20 -20 -20 -5 -7 -20 -20 -20 -20 -20 -20 -20 -20 -20 -20 -20 -20 -20 -20 -20 -20 -20 -20 -20 -20 -20 -20 -20 -20 -20 -20 -20 -20 -20 -20
-20 -20 -20 -20 -20 -20 -20 -20 -20 -20 -20 10 15 -20 -20 -20 -20 -20 -20 -20 -20 -20 -20 -20 -20 -20 -20 -20 -20 -20 -20 -20 -20 -20 -20 -20 -20 -20 -20 -20 -20 -20 -20
-20 -20 -20 -20 -20 -20 -20 -20 -20 -20 7 2 0 -7 -20 -20 -20 -20 -20 -20 -20 -20 -20 -20 -20 -20 -20 -20 -20 -20 -20 -20 -20 -20 -20 -20 -20 -20 -20 -20 -20 -20 -20
-20 -20 -20 -20 -20 -20 -20 -20 -20 -20 -20 -20 34 14 -20 -20 18 -20 -19 -15 -11 -20 -20 -20 -20 -20 -20 -20 -20 -20 -20 -20 -20 -20 -20 -20 -20 -20 -20 -20 -20 -20 -20
-20 -20 -20 -20 -20 -20 -20 -20 -20 -20 -20 -20 -13 -20 -20 -20 24 22 18 2 14 -15 -20 -20 -20 -20 -20 -20 -20 -20 -20 -20 -20 -20 -20 -20 -20 -20 -20 -20 -20 -20 -20
-20 -20 -20 -20 -20 -20 -20 -20 -20 -20 -20 -20 -20 18 -18 26 13 20 12 -20 -20 -20 -20 -20 -20 -20 -20 -20 -20 -20 -20 -20 -20 -20 -20 -20 -20 -20 -20 -20 -20 -20 -20
-20 -20 -20 -20 -20 -20 -20 -20 -20 -20 -20 -20 -20 -20 -20 -3 11 -20 -20 -20 -20 -20 -20 -20 -20 -20 -20 -20 -20 -20 -20 -20 -20 -20 -20 -20 -20 -20 -20 -20 -20 -20 -20
-20 -20 -20 -20 -20 -20 -20 -20 -20 -20 -20 -20 -20 -20 -10 -4 -11 -20 -20 -19 -20 -20 -20 -20 -20 -20 -20 -20 -20 -20 -20 -20 -20 -20 -20 -20 -20 -20 -20 -20 -20 -20 -20

GFSSE_prec_radar_048.txt.gz
Reflectivity
-20 -20 -20 -20 -20 -11 -20 -4 -20 -20 -13 -20 -20 -20 -20 -20 -20 -20 -20 -20 -20 -20 -14 -4 -20 -20 11 5 -20 -20 -20 -20 -20 -20 -20 -20 -20 -20 -20 -20 -20 -20 -20
-20 -20 -20 -20 -19 -20 -20 -20 -20 -20 -20 -20 -4 -19 -20 -20 -20 -20 -20 -20 -20 -16 0 12 -20 -20 17 10 -5 -20 -20 -20 -20 -20 -20 -20 -20 -20 -20 -20 -20 -20 -20
-20 -20 -20 -20 -20 -20 -20 -20 -20 -20 -20 -20 -1 8 -5 -20 -20 -20 -20 -20 -20 -20 -20 6 13 4 19 2 13 -20 -20 -20 -20 -20 -20 -20 -20 -20 -20 -20 -20 -20 -20
-20 -20 -20 -20 -20 -20 -20 -20 -20 -20 -20 -20 -20 -11 11 -20 -20 -20 -20 -20 -20 -20 -20 0 -20 -3 14 18 3 -20 -20 -20 -20 -20 -20 -20 -20 -20 -20 -20 -20 -20 -20
-20 -20 -20 -20 -20 -20 -20 -20 -20 -20 -20 -20 -20 5 -20 -20 -20 -20 -20 -20 -20 -20 -20 -20 0 7 6 3 -20 -20 -20 -20 -20 -20 -20 -20 -20 -20 -20 -20 -20 -20 -20
-20 -20 -20 -20 -20 -20 -20 -20 -20 -20 -20 -20 -20 -20 -20 -20 -20 -20 -20 -20 -20 -20 -20 -20 -20 -20 -20 -20 -20 -20 -20 -20 -20 -20 -20 -20 -20 -20 -20 15 -12 -20 -20
-20 -20 -20 -20 -18 -20 -20 -20 -20 -20 -20 -20 -20 -20 -20 -20 -20 -20 -20 -20 -20 -20 -20 -20 -20 -20 -20 -20 -20 -20 -20 -20 -20 -20 -20 -20 -20 -20 -20 14 10 12 15
-20 -20 -20 -20 -20 -20 -20 -20 -20 -20 -20 -20 -20 -20 -18 -11 -20 -20 -20 -20 -20 -20 -20 -20 -20 -20 -20 -20 -20 -20 -20 -20 -20 -20 -20 -20 -20 -16 3 13 14 -4 -20
-20 -20 -20 -20 -20 -20 -20 -20 -20 -20 -20 -20 -20 -20 -20 -20 1 -20 -20 -20 -20 -20 -20 -20 -20 -20 -20 -20 -20 -20 -20 -20 -20 -14 -20 -2 -20 -20 -19 -20 -20 -20 -20
-20 -20 -20 -20 -20 -20 -20 -20 -20 -20 -20 -20 -20 -20 -20 -20 -20 4 -20 -20 -20 -20 -20 -20 -20 -20 -20 -20 -20 -20 -20 -20 -20 -19 -9 -10 -20 -20 -20 -20 -20 -20 -20
-20 -20 -20 -20 -20 -20 -20 -20 -20 -20 -20 -20 -20 -20 -20 -20 -15 -20 -20 -20 -20 -20 -20 -20 -20 -20 -20 -20 -20 -20 -20 -20 -20 -20 -20 -20 -20 -20 -20 -20 -20 -20 -5
-20 -20 -20 -20 -20 -20 -7 -20 -20 -20 -20 -20 -20 -20 -20 -20 5 -20 -20 -20 -20 -20 -20 -20 -20 -20 -20 -20 -18 -20 -20 -20 -20 -20 -20 -20 -20 -20 -20 -20 -20 -20 -20
-20 -20 -20 -20 -20 -20 3 -3 -20 -16 -20 -20 -20 -20 -20 -20 -20 -20 -20 -20 -20 -20 -20 -20 -20 -20 -20 -20 -20 -20 -20 -20 -20 -20 -20 -20 -20 -20 -20 -20 -20 -20 -20
-20 -20 -20 -20 -20 -20 -20 1 4 -14 -17 -15 -20 -20 -20 -20 -20 -20 -20 -20 -20 -20 -20 -20 -20 -20 -20 -20 -20 -20 -20 -20 -20 -20 -20 -20 -20 -20 -20 -20 -20 -20 -20
-20 -20 -20 -20 -20 -9 -20 -20 -1 0 -15 -15 -20 -20 -20 -20 -20 -20 -20 -20 -20 -20 -20 -20 -20 -20 -20 -20 -20 -20 -20 -20 -20 -20 -20 -20 -20 -20 -20 -20 -20 -20 -20
-20 -20 -20 -20 -20 -20 -20 -2 -20 -20 -20 -11 -20 -20 -20 -20 -20 -20 -20 -20 -20 -20 -20 -20 -20 -20 -20 -20 -20 -20 -20 -20 -20 -20 -20 -20 -20 -20 -20 -20 -20 -20 -20
-20 -20 -20 -20 -20 -20 -20 -19 -20 -18 -20 -20 -20 -20 -20 -20 -20 -20 -20 -20 -20 -20 -20 -20 -20 -20 -20 -20 -20 -20 -20 -20 -20 -20 -20 -20 -20 -20 -20 -20 -20 -20 -20
-20 -20 -20 -20 -20 -20 -20 -20 -20 -20 19 -20 -10 -20 -20 -20 -20 -20 -20 -20 -20 -19 -20 -20 -20 -20 -20 -20 -20 -20 -20 -20 -20 -20 -20 -20 -20 -20 -20 -20 -20 -20 -20
-20 -20 -20 -20 -20 -20 -20 -20 -20 -20 -20 -20 -5 -5 -20 -20 -20 -20 -20 -20 -20 -20 -20 -20 -20 -20 -20 -20 -20 -20 -20 -20 -20 -20 -20 -20 -20 -20 -20 -20 -20 -20 -20
-20 -20 -20 -20 -20 -20 -20 -20 -20 -20 -20 -20 -12 -20 -20 -20 -20 -20 -20 -20 -20 -20 -20 -20 -20 -20 -20 -20 -20 -20 -20 -20 -20 -20 -20 -20 -20 -20 -20 -20 -20 -20 -20
-20 -20 -20 -20 -20 -20 -20 -20 -20 -20 -20 -8 -20 -20 -20 -20 -20 -20 -20 -20 -20 -20 -20 -20 -20 -20 -20 -20 -20 -20 -20 -20 -20 -20 -20 -20 -20 -20 -20 -20 -20 -20 -20
-20 -20 -20 -20 -20 -20 -20 -20 -20 -20 -20 -20 -20 -5 -15 2 -20 -20 -20 -20 -20 -20 -20 -14 -12 -19 -20 -20 -20 -20 -20 -20 -20 -20 -20 -20 -20 -20 -20 -20 -20 -20 -20
-20 -20 -20 -20 -20 -20 -20 -20 -20 4 -20 -20 -20 -20 -20 14 -20 -20 10 19 -20 -12 -20 -12 6 11 -20 -20 -20 -20 -20 -20 -20 -20 -20 -20 -20 -20 -20 -20 -20 -20 -20
-20 -20 -20 -20 -20 -20 -20 -20 -20 -20 -20 -0 -3 -20 -20 -3 -20 -20 20 19 -19 -20 -20 -20 -20 -20 -20 -20 -20 -20 -20 -20 -20 -20 -20 -20 -20 -20 -20 -20 -20 -20 -20
-20 -20 -20 -20 -20 -20 -20 -20 -18 -20 24 -19 -20 21 -17 17 17 22 -20 -20 -14 -20 -20 -20 -20 -20 -20 -20 -20 -20 -20 -20 -20 -20 -20 -20 -20 -20 -20 -20 -20 -20 -20
-20 -20 -20 -20 -20 -20 -20 -20 -20 -20 -20 5 -20 -4 -20 2 9 11 -20 -20 -20 -20 -20 -20 -20 -20 -20 -20 -20 -20 -20 -20 -20 -20 -20 -20 -20 -20 -20 -20 -20 -20 -20

GFSSE_prec_radar_051.txt.gz
Reflectivity
-20 -20 -20 -20 -20 -20 -19 -5 -20 -14 13 16 5 -20 -20 -20 -20 -20 -20 -20 -20 -19 -16 -18 -20 -16 15 -20 -20 -20 -20 -20 -20 -20 -20 -20 -20 -20 -20 -20 -20 -20 -20
-20 -20 -20 -20 -20 -20 -20 -20 -20 -20 2 0 8 9 -20 -20 -20 -20 -20 -20 -18 -18 5 -10 -20 -20 20 9 -20 -20 -20 -20 -20 -20 -20 -20 -20 -20 -20 -20 -20 -20 -20
-20 -20 -20 10 -20 -20 -20 -20 -20 -4 5 9 4 -13 -10 -20 -20 -20 -20 -20 -20 -2 2 -19 2 -1 11 7 -1 -20 -20 -20 -20 -20 -20 -20 -20 -20 -20 -20 -20 -20 -20
-20 -20 -6 -20 -20 -20 -20 -20 -20 -20 -20 -20 6 5 -4 -20 -20 -20 -20 -20 -20 -20 13 1 -20 -12 14 -11 -20 -20 -20 -20 -20 -20 -20 -20 -20 -20 -20 -20 -20 -20 -20
-20 -20 -20 -20 -20 -20 -20 -20 -20 -20 -20 -20 -14 -6 -20 -20 -20 -20 -20 -20 -20 -20 -20 -20 -20 -20 -20 -20 -20 -20 -20 -20 -20 -20 -20 -20 -20 -20 -16 -20 -20 -20 -20
-20 -20 -20 -20 -20 -20 -20 -20 -20 -20 -20 -20 -20 -20 -20 -20 -20 -20 -20 -20 -20 -20 -20 -20 -20 -20 -20 -20 -20 -20 -20 -20 -20 -20 -20 -20 -20 -20 -20 15 2 -20 -20
-20 -20 -20 -20 -20 -20 -20 -20 -20 -20 -20 -20 -20 -20 -20 -20 -20 -20 -20 -20 -20 -20 -20 -20 -20 -20 -20 -20 -20 -20 -20 -20 -20 -19 -20 -20 -20 -4 -11 -12 12 16 13
-20 -20 -20 -20 -20 -20 -20 -20 -20 -20 -20 -20 -20 -20 -20 -20 -20 -20 -20 -20 -20 -20 -20 -20 -20 -20 -20 -20 -20 -20 -20 -20 -20 -11 -20 -15 -6 1 -10 -9 -20 -20 -20
-20 -20 -20 -20 -20 -20 -20 -20 -20 -20 -20 -20 -20 0 2 -4 -20 -20 -20 -20 -20 -20 -20 -20 -20 -20 -20 -20 -20 -20 -20 -20 -20 -2 -16 3 6 0 -20 -20 -20 -20 -20
-20 -20 -20 -20 -20 -20 -20 -20 -20 -20 -20 -20 -20 -20 -20 -20 1 -20 -20 -20 -20 -20 -20 -20 -20 -20 -20 -20 -20 -20 -20 -20 -20 -20 -15 -20 -20 -20 -20 -20 -20 -9 -13
-20 -20 -20 -20 -20 -20 -20 -20 -20 -20 -20 -20 -20 -20 -20 -20 -20 -20 -20 -20 -20 -20 -20 -20 -20 -20 -20 -20 -20 -20 -20 -20 -20 -20 -20 -20 -20 -20 -20 -20 -20 -20 -20
-20 -20 -20 -20 -20 -20 -20 -20 -20 -20 -20 -20 -20 -20 -20 -20 -20 -20 -20 -20 -20 -20 -20 -20 -20 -20 -20 -20 -20 -20 -20 -20 -20 -20 -20 -20 -20 -20 -20 -19 -20 -20 -20
-20 -20 -20 -20 -20 -20 -20 -20 -20 -20 -20 -20 -20 -20 -20 -20 -2 -20 -20 -20 -20 -20 -20 -20 -20 -20 -20 -20 -20 -20 -20 -20 -20 -20 -20 -20 -20 -20 -10 -20 -20 -20 -20
-20 -20 -20 -20 -20 -20 -20 -20 -20 -20 -20 -20 -20 -20 -20 -20 -20 -20 -20 -20 -20 -20 -20 -20 -20 -20 -20 -20 -20 -20 -20 -20 -20 -20 -20 -20 -20 -20 -20 -20 -20 -20 -20
-20 -20 -20 -20 -20 -20 -20 -20 -20 -14 -20 -20 -20 -20 -20 -20 -20 -20 -20 -20 -20 -20 -20 -20 -20 -20 -20 -20 -20 -20 -20 -20 -20 -20 -20 -20 -20 -20 -20 -20 -20 -20 -20
-20 -20 -20 -20 -20 -20 -20 -20 -20 -20 -20 -20 -20 -20 -20 -20 -20 -20 -20 -20 -20 -20 -20 -20 -20 -20 -20 -20 -20 -20 -20 -20 -20 -20 -20 -20 -20 -20 -20 -20 -20 -20 -20
-20 -20 -20 -20 -20 -20 -20 -20 -20 -20 -20 -20 -20 -20 -20 -20 -20 -20 -20 -20 -20 -20 -20 -20 -20 -20 -20 -20 -20 -20 -20 -20 -20 -20 -20 -20 -20 -20 -20 -20 -20 -20 -20
-20 -20 -20 -14 -20 -20 -20 -6 -16 -20 -20 -20 -20 -20 -20 -20 -20 -20 -20 -20 -20 -20 -20 -20 -20 -20 -20 -20 -20 -20 -20 -20 -20 -20 -20 -20 -20 -20 -20 -20 -20 -20 -20
-20 -20 -20 -20 -20 -20 -20 -20 -20 -20 -20 -20 -20 -20 -20 -20 -20 -20 -20 -20 -20 -20 -20 -20 -20 -20 -20 -20 -20 -20 -20 -20 -20 -20 -20 -20 -20 -20 -20 -20 -20 -20 -20
-20 -20 -20 -20 -20 -20 -20 -20 -20 28 -5 -20 -20 -20 -20 -20 -20 -20 -20 -20 -20 -20 -20 -20 -20 -20 -20 -20 -20 -20 -20 -20 -20 -20 -20 -20 -20 -20 -20 -20 -20 -20 -20
-20 -20 -20 -20 -20 -20 -17 -20 -20 -13 -20 -20 -20 -20 -20 -20 -20 -20 -20 -20 -20 -20 -20 -20 -20 -20 -20 -20 -20 -20 -20 -20 -20 -20 -20 -20 -20 -20 -20 -20 -20 -20 -20
-20 -20 -20 -20 -20 -20 -20 -16 -20 -20 -20 -0 6 -19 -20 -20 7 -20 -20 -20 -20 -20 -20 -20 -20 -20 -20 -1 3 3 -10 -19 -20 -20 -20 -20 -20 -20 -20 -20 -20 -20 -20
-20 -20 -20 -20 -20 -20 -20 -20 5 4 4 16 -4 -20 -20 -20 -20 -20 -4 -20 -20 -20 -20 -11 -20 -20 -20 -20 -20 -20 -20 -20 -20 -20 -20 -20 -20 -20 -20 -20 -20 -20 -20
-20 -20 -20 -20 -20 -20 -20 -20 -20 -20 16 -20 -20 -8 -12 9 16 18 29 -16 -18 -20 -20 -20 -20 -20 -20 -20 -20 -20 -20 -20 -20 -20 -20 -20 -20 -20 -20 -20 -20 -20 -20
-20 -20 -20 -20 -20 -20 -20 -20 -20 -20 -20 22 26 -14 30 -20 -20 -17 -6 -0 23 21 4 -1 -20 -20 -20 -20 -20 -20 -20 -20 -20 -20 -20 -20 -20 -20 -20 -20 -20 -20 -20
-20 -20 -20 -20 -20 -20 -20 -20 -20 -20 -20 6 23 22 -17 25 -12 18 -20 -12 18 -14 11 5 -10 -20 -20 -20 -20 -20 -20 -20 -20 -20 -20 -20 -20 -20 -20 -20 -20 -20 -20

GFSSE_prec_radar_054.txt.gz
Reflectivity
-20 -0 3 -5 12 11 5 10 10 11 13 13 -16 -20 -20 -20 -20 -20 -20 -20 -20 -20 -20 -20 -1 13 -16 -20 -20 -20 -20 -20 -20 -20 -20 -20 -20 -20 -20 -20 -20 -20 -20
-20 -10 -20 15 10 11 10 4 7 10 11 15 11 -20 -20 -20 -20 -20 -20 2 -2 -20 -13 -15 -20 4 -11 -20 -20 -20 -20 -20 -20 -20 -20 -20 -20 -20 -20 -20 -20 -20 -20
-20 -19 -20 -20 -17 6 -20 -20 -20 -20 -20 -5 -7 11 -20 -20 -20 -20 -20 -20 -20 15 -20 -20 -20 11 8 -14 -20 -20 -20 -20 -20 -20 -20 -20 -20 -20 -20 -20 -20 -20 -20
-20 -20 -20 -20 -20 -20 -20 -14 -20 -6 -13 -2 2 -19 -20 -20 -20 -20 -20 -20 -5 10 16 -9 12 18 1 -20 -20 -20 -20 -20 -20 -20 -20 -20 -20 -20 -20 -20 -20 -20 -20
-20 -20 -20 -13 -20 -20 -19 0 -14 -20 -20 -5 0 -8 -20 -20 -20 -20 -20 -20 -7 15 16 9 -14 -14 -20 -20 -20 -20 -20 -20 -20 -20 -20 -20 -20 -20 10 -20 -20 -20 -20
-20 -20 -20 -20 -20 -20 -20 -20 -20 -20 -20 -14 6 -20 -20 -20 -20 -20 -20 -20 -20 -20 -19 -20 -20 -20 -20 -20 -20 -20 -20 -20 -20 -20 -20 -20 -20 -20 -13 8 -20 6 -20
-20 -20 -20 -20 -20 -20 -20 -20 -20 -20 -20 0 -20 -20 -20 -20 -20 -20 -20 -20 -20 -20 -20 -20 -20 -20 -20 -20 -20 -20 -20 -20 -20 -20 -20 -20 -19 14 16 17 8 -5 4
-20 -20 -20 -20 -20 -20 -20 -20 -20 -20 -20 -20 -20 -20 -20 -20 -20 -20 -20 -20 -20 -20 -20 -20 -20 -20 -20 -20 -20 -20 -20 -20 -20 -17 -20 -17 -4 -5 -12 -20 -17 -3 -20
-20 -20 -20 -20 -20 -20 -20 -20 -20 -20 -20 -20 -20 -20 -20 -20 -20 -20 -20 -20 -20 -20 -20 -20 -20 -20 -20 -20 -20 -20 -20 -20 -20 -20 -20 -20 10 -14 -20 -20 -20 -20 12
-20 -20 -20 -20 -20 -20 -20 -20 -20 -20 -20 -20 -19 -20 -20 -20 -20 -20 -20 -20 -20 -20 -20 -20 -20 -20 -20 -20 -20 -20 -20 -20 -20 -20 -20 -20 -20 -20 -20 -20 -14 4 -2
-20 -20 -20 -20 -20 -20 -20 -20 -20 -20 -20 -20 -20 -20 -20 -20 -20 -20 -20 -20 -20 -20 -20 -20 -20 -20 -20 -20 -20 -20 -20 -20 -20 -20 -20 -20 -20 -20 -20 -15 -20 -20 -20
-20 2 -20 -20 -20 -20 -20 -20 -20 -20 -20 -20 -20 -20 -20 -20 -20 -20 -20 -20 -20 -20 -20 -20 -20 -20 -20 -20 -20 -20 -20 -20 -20 -20 -20 -20 -20 -20 -12 -20 -20 -20 -20
-20 -20 -20 -20 -20 -20 -20 -20 -20 -20 -20 -20 -20 -20 -20 -20 -20 -20 -20 -20 -20 -20 -20 -20 -20 -20 -20 -20 -20 -20 -20 -20 -20 -20 -20 -20 -20 -20 -19 -15 -20 -20 -20
-20 -20 -20 -20 -20 -20 -20 -20 -20 -20 -20 -20 -20 -20 -20 -20 -20 -20 -20 -20 -20 -20 -20 -20 -20 -20 -20 -20 -20 -20 -20 -20 -20 -20 -20 -20 -20 -15 -20 -20 -20 -20 -20
-20 -20 -20 -20 -20 -20 -20 -20 -20 -20 -20 -20 -20 -20 -20 -20 -20 -20 -20 -20 -20 -20 -20 -20 -20 -20 -20 -20 -20 -20 -20 -20 -20 -20 -20 -20 -20 -20 -20 -20 -20 -20 -20
-20 -20 -20 -20 -20 -20 -20 -20 -20 -20 -20 -20 -20 -20 -20 -20 -20 -20 -20 -20 -20 -20 -20 -20 -20 -20 -20 -20 -20 -20 -20 -20 -20 -20 -20 -20 -20 -20 -20 -20 -20 -20 -20
-20 18 -20 -20 -20 -20 -20 -20 -20 -20 -20 -20 -20 -20 -20 -20 -20 -20 -20 -20 -20 -20 -20 -20 -20 -20 -20 -20 -20 -20 -20 -20 -20 -20 -20 -20 -20 -20 -20 -20 -20 -20 -20
-20 -20 -20 -13 -20 -20 -20 -14 -20 -15 -20 -20 -20 -20 -20 -20 -20 -20 -20 -20 -20 -20 -20 -20 -20 -20 -20 -20 -20 -20 -20 -20 -20 -20 -20 -20 -20 -20 -20 -20 -20 -20 -20
-20 -20 -20 -20 -20 -20 26 -1 5 5 -20 -20 -20 -20 -20 -20 -20 -20 -20 -20 -20 -20 -20 -20 -20 -20 -20 -20 -20 -20 -20 -20 -20 -20 -20 -20 -20 -20 -20 -20 -20 -20 -20
-20 -20 -20 -20 -20 -20 14 -11 -20 -18 -20 -20 -20 -20 -20 -20 -20 -20 -20 -20 -20 -20 -20 -20 -20 -20 -20 -20 -20 -20 -20 -20 -20 -20 -20 -20 -20 -20 -20 -20 -20 -20 -20
-20 -20 -20 -20 -20 -20 13 -20 -20 -20 -20 -20 -2 -20 -20 -20 -20 -20 -20 -20 -20 -20 -20 -20 -20 -20 -20 -20 -20 -20 -20 -4 -13 -20 -20 -20 -20 -20 -20 -20 -20 -20 -20
-20 -20 -20 -20 -20 -20 -20 -20 -20 13 -20 30 18 28 -14 -9 -20 27 -20 -20 -20 -20 -20 -20 -20 -20 -20 -20 -20 -20 -20 -20 -20 -20 -20 -20 -20 -20 -20 -20 -20 -20 -20
-20 -20 -20 -20 -20 -20 -20 8 -18 17 23 22 -18 -19 -20 -20 -20 5 -20 -20 -20 -20 -20 -20 -20 -20 -20 -20 -20 -20 -20 -20 -20 -20 -20 -20 -20 -20 -20 -20 -20 -20 -20
-20 -20 -20 -20 -20 -20 -20 -20 -20 -20 -20 -20 -20 -20 11 25 -17 -10 18 -20 -12 -17 -20 -20 -20 -20 7 -20 -20 -20 -20 -20 -20 -20 -20 -20 -20 -20 -20 -20 -20 -20 -20
-20 -20 -20 -20 -20 -20 -20 -20 -20 -18 -20 -20 -17 17 -20 3 27 28 16 -15 18 27 -17 -19 -20 6 10 -20 -20 -20 -20 -20 -20 -20 -20 -20 -20 -20 -20 -20 -20 -20 -20
-20 -20 -20 -20 -20 -20 -20 -20 -20 -20 -20 -20 -20 2 16 -13 13 27 28 -9 11 7 -16 19 -10 -20 -20 -20 -11 -20 -20 -20 -20 -20 -20 -20 -20 -20 -20 -20 -20 -20 -20

GFSSE_prec_radar_057.txt.gz
Reflectivity
-20 5 2 7 6 -7 8 10 10 -9 6 7 -5 -20 -20 -20 -20 -20 -20 -20 -20 -20 -20 -1 -3 -20 -20 -20 -20 -20 -20 -20 -20 -20 -20 -20 -20 -20 -20 -20 -20 -20 -20
-20 1 -20 -17 10 15 14 11 12 -20 14 9 15 -20 -20 -20 -20 -20 -20 -20 -20 -20 -19 -19 15 -10 -20 -20 -20 -20 -20 -20 -20 -20 -20 -20 -20 -20 -20 -20 -20 -20 -20
-20 5 15 -20 -5 -14 -20 -20 -3 11 11 12 10 -18 -20 -20 -20 -20 -20 -20 -20 -18 9 -20 19 -14 16 -15 -20 -20 -20 -20 -20 -20 -20 -20 -20 -20 -20 -20 -20 -20 -20
-20 -17 -8 -20 -4 -0 7 -2 4 4 3 3 -6 13 12 -20 -20 -20 -20 -20 -14 -9 -14 -9 -2 16 18 -16 -20 -20 -20 -20 -20 -20 -20 -20 -20 -20 -20 -20 -20 -20 -20
-20 -20 -20 -20 -18 4 2 -6 -2 -10 7 -3 -12 -2 -20 -20 -20 -20 -20 -20 14 15 5 2 16 13 -11 -20 -20 -20 -20 -20 -20 -20 -20 -20 -20 -12 -12 -20 -20 -20 -20
-20 -20 -20 -20 -20 5 8 8 7 11 13 12 -12 -16 -20 -20 -20 -20 -20 -20 12 12 14 6 -20 -20 -20 -20 -20 -20 -20 -20 -20 -20 -20 -20 -20 -20 -20 0 13 11 7
-20 -20 -20 -14 -20 -8 3 4 6 11 -15 9 -17 -20 -20 -20 -20 -20 -20 -20 -20 -20 -20 -20 -20 -20 -20 -20 -20 -20 -20 -20 -20 -20 -20 -20 -19 19 10 -16 -20 -20 -20
-20 -20 -20 -20 -20 -7 14 -15 -3 -8 -4 5 -20 -20 -20 -20 -20 -20 -20 -20 -20 -20 -20 -20 -20 -20 -20 -20 -20 -20 -20 -20 -20 -20 -20 -20 8 -7 -20 -20 -20 -20 -9
-20 -20 -20 -20 -20 -20 -20 -20 -20 -20 -20 0 -20 -20 -20 -20 -20 -20 -20 -20 -20 -20 -20 -20 -20 -20 -20 -20 -20 -20 -20 -20 -20 -20 -20 -20 -13 -20 -20 -20 -20 14 0
-20 -20 -20 -20 -20 -20 -20 -20 -20 -20 -20 -20 -20 -20 -20 -20 -20 -20 -20 -20 -20 -20 -20 -20 -20 -20 -20 -20 -20 -20 -20 -20 -20 -20 -20 -20 -20 -20 -20 -19 -17 -14 -20
-20 -20 -20 -20 -20 -20 -20 -20 -20 -20 -20 -20 -20 -20 -20 -20 -20 -20 -20 -20 -20 -20 -20 -20 -20 -20 -20 -20 -20 -20 -20 -20 -20 -20 -20 -20 -20 -20 -20 -20 -20 -20 -20
-20 -5 -20 -20 -20 -20 -20 -20 -20 -20 -20 -20 -20 -20 -20 -20 -20 -20 -20 -20 -20 -20 -20 -20 -20 -20 -20 -20 -20 -20 -20 -20 -20 -20 -20 -20 -20 -20 -6 -20 -20 -20 -20
-20 -20 -20 -20 -20 -20 -20 -20 -20 -20 -20 -20 -20 -20 -20 -20 -20 -20 -20 -20 -20 -20 -20 -20 -20 -20 -20 -20 -20 -20 -20 -20 -20 -20 -20 -20 -20 -0 -20 -20 -20 -20 -20
-20 -20 -20 -20 -20 -20 -20 -20 -20 -20 -20 -20 -20 -20 -20 -20 -20 -20 -20 -20 -20 -20 -20 -20 -20 -20 -20 -20 -20 -20 -20 -20 -20 -20 -20 -20 -20 -12 -20 -20 -20 -20 -20
-20 -20 -1 -20 -20 -20 -20 -20 -20 -20 -20 -20 -20 -20 -20 -20 -20 -20 -20 -20 -20 -20 -20 -20 -20 -20 -20 -20 -20 -20 -20 -20 -20 -20 -20 -20 -20 -20 -20 -20 -20 -20 -20
-20 -20 -20 -20 -20 -20 -20 -20 -20 -20 -20 -20 -20 -20 -20 -20 -20 -20 -20 -20 -20 -20 -20 -20 -20 -20 -20 -20 -20 -20 -20 -20 -20 -20 -20 -20 -20 -20 -20 -20 -20 -20 -20
-20 -20 -20 -8 -20 -20 -20 -20 -20 -20 -20 -20 -20 -20 -20 -20 -20 -20 -20 -20 -20 -20 -20 -20 -20 -20 -20 -20 -20 -20 -20 -20 -20 -20 -20 -20 -20 -20 -20 -20 -20 -20 -20
-20 -20 -20 -20 -20 -20 19 -17 0 -20 -20 -20 -20 -20 -20 -20 -20 -20 -20 -20 -20 -20 -20 -20 -20 -20 -20 -20 -20 -20 -20 -20 -20 -20 -20 -20 -20 -20 -20 -20 -20 -20 -20
-20 -20 -20 -20 -20 23 -19 -11 2 -20 -20 -4 -20 -20 -20 -20 -20 -20 -20 -20 -20 -20 -20 -20 -20 -20 -20 -20 -20 -20 -20 -20 -20 -20 -20 -20 -20 -20 -20 -20 -20 -20 -20
-20 -20 -20 -20 -20 -20 -20 6 -15 -20 -20 -20 -20 -20 -20 -20 -20 -20 -20 -20 -20 -20 -20 -20 -20 -20 -20 -20 -20 -20 -20 -20 -20 -20 -20 -20 -20 -20 -20 -20 -20 -20 -20
-20 -20 -20 -20 -20 -20 -20 -20 -20 -20 -20 -20 -20 -20 -20 5 -10 -20 -20 -20 -20 -20 -20 -20 -20 -20 -20 -20 -20 -20 -20 -20 -20 -20 -20 -20 -20 -20 -20 -20 -20 -20 -20
-20 -20 -20 -20 -20 -20 -20 -20 -20 -20 -20 29 29 -15 20 -20 -11 -20 -20 -20 -20 -20 -20 -20 -20 -20 -20 -20 -20 -20 -20 -20 -20 -20 -20 -20 -20 -20 -20 -20 -20 -20 -20
-20 -20 -20 -20 -20 -20 -20 -20 -20 -20 -20 17 8 -20 -18 -20 8 25 26 -20 -20 -20 -11 -20 -8 -20 -20 -20 -20 -20 -20 -20 -20 -20 -20 -20 -20 -20 -20 -20 -20 -20 -20
-20 -20 -20 -20 -20 -20 -20 -20 -20 -20 -20 -20 -20 -20 -20 -20 14 -20 21 -20 -4 27 -14 28 20 17 3 -20 -20 -20 -20 -20 -20 -20 -20 -20 -20 -20 -20 -20 -20 -20 -20
-20 -20 -20 -20 -20 -20 -20 -20 -20 -19 -20 -20 -20 -20 -12 -2 22 21 22 0 -20 19 -4 6 22 22 -0 1 6 5 -20 -20 -20 -20 -20 -20 -20 -20 -20 -20 -20 -20 -20
-20 -20 -20 -20 -20 -20 -20 -20 -20 -20 -20 -20 2 22 3 4 2 22 -20 13 24 23 3 20 22 17 -8 -3 12 2 -20 -20 -20 -20 -20 -20 -20 -20 -20 -20 -20 -20 -20

GFSSE_prec_radar_060.txt.gz
Reflectivity
-20 -20 17 -15 9 -4 11 1 1 0 10 11 10 -20 -20 -20 -20 -20 -20 -20 -20 -20 -20 -4 -20 -20 -20 -20 -20 -20 -20 -20 -20 -20 -20 -20 -20 -20 -20 -20 -20 -20 -20
-20 -9 16 -20 -2 -19 10 -20 -20 14 -17 15 16 -20 -20 -20 -20 -20 -20 -3 -20 -20 -20 9 -1 -16 -20 -20 -20 -20 -20 -20 -20 -20 -20 -20 -20 -20 -20 -20 -20 -20 -20
-20 -4 -20 -20 -20 -20 -20 -18 -20 5 18 14 17 -3 -20 -20 -20 -20 1 -20 -20 -20 -7 -0 25 -16 -20 -20 -20 -20 -20 -20 -20 -20 -20 -20 -20 -20 -20 -20 -20 -20 -20
-20 -20 -20 -20 -20 -20 15 -7 -12 18 16 14 15 11 5 -20 -20 -20 -20 -20 -20 -5 -20 -15 5 26 -10 -20 -20 -20 -20 -20 -20 -20 -20 -20 -20 -18 -20 -20 -20 -20 -20
-20 -20 -20 -20 -8 8 -19 -6 -20 -3 14 16 13 12 17 -6 -20 -20 -20 -20 7 -20 -20 -20 17 20 -15 -20 -20 -20 -20 -20 -20 -20 -20 -20 -20 -14 -20 -20 -20 -20 -20
-20 -20 9 -11 -6 -19 12 9 -5 9 10 -0 -5 16 14 -20 -20 -20 -20 -20 10 -20 -4 13 4 -20 -20 -20 -20 -20 -20 -20 -20 -20 -20 -20 -20 8 17 16 -2 17 23
-20 -20 -20 -20 -20 -20 9 11 4 4 -2 14 -14 -20 -20 -20 -20 -20 -20 -9 5 -17 6 -14 -20 -20 -20 -20 -20 -20 -20 -20 -20 -20 -20 -20 -10 18 4 9 -15 2 5
-20 -20 -3 -5 -20 -1 10 12 13 9 9 7 -20 -20 -20 -20 -20 -20 -20 -20 -4 -3 -20 -20 -20 -20 -20 -20 -20 -20 -20 -20 -20 -20 -20 -20 13 -11 -20 -20 -20 1 -6
-7 -20 -20 -20 -20 -20 -20 3 0 12 -15 7 -2 -20 -20 -20 -20 -20 -20 -20 -20 -20 -20 -20 -20 -20 -20 -20 -20 -20 -20 -20 -20 -20 -20 -20 1 -20 -20 0 11 -4 6
-10 -20 -20 -20 -20 -20 -20 -20 -20 -20 -0 11 -2 -20 -20 -20 -20 -20 -20 -20 -20 -20 -20 -20 -20 -20 -20 -20 -20 -20 -20 -20 -20 -20 -20 -20 -20 -20 -19 4 -7 15 -20
-5 -20 -20 -20 -20 -20 -20 -20 -20 -20 -20 -4 -20 -20 -20 -20 -20 -20 -20 -20 -20 -20 -20 -20 -20 -20 -20 -20 -20 -20 -20 -20 -20 -20 -20 -20 -20 -20 -4 -20 -20 -20 -20
-8 -20 -20 -20 -20 -20 -20 -20 -20 -20 -20 -20 -20 -20 -20 -20 -20 -20 -20 -20 -20 -20 -20 -20 -20 -20 -20 -20 -20 -20 -20 -20 -20 -20 -20 -20 -20 8 -20 -20 -20 -20 -20
-20 -20 -20 -20 -20 -20 -20 -20 -20 -20 -20 -20 -20 -20 -20 -20 -20 -20 -20 -20 -20 -20 -20 -19 -20 -20 -20 -20 -20 -20 -20 -20 -20 -20 -20 -20 -20 -18 -20 -20 -20 -20 -20
7 -20 -18 -20 -20 -20 -20 -20 -20 -20 -20 -20 -20 -20 -20 -20 -20 -20 -20 -20 -20 -20 -20 -20 -20 -20 -20 -20 -20 -20 -20 -20 -20 -20 -20 -20 -19 -20 -20 -20 -20 -20 -20
-3 -8 3 -20 -20 -20 -20 -20 -20 -20 -20 -20 -20 -20 -20 -20 -20 -20 -20 -20 -20 -20 -20 -20 -20 -20 -20 -20 -20 -20 -20 -20 -20 -20 -20 -20 -20 -20 -20 -20 -20 -20 -20
-20 -19 -18 -20 -20 -20 -20 -20 -20 -20 -20 -20 -20 -20 -20 -20 -20 -20 -20 -20 -20 -20 -20 -20 -20 -20 -20 -20 -20 -20 -20 -20 -20 -20 -20 -20 -20 -20 -20 -20 -20 -20 -20
-20 -20 -20 -20 -20 -20 -20 -20 -20 -20 -20 -20 -20 -20 -20 -20 -20 -20 -20 -20 -20 -20 -20 -20 -20 -20 -20 -20 -20 -20 -20 -20 -20 -20 -20 -20 -20 -20 -20 -20 -20 -20 -20
-20 -20 -20 -20 -20 17 -20 -20 -20 -20 -20 -20 -20 -20 -20 -20 -20 -20 -20 -20 -20 -20 -20 -20 -20 -20 -20 -20 -20 -20 -20 -20 -20 -20 -20 -20 -20 -20 -20 -20 -20 -20 -20
-20 -20 -20 -20 -20 -20 -20 -20 -5 1 -20 -20 -13 -20 -20 -20 -20 -20 -20 -20 -20 -20 -20 -20 -20 -20 -20 -20 -20 -20 -20 -20 -20 -20 -20 -20 -20 -20 -20 -20 -20 -20 -20
-20 -20 -20 -20 -20 -20 -17 -8 -2 -20 -20 -20 -20 -20 7 -20 -20 -20 -20 -20 -20 -20 -20 -20 -20 -20 -20 -20 -20 -20 -20 -20 -20 -20 -20 -20 -20 -20 -20 -20 -20 -20 -20
-20 -20 -20 -20 -20 -20 -20 -20 -20 -20 -1 -13 -5 -20 28 -20 14 -20 -20 -20 -20 -20 -20 -20 -20 -20 -20 -20 -20 -20 -20 -20 -20 -20 -20 -20 -20 -20 -20 -20 -20 -20 -20
-20 -20 -20 -20 -20 -20 -20 -20 -20 -20 -20 -10 23 15 -20 -20 7 -20 -20 -20 -13 -20 -20 -20 -20 -20 -20 -20 -20 -20 -20 -20 -20 -20 -20 -20 -20 -20 -20 -20 -20 -20 -20
-20 -20 -20 -20 -20 -20 -20 -20 -20 -20 -20 13 -9 -20 -20 -20 17 -19 -20 -20 -15 -20 -20 -20 -2 -20 -13 -20 -13 -20 -20 -20 -20 -20 -20 -20 -20 -20 -20 -20 -20 -20 -20
-20 -20 -20 -20 -20 -20 -20 -20 -20 -20 -20 -20 -20 -20 -20 -20 -20 -20 -9 18 -13 -20 -20 21 -16 -13 20 15 19 8 -20 -11 -20 -20 -20 -20 -20 -20 -20 -20 -20 -20 -20
-20 -20 -20 -20 -20 -20 -20 -20 -20 -20 -20 -20 -20 -20 -20 -20 -20 27 -16 -17 23 -20 24 24 19 18 9 14 1 23 16 7 -0 -20 -20 -20 -20 -20 -20 -20 -20 -20 -20
-20 -20 -20 -20 -20 -20 -20 -20 -20 -20 -20 -20 -20 -20 -20 -20 -20 -20 -20 -1 1 -7 -20 -12 21 14 -4 13 -20 -0 11 12 -2 -0 -20 -20 -20 -19 -20 -20 -20 -20 -20

GFSSE_prec_radar_063.txt.gz
Reflectivity
-20 -20 -20 -19 -20 -20 12 -16 14 9 14 14 7 -20 -20 -20 -20 -20 -20 -20 -10 -20 -20 -20 -17 -2 -20 -20 -20 -20 -20 -20 -20 -20 -20 -20 -20 -20 -20 -20 -20 -20 -20
-20 -20 -20 -20 -20 10 -19 -20 -20 -19 14 13 15 -18 -20 -20 -20 -20 -20 -20 -20 -20 -19 -0 -20 -20 -20 -20 -20 -20 -20 -20 -20 -20 -20 -20 -20 -20 -20 -20 -20 -20 -20
-20 -20 -16 -20 -20 -20 -20 -20 -16 -20 13 13 12 10 -20 -20 -20 -20 -5 -20 -20 -20 -20 19 16 7 -20 -20 -20 -20 -20 -20 -20 -20 -20 -20 -20 -20 -20 -20 -20 -20 -20
-20 -20 9 -20 -20 -20 -19 -5 -20 -18 -2 12 15 10 -20 -20 -20 -10 -20 -20 -20 -20 -20 -5 25 12 -16 -20 -20 -20 -20 -20 -20 -20 -20 -20 -20 -20 -20 -20 -20 -20 -20
-20 -20 -20 -20 -20 -20 -20 -20 -20 14 11 13 14 10 9 -20 -20 -20 -20 -20 -20 -20 -20 3 18 11 -20 -20 -20 -20 -20 -20 -20 -20 -20 -20 -20 -20 -20 -10 -20 -20 -20
-20 -20 -20 -16 -20 -20 13 -20 -20 -1 15 13 15 14 14 9 -20 -20 -20 -1 -16 3 -1 3 -15 2 -20 -20 -20 -20 -20 -20 -20 -20 -20 -20 -20 13 22 4 -19 21 14
-20 -20 -20 12 -20 0 1 -20 12 16 18 11 -2 3 15 -4 -20 -20 -20 4 8 -20 -14 9 -18 -20 -20 -20 -20 -20 -20 -20 -20 -20 -20 -20 15 3 -19 -20 -13 -3 -1
-15 -20 8 -20 -20 -20 -20 -4 10 17 16 11 -20 -20 9 -20 -20 -20 -20 7 -19 -20 -10 -20 -20 -20 -20 -20 -20 -20 -20 -20 -20 -20 -20 -20 7 -20 -20 -20 -4 -18 -14
-20 -10 -14 -20 -20 -20 -19 16 16 11 16 -0 -20 -1 -20 -20 -20 -20 -20 6 5 2 -20 -20 -20 -20 -20 -20 -20 -20 -20 -20 -20 -20 -20 -20 -18 -20 -11 5 5 -13 7
-20 -20 -20 -20 -20 -20 -20 -20 -8 -1 5 12 10 -2 -20 -20 -20 -20 -20 -20 3 -3 -20 -20 -20 -20 -20 -20 -20 -20 -20 -20 -20 -20 -20 -20 -20 -20 2 -6 -20 -19 -16
-7 -19 -20 -20 -20 -20 -20 -20 -20 -1 -20 4 11 -20 -20 -20 -20 -20 -20 -20 -20 -20 -20 -20 -20 -20 -20 -20 -20 -20 -20 -20 -20 -20 -20 -20 -20 7 -20 -20 -20 -20 -20
-2 2 -15 -20 -20 -20 -20 -20 -20 -20 -20 -20 -17 -20 -20 -20 -20 -20 -20 -20 -20 -20 -20 -20 -20 -20 -20 -20 -20 -20 -20 -20 -20 -20 -20 -20 -5 -9 -12 -20 -20 -20 -20
-10 2 -13 -14 -20 -20 -20 -20 -20 -20 -20 -20 -20 -20 -20 -20 -20 -20 -20 -20 -20 -20 -20 -17 -19 -20 -20 -20 -20 -20 -20 -20 -20 -20 -20 -20 3 -19 -20 -20 -20 -20 -20
-6 6 6 -14 -20 -20 -20 -20 -20 -20 -20 -20 -20 -20 -20 -20 -20 -20 -20 -20 -20 -20 -20 -20 -20 -20 -20 -20 -20 -20 -20 -20 -20 -20 -20 -20 2 -20 -20 -20 -20 -20 -20
-8 -9 8 -19 -20 -20 -20 -20 -20 -20 -20 -20 -20 -20 -20 -20 -20 -20 -20 -20 -20 -20 -20 -20 -20 -20 -20 -20 -20 -20 -20 -20 -20 -20 -20 -20 -20 -20 -20 -20 -20 -20 -20
-20 14 1 -4 -11 -20 -20 -20 -20 -20 -20 -20 -20 -20 -20 -20 -20 -20 -20 -20 -20 -20 -20 -20 -20 -20 -20 -20 -20 -20 -20 -20 -20 -20 -20 -20 -20 -20 -20 -20 -20 -20 -20
-20 -20 -20 -20 -13 -20 -20 -17 -20 -20 -20 -20 -20 -20 -20 -20 -20 -20 -20 -20 -20 -20 -20 -20 -20 -20 -20 -20 -20 -20 -20 -20 -20 -20 -20 -20 -20 -20 -20 -20 -20 -20 -20
-20 -20 -20 -20 -18 -19 -20 -20 -20 -20 -20 -20 -20 -20 -20 -20 -20 -20 -20 -20 -20 -20 -20 -20 -20 -20 -20 -20 -20 -20 -20 -20 -20 -20 -20 -20 -20 -20 -20 -20 -20 -20 -20
-20 -20 -20 -20 -20 -20 -20 -20 -20 -20 -20 -20 -20 -20 -20 -20 -20 -20 -20 -20 -20 -20 -20 -20 -20 -20 -20 -20 -20 -20 -20 -20 -20 -20 -20 -20 -20 -20 -20 -20 -20 -20 -20
-20 -20 -20 -20 -20 -20 21 -20 -20 -20 -20 -20 -2 -20 -20 6 -20 -20 -20 -20 -20 -20 -20 -20 -20 -20 -20 -20 -20 -20 -20 -20 -20 -20 -20 -20 -20 -20 -20 -20 -20 -20 -20
-20 -20 -20 -20 -20 -20 -20 1 16 -20 -20 -20 4 21 -11 -20 -20 -20 -20 -20 -20 -20 -20 -20 -20 -20 -20 -20 -20 -20 -20 -20 -20 -20 -20 -20 -20 -20 -20 -20 -20 -20 -20
-20 -20 -20 -20 -20 -20 -20 -20 -20 -20 -20 -20 -8 -16 -20 -20 -20 -20 -20 -20 -20 -20 -20 -20 -20 -20 -20 -20 -20 -20 -20 -20 -20 -20 -20 -20 -20 -20 -20 -20 -20 -20 -20
-20 -20 -20 -20 -20 -20 -20 -20 -17 -20 -20 -14 -9 -20 -1 -20 -20 -20 -20 2 -20 -20 -20 -20 -20 -20 -20 -20 -20 -20 -20 -20 -20 -20 -20 -20 -20 -20 -20 -20 -20 -20 -20
-20 -20 -20 -20 -20 -20 -20 -20 -19 -20 -20 -20 -20 -20 -15 4 -20 26 -16 26 28 28 -14 1 -20 -20 21 -20 -20 1 -20 -20 -20 -19 -15 -8 -9 -20 -20 -20 -20 -20 -20
-20 -20 -20 -20 -20 -20 -20 -20 -20 -20 -20 -20 -20 -20 -20 -6 -6 -20 -19 -20 -20 -20 -20 -20 24 -20 -19 10 -18 -20 10 -20 -20 -17 -2 0 -11 -20 -20 -20 -20 -20 -20
-20 -20 -20 -20 -20 -20 -20 -20 -20 -20 -20 -20 -20 -20 -20 -20 -20 -20 23 -16 25 25 5 -19 22 18 1 -2 13 -20 2 -3 -10 -20 -20 -13 -5 -0 -2 -20 -20 -20 -20

GFSSE_prec_radar_066.txt.gz
Reflectivity
-20 -20 -20 -15 -18 10 -8 -20 -13 -11 9 10 15 3 -8 -17 -20 -20 -20 -10 1 -20 -20 6 -20 -20 -20 -20 -20 -20 -20 -20 -20 -20 -20 -20 -20 -20 -20 -20 -20 -20 -20
-20 -20 -20 -17 -19 -12 -20 -20 -7 4 -18 7 14 7 -20 -20 -20 -20 -20 -20 -18 -20 -11 -20 -20 -20 -20 -20 -20 -20 -20 -20 -20 -20 -20 -20 -20 -20 -20 -20 -20 -20 -20
-20 -20 -20 -20 -20 2 -20 -6 6 -20 14 14 10 13 1 -5 -20 -20 -20 -20 -20 -20 -7 10 4 -20 -20 -20 -20 -20 -20 -20 -20 -20 -20 -20 -20 -20 -20 -20 -20 -20 -20
-20 -20 -8 -20 -20 -20 -20 -20 -20 -7 12 13 6 12 15 -6 2 3 -20 -20 -20 -20 -14 20 -1 -20 -20 -20 -20 -20 -20 -20 -20 -20 -20 -20 -20 -20 -20 -20 -20 -20 -20
-20 -20 -17 -20 -20 -16 -20 -8 15 -0 8 6 11 11 11 -20 -20 -20 -20 -20 -20 -7 -20 23 17 -20 -20 -20 -20 -20 -20 -20 -20 -20 -20 -20 -20 -20 -20 -20 -20 -20 -20
-20 -20 -19 -20 -20 -14 -20 -10 -19 -20 11 7 7 11 8 -20 -20 -20 -20 -20 -20 -4 -20 22 -19 1 -20 -20 -20 -20 -20 -20 -20 -20 -20 -16 12 19 16 -0 22 13 17
-20 -20 0 -20 -20 -20 12 -20 11 5 7 4 13 12 14 -9 -20 -20 -20 -10 -20 8 3 -9 7 -20 -20 -20 -20 -20 -20 -20 -20 -20 -3 15 3 -1 -20 -16 -20 -20 -20
-16 -14 2 -6 -20 0 11 -11 12 12 10 14 13 -20 5 -20 -20 -20 -20 10 6 12 -16 -3 -20 -20 -20 -20 -20 -20 -20 -20 -20 -20 -20 6 -20 -20 -20 2 -20 -20 -13
-15 -5 -16 8 -18 -16 2 -16 9 9 -20 12 11 -20 -10 -20 -20 -20 -15 2 -20 12 -16 -20 -20 -20 -20 -20 -20 -20 -20 -20 -20 -20 -20 7 -20 3 10 9 -20 -13 11
-20 -20 -19 -6 4 -20 -20 -20 -11 8 6 15 15 10 -20 -20 -20 -20 2 10 5 -18 -20 -20 -20 -20 -20 -20 -20 -20 -20 -20 -20 -20 -20 -20 -20 6 -17 -20 -20 -20 -20
-20 -20 -20 -20 -20 -20 -20 -18 1 -20 -20 8 10 6 -20 -20 -20 -20 -20 -20 6 -15 -20 -20 -20 -20 -20 -20 -20 -20 -20 -20 -20 -20 -20 -20 -18 -6 -20 -20 -20 -20 -20
-14 -7 -7 -12 -20 -20 -20 -20 -11 -20 -20 -20 -14 -20 -20 -20 -20 -20 -20 -20 -19 -20 -20 -20 -4 -20 -20 -20 -20 -20 -20 -20 -20 -20 -20 -20 8 -20 -20 -20 -20 -20 -20
-20 -19 -20 -3 -5 -20 -20 -20 -20 -20 -20 -20 -20 -20 -20 -20 -20 -20 -20 -20 -20 -20 -20 -20 -18 -20 -20 -20 -20 -20 -20 -20 -20 -20 -20 -20 7 -20 -20 -20 -20 -20 -20
-20 -20 8 -20 -7 -20 -20 -20 -20 -20 -20 -20 -20 -20 -20 -20 -20 -20 -20 -20 -20 -20 -20 -20 -20 -20 -20 -20 -20 -20 -20 -20 -20 -20 -20 -20 -8 -20 -20 -20 -20 -20 -20
-20 -20 0 -18 -18 -20 -20 -20 -20 -20 -20 -20 -20 -20 -20 -20 -20 -20 -20 -20 -20 -20 -20 -20 -20 -20 -20 -20 -20 -20 -20 -20 -20 -20 -20 -20 -20 -20 -20 -20 -20 -20 -20
-20 -20 -20 -18 2 -11 -20 -20 -20 -20 -20 -20 -20 -20 -20 -20 -20 -20 -3 -8 -20 -20 -20 -20 -20 -20 -20 -20 -20 -20 -20 -20 -20 -20 -20 -20 -20 -20 -20 -20 -20 -20 -20
-20 -20 -20 -20 -19 -19 -20 -20 -20 -20 -20 -20 -20 -20 -20 -20 -20 -20 -20 -10 -20 -20 -20 -20 -20 -20 -20 -20 -20 -20 -20 -20 -20 -20 -20 -20 -20 -20 -20 -20 -20 -20 -20
-20 -20 -20 -20 -20 -20 -20 -20 -20 -20 -20 -20 -20 -20 -20 -20 -20 -20 -20 -20 -20 -20 -20 -20 -20 -20 -20 -20 -20 -20 -20 -20 -20 -20 -20 -20 -20 -20 -20 -20 -20 -20 -20
-20 -20 -20 -20 -20 -20 -20 -20 -15 -20 -20 -20 -20 -20 -20 -20 -20 -20 -20 -20 -20 -5 -20 -20 -20 -20 -20 -20 -20 -20 -20 -20 -20 -20 -20 -20 -20 -20 -20 -20 -20 -20 -20
-20 -20 -20 -20 -20 -20 -20 -1 14 -6 -20 -20 -20 -20 -20 -20 -20 -20 -20 -20 -20 -1 -8 -20 -20 -20 -20 -20 -20 -20 -20 -20 -20 -20 -20 -20 -20 -20 -20 -20 -20 -20 -20
-20 -20 -20 -20 -20 -20 -2 -7 10 0 -9 -4 -20 -20 -20 -20 -20 -20 -20 -20 -20 -20 -3 -20 -20 -20 -20 -20 -20 -20 -20 -20 -20 -20 -20 -20 -20 -20 -20 -20 -20 -20 -20
-20 -20 -20 -20 -20 -20 -20 -20 -20 -17 -20 -15 2 -16 -17 -20 -20 -20 -7 5 -20 -20 -20 -20 -20 -20 -20 -20 -20 -20 -20 -20 -20 -20 -20 -20 -20 -20 -20 -20 -20 -20 -20
-20 -20 -20 -20 -20 -20 -20 -20 -20 -20 -4 0 -11 -11 -20 -20 -20 -20 22 -20 8 -20 -20 -20 -20 -20 -20 -20 -20 -20 -20 -20 -20 -20 -20 -20 -20 -20 -20 -20 -20 -13 -12
-20 -20 -20 -20 -20 -20 -20 -20 -20 -20 -20 -20 -20 -20 -17 -20 -19 -18 -5 1 19 14 -20 -20 -20 -20 -20 -20 -20 -20 -20 -20 -20 -20 -20 -20 -20 -20 -20 -20 -20 -20 -20
-20 -20 -20 -20 -20 -20 -20 -20 -20 -20 -20 -20 -20 -20 -20 -20 -20 10 9 -0 -17 -17 23 -20 17 -18 22 -18 14 22 -20 -20 -20 -4 -20 -20 -20 -20 -20 -20 -20 -0 -20
-20 -20 -20 -20 -20 -20 -20 -20 -20 -20 -20 -20 -20 -20 -20 -8 -20 -20 -8 15 17 18 22 -6 24 25 21 16 12 -13 17 -5 -20 -5 -11 -20 -20 -20 -20 -20 -13 7 5

GFSSE_prec_radar_069.txt.gz
Reflectivity
-20 -20 -20 -20 -20 -20 -20 -20 -20 -20 -20 -20 -15 -6 -16 -20 -20 -20 -20 -20 3 -20 -18 -7 -20 -20 -20 -20 -20 -20 -20 -20 -20 -20 -20 -20 -20 -20 -20 -20 -20 -20 -11
-20 -20 -20 -20 -19 -20 -20 -19 -7 -20 -20 15 15 6 7 -20 -20 -20 -20 13 -11 -19 -20 -9 -20 -20 -20 -20 -20 -20 -20 -20 -20 -20 -20 -20 -20 -20 -20 -20 -20 -20 -20
-20 -20 -20 -20 -20 -19 -20 -10 -20 -20 -14 11 -4 7 -20 -20 -20 -20 -20 -20 -20 11 24 -0 -20 -20 -20 -20 -20 -20 -20 -20 -20 -20 -20 -20 -20 -20 -20 -20 -20 -20 -20
-20 -20 -20 -20 -20 -17 -20 -20 -3 -20 -4 16 15 8 7 11 -0 8 -20 -20 -20 -20 22 8 -19 -20 -20 -20 -20 -20 -20 -20 -20 -20 -20 -20 -20 -20 -20 -20 -20 -20 -20
-20 -20 -20 -20 -20 -14 -20 -20 -4 5 16 -3 15 9 12 7 6 -20 -20 -20 -20 -20 -9 21 -20 -20 -20 -20 -20 -20 -20 -20 -20 -20 -20 -13 -20 -20 -20 -20 -20 -20 -20
-20 -20 -20 -20 17 -20 -20 -20 2 -18 -1 14 9 10 8 -12 -20 -20 -20 -20 -3 -20 -20 -2 -20 -7 -20 -20 -20 -20 -20 -20 -20 -20 -18 9 9 22 22 -20 18 -8 6
-20 -20 -20 -20 12 -20 -20 -20 -15 8 12 11 12 8 2 -20 -20 -20 -20 -20 -20 -5 13 -20 3 -20 -20 -20 -20 -20 -20 -20 -20 -3 12 -18 -20 -20 3 -2 -20 -15 -15
-20 -20 -20 -11 -20 -20 -2 -20 5 3 10 15 14 -7 2 -20 -20 -20 -6 -14 8 -20 -20 -12 -8 -20 -20 -20 -20 -20 -20 -20 -20 -20 10 -19 -20 -17 -2 -20 -20 12 10
-20 -11 10 0 -20 2 14 9 12 11 2 13 15 -19 -20 -20 -20 -20 -20 3 11 -20 -9 -20 -20 -20 -20 -20 -20 -20 -20 -20 -20 -20 -20 -20 -20 8 1 -19 -20 -20 3
-20 -20 -14 14 -20 -15 -20 8 10 16 -3 12 12 14 -20 -20 -20 -20 -20 -6 -16 8 -20 -20 -20 -20 -20 -20 -20 -20 -20 -20 -20 -20 -20 -20 -20 8 -20 -20 -20 -20 -20
-20 -20 -20 -4 -7 -20 -20 -20 -20 11 16 10 -4 4 -20 -20 -20 -20 -20 -9 10 2 -20 -20 -20 -20 -20 -20 -20 -20 -20 -20 -20 -20 -20 -20 -1 -20 -20 -20 -20 -20 -20
-20 -20 -20 -20 -20 -20 -20 -20 -20 -20 -20 -11 -20 -20 -20 -20 -20 -20 -20 -20 5 -6 -20 -20 -20 -20 -20 -20 -20 -20 -20 -20 -20 -20 -20 -20 -20 -9 -20 -20 -20 -20 -20
2 -20 -20 -20 -20 -20 -20 -20 -20 -20 -20 -20 -20 -20 -20 -20 -20 -20 -20 -20 -20 -20 -20 -20 -20 -20 -20 -20 -20 -20 -20 -20 -20 -20 -20 -20 -20 -20 -20 -20 -20 -20 -20
-15 -17 -20 -20 -20 -20 -20 -20 -20 -20 -20 -20 -20 -20 -20 -20 -20 -20 -20 -20 -20 -20 -20 -20 -20 -20 -20 -20 -20 -20 -20 -20 -20 -20 -20 -20 -20 -20 -20 -20 -20 -20 -20
-20 11 -4 -20 -20 -20 -20 -20 -20 -20 -20 -20 -20 -20 -20 -20 -20 -20 -20 -20 -20 -20 -20 -20 -20 -20 -20 -20 -20 -20 -20 -20 -20 -20 -20 -20 -20 -20 -20 -20 -20 -20 -20
-20 -20 -15 2 -2 -20 -20 -20 -20 -20 -20 -20 -20 -20 -20 -20 -20 -20 -20 -20 -20 -20 -20 -20 -20 -20 -20 -20 -20 -20 -20 -20 -20 -20 -20 -20 -20 -20 -20 -20 -20 -20 -20
-20 -20 -20 -16 -20 -20 -20 -20 -20 -20 -20 -20 -20 -20 -20 -20 -20 -20 -20 -20 -20 -20 -20 -20 -20 -20 -20 -20 -20 -20 -20 -20 -20 -20 -20 -20 -20 -20 -20 -20 -20 -20 -20
-20 -20 -20 -20 -20 -20 -20 -20 -20 -20 -20 -20 -20 -20 -20 -20 -20 -20 -20 -20 -20 -20 -20 -20 -20 -20 -20 -20 -20 -20 -20 -20 -20 -20 -20 -20 -20 -20 -20 -20 -20 -20 -20
-20 -20 -20 -20 -20 -20 -20 -20 -20 -20 -20 -20 -20 -20 -20 -20 -20 -20 -20 -20 -20 -20 -20 -20 -20 -20 -20 -20 -20 -20 -20 -20 -20 -20 -20 -20 -20 -20 -20 -20 -20 -20 -20
-20 -20 -20 -20 -20 -20 -20 -13 -5 -20 -20 -20 -20 -20 -20 -20 -20 -20 -20 -20 -20 -20 -20 -20 -20 -20 -20 -20 -20 -20 -20 -20 -20 -20 -20 -20 -20 -20 -20 -20 -20 -20 -20
-20 -20 -20 -20 -20 -20 -20 -15 -13 -20 -20 -20 -20 -20 -20 -20 -20 -20 -20 -20 -20 -20 -20 -20 -20 -20 -20 -20 -20 -20 -20 -20 -20 -20 -20 -20 -20 -20 -20 -20 -20 -20 -20
-20 -20 -20 -20 -20 -20 -20 -20 -20 -20 -13 -20 -20 -20 -20 -20 -20 -20 -20 -20 -20 -20 -20 -20 -20 -20 -20 -20 -20 -20 -20 -20 -20 -20 -20 -20 -20 -20 -20 -20 -20 -20 -20
-20 -20 -20 -20 -20 -20 -20 -20 -20 -20 -20 -8 -18 -20 -20 -20 -20 -20 -20 -20 -20 -20 -20 -20 -20 -20 -20 -20 -20 -20 -20 -20 -20 -20 -20 -20 -20 -20 -20 -20 -20 -20 -20
-20 -20 -20 -20 -20 -20 -20 -20 -20 -20 -20 -20 -20 -20 -20 -20 -19 9 -2 -20 -20 -20 -20 -20 -20 -20 -20 -20 -20 -20 -20 -20 -20 -20 -20 -20 -20 -20 -20 -20 -20 -20 -20
-20 -20 -20 -20 -20 -20 -20 -20 -20 -20 -20 -20 -20 -20 -20 -20 -15 -20 -8 19 -3 -8 -13 23 23 -2 22 -20 25 17 -6 -20 -20 -20 -20 -20 -20 -20 -20 -20 -20 -20 -20
-20 -20 -20 -20 -20 -20 -20 -20 -20 -20 -20 -20 -20 -20 -20 -20 2 -20 -2 -0 -14 -3 -3 6 13 25 21 19 -19 10 20 18 17 17 16 -15 -20 -5 6 -10 -20 -20 -20

GFSSE_prec_radar_072.txt.gz
Reflectivity
-20 -20 -20 -20 -17 -20 -20 -20 -14 -20 5 -17 -2 -9 8 -18 9 -20 -20 -9 -20 -20 -16 9 -19 -20 -20 -20 -20 -20 -20 -20 -20 -20 -20 -20 -20 -20 -20 -20 -20 -20 15
-20 -20 -20 -20 -20 -20 -20 -20 -20 -20 -20 2 -18 16 -4 -4 -1 -20 -20 13 -20 -20 -20 -18 -20 -20 -20 -20 -20 -20 -20 -20 -20 -20 -20 -20 -20 -20 -20 -20 -20 -20 -20
-20 -19 -20 -20 -20 -20 -20 -20 -20 -20 -20 12 -20 1 -20 -20 -20 -20 -20 -20 -20 15 -7 -20 -20 -20 -20 -20 -20 -20 -20 -20 -20 -20 -20 -20 -20 -20 -20 -20 -20 -20 -20
-20 -20 -20 -20 -20 -20 -20 -20 -20 -20 16 13 5 10 11 -13 -4 9 -20 -20 -20 9 20 -20 -20 -20 -20 -20 -20 -20 -20 -20 -20 -20 -20 -20 -20 -20 -20 -20 -20 -20 -20
-20 -20 -20 -20 -7 -20 -20 -20 -20 2 17 15 15 16 15 12 -10 -20 -20 -20 -20 -20 17 -10 -18 -20 -20 -20 -20 -20 -20 -20 -20 -20 -11 6 2 3 -18 27 11 13 -8
-20 -20 -20 -20 -3 -20 -20 -20 -20 -20 14 7 7 13 10 6 -20 -20 -20 -20 -20 -20 21 -1 9 -20 -20 -20 -20 -20 -20 -20 5 -1 -7 -19 -18 12 9 -11 -20 -12 -9
-20 -20 -20 -20 -20 -20 -20 -10 -9 -15 13 8 13 8 12 -14 -20 -20 -1 -20 -16 6 4 -20 2 -20 -20 -20 -20 -20 -20 -20 -20 2 -19 -20 -20 -13 -5 -20 -20 -8 5
-20 -20 -20 -20 -20 -20 -20 -20 -20 12 11 16 10 -18 -20 -20 -20 -20 -20 -13 9 12 -20 -7 -1 -20 -20 -20 -20 -20 -20 -20 -7 -20 -18 -20 -20 4 -0 -3 9 13 13
-20 -20 -20 -20 -2 -20 -11 -11 -9 12 -5 -13 12 -19 -20 -20 -20 -20 -20 16 -15 -20 6 -19 -20 -20 -20 -20 -20 -20 -20 -20 -20 -15 -20 -15 9 4 -15 -15 -20 -20 -20
-20 -20 -20 -19 -20 16 11 16 6 -11 11 13 -6 10 -20 -20 -20 -20 -20 9 -19 -20 -20 -20 -20 -20 -20 -20 -20 -20 -20 -20 -20 -20 -20 -20 -20 -7 -20 -20 -20 -20 -20
-20 -20 -5 -8 -20 6 -5 1 10 1 1 15 -8 -20 -20 -20 -20 -20 -20 -20 -8 -19 -10 -20 -20 -20 -20 -20 -20 -20 -20 -20 -20 -20 -20 -20 -20 -20 -20 -20 -20 -20 -20
-20 -18 -20 -20 -20 -20 -20 -20 -20 -20 -3 -19 -16 -20 -20 -20 -20 -20 -20 -20 7 -0 -20 -20 -20 -20 -20 -20 -20 -20 -20 -20 -20 -20 -20 -20 -20 -7 -20 -20 -20 -20 -20
-20 -17 -20 -20 -20 -20 -20 -20 -20 -20 -16 -20 -20 -20 -20 -20 -20 -20 -20 -20 -20 -20 -20 -20 -20 -20 -20 -20 -20 -20 -20 -20 -20 -20 -20 -20 -20 -20 -20 -20 -20 -20 -20
-20 -20 -20 -20 -20 -20 -20 -20 -20 -20 -20 -20 -20 -20 -20 -20 -20 -20 -20 -20 -20 -20 -20 -20 -20 -20 -20 -20 -20 -20 -20 -20 -20 -20 -20 -20 -20 -20 -20 -20 -20 -20 -20
-20 -20 -20 -20 -20 -20 -20 -20 -20 -20 -20 -20 -20 -20 -20 -20 -20 -20 -20 -20 -20 -20 -20 -20 -20 -20 -20 -20 -20 -20 -20 -20 -20 -20 -20 -20 -20 -20 -20 -20 -20 -20 -20
-20 -20 -20 -20 -20 -20 -20 -20 -20 -20 -20 -20 -20 -20 -20 -20 -20 -20 -20 -20 -20 -20 -20 -20 -20 -20 -20 -20 -20 -20 -20 -20 -20 -20 -20 -20 -20 -20 -20 -20 -20 -20 -20
-20 -20 -20 -20 -20 -20 -20 -20 -20 -20 -20 -20 -20 -20 -20 -20 -20 -20 -20 -20 -20 -20 -20 -20 -20 -20 -20 -20 -20 -20 -20 -20 -20 -20 -20 -20 -20 -20 -20 -20 -20 -20 -20
-20 -20 -20 -20 -20 -20 -20 -20 -20 -20 -20 -20 -20 -20 -20 -20 -20 -20 -20 -20 -20 -20 -20 -20 -20 -20 -20 -20 -20 -20 -20 -20 -20 -20 -20 -20 -20 -20 -20 -20 -20 -20 -20
-20 -20 -1 -20 -20 -20 -20 -20 -20 -20 -20 -20 -20 -20 -20 -20 -20 -20 -20 -20 -20 -20 -20 -20 -20 -20 -20 -20 -20 -20 -20 -20 -20 -20 -20 -20 -20 -20 -20 -20 -20 -20 -20
-20 -20 -8 -20 -15 -20 -20 -20 -20 -20 -20 -20 -20 -20 -20 -20 -20 -20 -20 -20 -20 -20 -20 -20 -20 -20 -20 -20 -20 -20 -20 -20 -20 -20 -20 -20 -20 -20 -20 -20 -20 -20 -20
-20 -20 -20 -20 -20 -20 -6 12 -20 -20 -20 -20 16 28 -12 -20 -20 -20 -20 -20 -20 -20 -20 -20 -20 -20 -20 -20 -20 -20 -20 -20 -20 -20 -20 -20 -20 -20 -20 -20 -20 -20 -20
-20 -20 -20 -20 -20 -20 -20 -8 -20 -20 -20 -6 -8 -20 -20 -20 -20 -20 -20 -20 -20 -20 -20 -20 -15 -20 -20 -20 -20 -20 -20 -20 -20 -20 -20 -20 -20 -20 -20 -20 -20 -20 -20
-20 -20 -20 -20 -20 -20 -20 -20 -20 -20 -20 -20 -20 -20 4 -20 -20 6 -20 -20 9 -20 -20 -20 28 22 -20 -20 -20 -20 -20 -20 -20 -20 -16 -17 -20 -20 -20 -20 -20 -20 -20
-20 -20 -20 -20 -20 -20 -20 -20 -20 -20 -20 -20 -20 -20 -20 -20 -20 -11 17 -4 -13 24 -20 24 20 28 26 -17 26 -13 -20 -20 -20 -20 -20 -20 9 -17 -20 -20 -20 -20 -20
-20 -20 -20 -20 -20 -20 -20 -20 -20 -20 -20 -20 -20 -20 -20 -20 -20 -20 -20 1 -20 -20 -19 -20 -20 -11 27 24 -20 24 20 3 14 17 -7 -19 7 15 -4 -20 -19 -17 -20
-20 -20 -20 -20 -20 -20 -20 -20 -20 -20 -20 -20 -20 -20 -20 -20 -15 9 -20 -20 -19 22 20 12 1 11 -20 -11 -19 -14 27 23 22 19 18 15 16 9 5 -6 -10 -7 -14

GFSSE_prec_radar_075.txt.gz
Reflectivity
-20 -20 -14 -3 -20 -20 -20 -20 -20 -20 -17 -1 2 -11 5 -16 -20 -20 -5 -20 -20 -20 -15 -19 -20 -20 -20 -20 -20 -20 -20 -20 -20 -20 -20 -20 -20 -20 -20 -20 -20 -16 4
-20 1 -20 -18 -20 -15 -20 -20 -20 -20 -20 -9 0 1 -11 9 -14 -20 -20 -11 -20 -0 -20 -20 -20 -20 -20 -20 -20 -20 -20 -20 -20 -20 -20 -20 -20 -20 -20 -20 -20 -20 -20
-20 -6 -20 -20 -20 -20 -20 -20 -20 -20 -20 -18 0 6 -20 -20 -20 -20 -20 5 16 -20 -20 -20 -20 -20 -20 -20 -20 -20 -20 -20 -20 -20 -20 -20 -20 -20 -20 -20 -20 -20 -20
-20 -20 -20 -20 -20 -20 -20 -20 -20 -20 -6 5 -6 -18 -7 -7 -5 9 -20 -20 6 13 -20 -20 -20 -20 -20 -20 -20 -20 -20 -20 -20 -20 -20 -20 -20 -20 -20 -20 -11 -6 -20
-20 -20 -6 -20 -17 -20 -20 -20 -20 -20 -10 -13 -5 -10 14 -3 -20 -20 -20 -20 -20 18 -20 -20 -20 -20 -20 -20 -20 -20 -20 -20 -20 -20 -6 -18 -20 19 12 15 11 2 12
-20 -20 15 -2 -20 -20 -20 -20 -20 7 10 -3 9 -0 16 -1 -20 -20 -20 -20 -20 12 -16 -3 -20 -20 -20 -20 -20 -20 -20 -20 -20 -20 -20 14 -20 15 4 10 -17 -3 6
-20 -20 1 16 -20 -20 -20 -20 -20 6 15 -9 -20 -20 15 -12 -20 -20 -20 -20 -20 13 -20 5 -20 -20 -20 -20 -20 -20 -20 -20 -20 -20 -20 -20 -20 -14 7 -20 -20 13 15
-20 -20 -20 -20 -20 -20 -20 -8 -13 -9 -0 -20 -20 -20 -15 -20 -20 -1 -20 -20 -3 -20 -20 -13 -20 -20 -20 -20 -20 -20 -20 -20 -20 -20 -20 -20 -20 -17 -2 -20 -20 -20 5
-20 -20 -20 -20 -20 -20 -18 -15 -20 -20 2 -20 -20 -20 -20 -20 -20 -20 3 9 -14 -20 -13 -20 -20 -20 -20 -20 -20 -20 -20 -20 -20 -20 -20 -20 -0 -7 -20 -20 -20 -20 -20
-20 -20 -20 -20 -20 -2 5 -19 -7 -20 -20 -20 -8 -20 -20 -20 -20 -20 14 9 -20 7 -8 -20 -20 -20 -20 -20 -20 -20 -20 -20 -20 -20 -20 -20 -20 -20 -20 -20 -20 -20 -20
-20 -20 -20 -20 -20 11 10 -0 9 4 -20 -15 -20 -20 -20 -20 -20 -20 -20 -20 -20 -20 -20 -20 -20 -20 -20 -20 -20 -20 -20 -20 -20 -20 -20 -20 -20 -20 -20 -20 -20 -20 -20
-20 -20 -20 -20 -20 -10 -20 -20 -20 -20 -20 -20 -20 -20 -20 -20 -20 -20 -20 -20 -19 -20 -20 -20 -20 -20 -20 -20 -20 -20 -20 -20 -20 -20 -20 -20 -20 -20 -20 -20 -20 -20 -20
-20 -20 -20 -20 -20 -20 -20 -20 -20 -20 -20 -20 -20 -20 -20 -20 -20 -20 -20 -20 -20 -20 -20 -20 -20 -20 -20 -20 -20 -20 -20 -20 -20 -20 -20 -20 -20 -20 -20 -20 -20 -20 -20
-20 -20 -20 -20 -20 -20 -20 -20 -20 -20 -20 -20 -20 -20 -20 -20 -20 -20 -20 -20 -20 -20 -20 -20 -20 -20 -20 -20 -20 -20 -20 -20 -20 -20 -20 -20 -20 -20 -20 -20 -20 -20 -20
-20 -20 -20 -20 -20 -20 -20 -20 -20 -20 -20 -20 -20 -20 -20 -20 -20 -20 -20 -20 -20 -20 -20 -20 -20 -20 -20 -20 -20 -20 -20 -20 -20 -20 -20 -20 -20 -20 -20 -20 -20 -20 -20
-20 12 -20 -20 -20 -20 -20 -20 -20 -20 -20 -20 -20 -20 -20 -20 -20 -20 -20 -20 -20 -20 -20 -20 -20 -20 -20 -20 -20 -20 -20 -20 -20 -20 -20 -20 -20 -20 -20 -20 -20 -20 -20
-20 -20 24 -20 -20 -20 -20 -20 -20 -20 -20 -20 -20 -20 -20 -20 -20 -20 -20 -20 -20 -20 -20 -20 -20 -20 -20 -20 -20 -20 -20 -20 -20 -20 -20 -20 -20 -20 -20 -20 -20 -20 -20
-20 -20 -20 -20 -10 -20 -20 -20 -20 -20 -20 -20 -20 -20 -20 -20 -20 -20 -20 -20 -20 -20 -20 -20 -20 -20 -20 -20 -20 -20 -20 -20 -20 -20 -20 -20 -20 -20 -20 -20 -20 -20 -20
-20 -20 -20 -20 -20 -20 -20 -20 -20 -20 -20 -20 -20 -20 -20 -20 -20 -20 -20 -20 -20 -20 -20 -20 -20 -20 -20 -20 -20 -20 -20 -20 -20 -20 -20 -20 -20 -20 -20 -20 -20 -20 -20
-20 -20 -20 -20 -20 -20 -20 -20 -20 -20 -20 -20 -20 -20 -20 -20 -20 -20 -20 -20 -20 -20 -20 -20 -20 -20 -20 -20 -20 -20 -20 -20 -20 -20 -20 -20 -20 -20 -20 -20 -20 -20 -20
-20 -20 -20 -20 -20 -20 -20 -20 -20 -20 -20 -20 -20 -20 -20 -20 -20 -20 -20 -20 -20 -20 -20 -20 -20 -20 -20 -20 -20 -20 -20 -20 -20 -20 -20 -20 -20 -20 -20 -13 -20 -20 -20
-20 -20 -20 -20 -20 -20 -20 -8 2 -6 28 -12 -20 -20 -20 -20 -20 -20 -20 -20 -20 -20 -20 -20 -20 -20 -15 -20 -20 -20 -20 -20 -20 -20 -20 -20 -20 -20 -20 6 -14 -2 -3
-20 -20 -20 -20 -20 -20 -20 -20 -20 -20 -20 -20 -20 -20 -10 -7 12 -20 -20 -20 -20 -20 -20 -20 4 -20 9 -12 -20 -20 -20 -20 -20 -20 -20 -20 -20 -20 -20 -20 -15 8 18
-20 -20 -20 -20 -20 -20 -20 -20 -20 -20 -20 -20 -20 -20 -20 -20 -12 13 15 -1 -12 -20 -20 -20 -20 9 19 10 17 -20 -20 -20 -20 -20 -3 17 21 -6 -20 -20 -7 -12 14
-20 -20 -20 -20 -20 -20 -20 -20 -20 -20 -20 -20 -20 -20 -20 -20 -20 -20 -20 -20 -20 -17 -19 -20 -19 -20 -20 11 -20 26 20 19 -20 16 -0 16 8 22 28 28 11 -5 -9
-20 -20 -20 -20 -20 -20 -20 -20 -20 -20 -20 -20 -20 -20 -13 7 -18 -20 -20 -17 -9 -11 -7 2 6 12 13 22 -0 -15 11 14 22 21 -13 16 20 10 26 26 27 28 -0

GFSSE_prec_radar_078.txt.gz
Reflectivity
-20 -20 -20 0 -9 -16 -9 -12 -1 -2 -0 -15 -20 -20 -20 -20 -20 -20 -20 -20 -20 -20 -20 -20 -20 -20 -20 -20 -20 -20 -20 -20 -20 -20 -20 -20 -20 0 -20 -20 -19 -10 -13
-20 -14 -20 -19 -20 -20 9 -20 -18 -20 -20 -14 -7 -18 -4 -1 -1 9 -6 -20 -0 -20 -20 -20 -20 -20 -20 -20 -20 -20 -20 -20 -20 -20 -20 -20 -20 -20 -20 -20 -20 -20 -20
-11 -18 -20 -20 -20 -17 18 -20 -20 -20 -20 -20 -20 -1 5 -20 -20 10 8 14 -20 -20 -20 -20 -20 -20 -20 -20 -20 -20 -20 -20 -20 -20 -20 -20 -20 -20 -20 -20 -20 -20 -20
-20 0 -20 -20 -14 -20 -1 -20 -20 -20 -2 -7 -15 -20 -20 -20 -14 -20 -20 10 -19 -20 -20 -20 -20 -20 -20 -20 -20 -20 -20 -20 -20 -20 -20 -20 -20 -16 -20 -6 19 -11 -20
-14 -20 2 4 -18 -20 -20 -20 -20 -1 2 -20 -8 -4 -1 -16 -20 -20 -20 -20 12 -20 -20 -20 -20 -20 -20 -20 -20 -20 -20 -20 -20 -20 -20 -20 -10 11 15 -1 7 7 9
-11 -20 3 -19 -20 -20 -20 -20 -20 9 7 -5 -4 6 -0 -20 -20 -20 -20 -20 12 -20 -20 -20 -20 -20 -20 -20 -20 -20 -20 -20 -20 -20 -7 15 -1 8 11 6 0 -20 7
-20 -20 -20 -20 -20 -20 -20 -20 -20 12 -20 -20 -20 -20 -19 -20 -20 -20 -20 -20 4 -20 -20 -20 -20 -20 -20 -20 -20 -20 -20 -20 -20 -20 -10 -16 -20 -3 3 -20 -17 19 17
-20 -20 -20 -20 -20 -20 -20 -20 -20 -20 -20 -20 -20 -20 5 -20 -20 -20 -20 -20 -2 -20 -20 -20 -20 -20 -20 -20 -20 -20 -20 -20 -20 -20 -20 -20 -20 -20 -20 -20 -20 -16 -10
-20 -20 -0 -12 -20 -14 -20 -20 -20 -20 -20 -20 -20 -20 -20 -20 -20 -20 -20 -20 -1 -20 -20 -20 -20 -20 -20 -20 -20 -20 -20 -20 -20 -20 -20 -20 -20 -17 -20 -20 -20 -20 -20
-20 -19 -20 -20 -5 -20 -20 -12 -20 -20 -20 -20 -20 -20 -20 -20 -20 -20 -20 12 -20 -20 -20 -20 -20 -20 -20 -20 -20 -20 -20 -20 -20 -20 -20 -20 -20 -20 -20 -20 -20 -20 -20
-2 -20 -20 -20 -20 1 -12 -20 -20 -20 -20 -20 -20 -20 -20 -20 -20 -20 -10 0 -15 7 -20 -20 -20 -20 -20 -20 -20 -20 -20 -20 -20 -20 -20 -20 -20 -20 -20 -20 -20 -20 -20
15 -12 -20 -20 -20 -10 -11 -20 -20 -20 -20 -20 -20 -20 -20 -20 -20 -20 -20 -16 -20 -20 -20 -20 -20 -20 -20 -20 -20 -20 -20 -20 -20 -20 -20 -20 -20 -20 -20 -20 -20 -20 -20
-20 -20 -20 -20 -20 -20 -20 -20 -20 -20 -20 -20 -20 -20 -20 -20 -20 -20 -20 -20 -20 -20 -20 -20 -20 -20 -20 -20 -20 -20 -20 -20 -20 -20 -20 -20 -20 -20 -20 -20 -20 -20 -20
-20 -20 -20 -20 -20 -20 -20 -20 -20 -20 -20 -20 -20 -20 -20 -20 -20 -20 -20 -20 -20 -20 -20 -20 -20 -20 -20 -20 -20 -20 -20 -20 -20 -20 -20 -20 -20 -20 -20 -20 -20 -20 -20
-20 -20 -20 -20 -20 -20 -20 -20 -20 -20 -20 -20 -20 -20 -20 -20 -20 -20 -20 -20 -20 -20 -20 -20 -20 -20 -20 -20 -20 -20 -20 -20 -20 -20 -20 -20 -20 -20 -20 -20 -20 -20 -20
-20 -20 -20 -20 -20 -20 -20 -20 -20 -20 -20 -20 -20 -20 -20 -20 -20 -20 -20 -20 -20 -20 -20 -20 -20 -20 -20 -20 -20 -20 -20 -20 -20 -20 -20 -20 -20 -20 -20 -20 -20 -20 -20
-20 -20 -20 -20 -20 -20 -20 -20 -20 -20 -20 -20 -20 -20 -20 -20 -20 -20 -20 -20 -20 -20 -20 -20 -20 -20 -20 -20 -20 -20 -20 -20 -20 -20 -20 -20 -20 -20 -20 -20 -20 -20 -20
-20 13 -20 -20 -20 -20 -20 -20 -20 -20 -20 -20 -20 -20 -20 -20 -20 -20 -20 -20 -20 -20 -20 -20 -20 -20 -20 -20 -20 -20 -20 -20 -20 -20 -20 -20 -20 -20 -20 -20 -20 -20 -20
-20 -20 -20 5 -20 -20 -20 -20 -20 -20 -20 -20 -20 -20 -20 -20 -20 -20 -20 -20 -20 -20 -20 -20 -20 -20 -20 -20 -20 -20 -20 -20 -20 -20 -20 -20 -20 -20 -20 -20 -20 -20 -20
-20 -20 -20 -20 -20 -20 -20 -20 -20 -20 -20 -20 -20 -20 -20 -20 -20 -20 -20 -20 -20 -20 -20 -20 -20 -20 -20 -20 -20 -20 -20 -20 -20 -20 -20 -20 -20 -20 -20 -20 -20 -20 -20
-20 -20 -20 -20 -20 -20 -20 -20 -20 -20 -20 -20 -20 -20 -20 -20 -20 -20 -20 -20 -20 -20 -20 -20 -20 -20 -20 -20 -20 -20 -20 -20 -20 -20 -20 -20 -20 -20 -20 -20 -20 -20 -20
-20 -20 -20 -20 -20 -20 17 -10 -20 -20 -20 -20 -20 -20 -20 -20 -10 -20 -20 -20 -20 -20 -20 -20 -20 -20 -20 -20 -20 -20 -20 -20 -20 -20 -20 -20 -20 -20 -20 -20 -20 -20 -20
-20 -20 -20 -20 -20 -20 -20 -3 -20 -20 -20 -20 -20 -20 -20 -9 -6 -20 -20 -8 -20 -20 -20 -20 -20 -20 -20 -20 -20 17 -20 -20 -20 -20 -20 -20 -20 -20 -20 -18 -20 -13 -16
-20 -20 -20 -20 -20 -20 -20 -20 -20 -20 -20 -20 -20 -10 13 3 -20 -20 -11 -20 -20 -20 -20 -20 -20 -20 -7 -20 23 16 -16 -20 -20 -20 -20 19 -20 1 13 21 25 34 31
-20 -20 -20 -20 -20 -20 -20 -20 -20 -20 -20 -20 -20 -20 -20 -20 -20 -20 -20 -20 -20 -20 -20 -20 -20 -10 12 12 25 14 -0 -18 2 15 -2 -20 17 17 3 -20 11 28 34
-20 -20 -20 -20 -20 -20 -20 -20 -20 -20 -20 -20 -20 -20 -20 -20 -20 -20 -20 -20 -20 -20 -11 -15 -20 5 13 22 20 21 23 23 -20 11 6 4 16 0 13 5 11 10 17

GFSSE_prec_radar_081.txt.gz
Reflectivity
-20 -1 -20 -8 -8 -20 -20 -20 -20 -20 -20 -20 -20 -20 -20 -20 -20 -20 -20 -20 -12 -13 -20 -20 -20 -20 -20 -20 -20 -20 -20 -20 -20 -20 -20 -20 -19 6 -3 -18 -20 -20 -20
-20 3 -20 -19 -14 -15 0 -12 -20 -20 -20 -20 -20 -20 -20 -20 -20 -20 -20 -20 -20 -20 -20 -20 -20 -20 -20 -20 -20 -20 -20 -20 -20 -20 -20 -20 -20 -20 -20 -20 -20 -20 -20
2 -6 -20 -17 -4 -19 -7 1 3 -20 -20 -20 -19 -4 6 -1 12 -19 -15 -20 -20 -20 -20 -20 -20 -20 -20 -20 -20 -20 -20 -20 -20 -20 -20 -20 -20 -20 -20 -20 -20 -20 -20
-1 6 -3 -13 -20 -20 -20 -13 -20 -20 -20 -20 -20 -20 -20 -20 -20 -11 12 -20 -20 -20 -20 -20 -20 -20 -20 -20 -20 -20 -20 -20 -20 -20 -20 -20 -20 -20 -2 -4 -6 -17 -20
-18 -12 4 -3 -5 -17 -20 -19 -20 -20 14 -20 -8 -20 -20 0 -20 -20 -5 3 -20 -20 -20 -20 -20 -20 -20 -20 -20 -20 -20 -20 -20 -20 -20 -20 11 12 9 8 14 9 11
2 -20 15 12 -20 -19 -20 -20 -19 -20 -20 10 -20 -16 -16 -20 -20 -20 -20 13 -20 -20 -20 -20 -20 -20 -20 -20 -20 -20 -20 -20 -20 -20 -20 -1 -20 -6 12 -3 8 2 -6
-18 -20 10 -18 -20 -20 -20 -20 11 -20 -13 10 7 -5 -20 -20 -20 -20 -20 -8 -20 -20 -20 -20 -20 -20 -20 -20 -20 -20 -20 -20 -20 -20 -20 -20 -20 -20 -20 -20 -19 10 8
-18 -14 14 -15 -20 -20 -20 -20 -3 -5 -17 -20 -20 -20 -20 -20 -20 -20 -20 -5 -20 -20 -20 -20 -20 -20 -20 -20 -20 -20 -20 -20 -20 -20 -20 -20 -20 -20 -20 -20 -20 -20 8
2 1 -1 -11 -20 -20 -20 -20 -20 -20 -20 -20 -20 -20 -9 -20 -20 -20 -20 -20 -16 -20 -20 -20 -20 -20 -20 -20 -20 -20 -20 -20 -20 -20 -20 -20 -20 -20 -20 -20 -20 -20 -20
1 4 -20 -12 -4 -14 -20 -20 -20 -20 -20 -20 -20 -20 -20 -20 -20 -20 -20 -19 -20 -20 -20 -20 -20 -20 -20 -20 -20 -20 -20 -20 -20 -20 -20 -20 -20 -20 -20 -20 -20 -20 -20
2 -20 -20 -9 -20 -20 -20 -20 -20 -20 -20 -20 -20 -20 -20 -20 -20 -20 -18 10 -18 -20 -20 -20 -20 -20 -20 -20 -20 -20 -20 -20 -20 -20 -20 -20 -20 -20 -20 -20 -20 -20 -20
2 -5 5 -20 -20 -20 -20 -20 -20 -20 -20 -20 -20 -20 -20 -20 -20 -20 -10 -7 -9 -20 -20 -20 -20 -20 -20 -20 -20 -20 -20 -20 -20 -20 -20 -20 -20 -20 -20 -20 -20 -20 -20
-16 -20 -20 -20 -20 -20 -19 -20 -20 -20 -20 -20 -20 -20 -20 -20 -20 -20 -20 -20 -20 -20 -20 -20 -20 -20 -20 -20 -20 -20 -20 -20 -20 -20 -20 -20 -20 -20 -20 -20 -20 -20 -20
-20 -8 -20 -20 -20 -20 -20 -20 -20 -20 -20 -20 -20 -20 -20 -20 -20 -20 -20 -20 -20 -20 -20 -20 -20 -20 -20 -20 -20 -20 -20 -20 -20 -20 -20 -20 -20 -20 -20 -20 -20 -20 -20
-20 -20 -20 -20 -20 -20 -20 -20 -20 -20 -20 -20 -20 -20 -20 -20 -20 -20 -20 -20 -20 -20 -20 -20 -20 -20 -20 -20 -20 -20 -20 -20 -20 -20 -20 -20 -20 -20 -20 -20 -20 -20 -20
-20 -20 -20 -20 -20 -20 -20 -20 -20 -20 -20 -20 -20 -20 -20 -20 -20 -20 -20 -20 -20 -20 -20 -20 -20 -20 -20 -20 -20 -20 -20 -20 -20 -20 -20 -20 -20 -20 -20 -20 -20 -20 -20
7 -20 -20 -20 -20 -20 -20 -20 -20 -20 -20 -20 -20 -20 -20 -20 -20 -20 -20 -20 -20 -20 -20 -20 -20 -20 -20 -20 -20 -20 -20 -20 -20 -20 -20 -20 -20 -20 -20 -20 -20 -20 -20
-20 -20 -20 -20 -20 -20 -20 -20 -20 -20 -20 -20 -20 -20 -20 -20 -20 -20 -20 -20 -20 -20 -20 -20 -20 -20 -20 -20 -20 -20 -20 -20 -20 -20 -20 -20 -20 -20 -20 -20 -20 -20 -20
-20 -16 -16 -20 -20 -14 -18 -20 -20 -20 -20 -20 -20 -20 -20 -20 -20 -20 -20 -20 -20 -20 -20 -20 -20 -20 -20 -20 -20 -20 -20 -20 -20 -20 -20 -20 -20 -20 -20 -20 -20 -20 -20
-20 -20 -20 -20 -20 -20 -20 -20 -20 -20 -20 -20 -20 -20 -20 -20 -20 -20 -20 -20 -20 -20 -20 -20 -20 -20 -20 -20 -20 -20 -20 -20 -20 -20 -20 -20 -20 -20 -20 -20 -20 -20 -20
-20 -20 -20 -20 6 -20 -20 -20 -20 -20 -20 1 -20 -20 -20 -20 -20 -20 -20 -20 -20 -20 -20 -20 -20 -20 -20 -20 -20 -20 -20 -20 -20 -20 -20 -20 -20 -20 -20 -20 -20 -20 -20
-20 -20 -20 -20 -20 -20 -20 -20 -20 -20 -20 -20 -11 -20 -20 -20 -16 -20 -20 -20 -20 -20 -20 -20 -20 -20 -20 -20 -20 -20 -20 -20 -20 -20 -20 -20 -20 -13 -20 3 -9 1 8
-20 -20 -20 -20 -20 -20 2 -20 -10 -20 -20 -20 -20 -20 -15 4 -20 -20 -20 -20 -20 -20 -20 -20 -20 -20 -20 -6 -20 1 9 -19 -20 -20 -20 -20 -20 -20 -20 -20 -20 -20 -20
-20 -20 -20 -20 -20 -20 -20 -20 -20 6 11 -7 9 26 -20 -16 -20 -20 -20 -20 -20 -20 -20 -20 9 20 -20 -15 8 -10 8 -2 -6 -20 -20 -20 -20 -20 -20 -20 -20 -19 1
-20 -20 -20 -20 -20 -20 -20 -20 -20 -20 -20 -20 -20 -20 -20 -20 -20 -20 -20 -20 -20 -20 -20 -20 -20 -20 -20 -0 10 26 -8 -20 -5 16 7 -20 -20 -20 -20 -20 -20 -20 9
-20 -20 -20 -20 -20 -20 -20 -20 -20 -20 -20 -20 -20 -20 -20 -20 -20 -20 -20 -20 -20 -20 -20 -20 -20 -20 -15 -8 -11 -20 -19 1 -20 11 -20 -20 -12 -20 -20 4 -20 9 -20

GFSSE_prec_radar_084.txt.gz
Reflectivity
-20 -20 8 -8 -20 -20 -20 -20 -20 -20 -20 -20 -20 -20 -20 -20 -20 -20 -20 -20 -20 -20 -20 -20 -20 -20 -20 -20 -20 -20 -20 -20 -20 -20 -20 -20 7 18 -17 -20 -20 -20 -20
-20 -4 -20 -4 -4 -20 -20 -6 -17 -20 -20 -20 -20 -20 -20 -20 -20 -20 -20 -20 -20 -20 -20 -20 -20 -20 -20 -20 -20 -20 -20 -20 -20 -20 -20 -20 -20 -20 -20 -20 -20 -20 -20
-4 -20 -20 8 -13 -20 -15 -2 -20 -20 -16 -6 -20 -20 -20 -5 -20 -20 -20 -20 -20 -20 -20 -20 -20 -20 -20 -20 -20 -20 -20 -20 -20 -20 -20 -20 -20 -20 -20 -20 -20 -20 -20
3 1 -20 4 -13 -4 -20 7 9 -7 -20 1 -4 0 -12 12 -10 -1 -20 -20 -20 -20 -20 -20 -20 -20 -20 -20 -20 -20 -20 -20 -20 -20 -20 -20 -20 17 10 2 8 -14 -20
-3 5 -20 -20 -17 -12 -20 7 -17 -20 1 -20 -20 -20 -20 -20 -20 12 -20 -20 -20 -20 -20 -20 -20 -20 -20 -20 -20 -20 -20 -20 -20 -20 -20 10 2 -10 12 14 9 0 -20
-7 -20 16 -20 -3 6 -20 -20 -20 -20 -19 -20 -20 -20 -7 -20 -20 -20 12 -20 -20 -20 -20 -20 -20 -20 -20 -20 -20 -20 -20 -20 -20 -20 -20 -19 -20 -20 7 -20 -20 12 11
-8 9 14 -13 -3 -20 -20 -20 -20 3 -10 7 5 -13 -20 -20 -20 -20 10 -20 -20 -20 -20 -20 -20 -20 -20 -20 -20 -20 -20 -20 -20 -20 -20 -20 -20 -20 -20 -20 -20 -20 -14
-20 8 -3 3 -1 -20 -20 -20 -14 -4 16 17 17 10 -20 -20 -20 -20 -20 -20 -20 -20 -20 -20 -20 -20 -20 -20 -20 -20 -20 -20 -20 -20 -20 -20 -20 -20 -20 -20 -20 -20 11
-7 -13 12 -20 3 -20 -20 -8 -20 -20 -20 -20 -20 -20 -20 -20 -20 -20 -20 -5 -20 -20 -20 -20 -20 -20 -20 -20 -20 -20 -20 -20 -20 -20 -20 -20 -20 -20 -20 -20 -20 -20 -20
8 -15 -9 -20 -20 -20 -20 -20 -20 -20 -20 -20 -20 -20 -20 -10 -16 3 -20 11 -20 -19 -20 -20 -20 -20 -20 -20 -20 -20 -20 -20 -20 -20 -20 -20 -20 -20 -20 -20 -20 -20 -20
7 -2 -1 -20 -20 -20 -20 -20 -20 -20 -20 -20 -20 -20 -20 -20 -20 -20 -20 -4 6 -4 -20 -20 -20 -20 -20 -20 -20 -20 -20 -20 -20 -20 -20 -20 -20 -20 -20 -20 -20 -20 -20
7 -4 9 -10 -20 -20 -20 -20 -20 -20 -20 -20 -20 -20 -20 -20 -20 -20 -17 13 7 -20 -20 -20 -20 -20 -20 -20 -20 -20 -20 -20 -20 -20 -20 -20 -20 -20 -20 -20 -20 -20 -20
-18 8 13 -5 -20 -20 -20 -20 -20 -20 -20 -20 -20 -20 -20 -20 -20 -20 -20 -16 -18 -20 -20 -20 -20 -20 -20 -20 -20 -20 -20 -20 -20 -20 -20 -20 -20 -20 -20 -20 -20 -20 -20
-11 -20 5 -12 -20 -20 -20 -20 -20 -20 -20 -20 -20 -20 -20 -20 -20 -20 -20 -20 -20 -20 -20 -20 -20 -20 -20 -20 -20 -20 -20 -20 -20 -20 -20 -20 -20 -20 -20 -20 -20 -20 -20
-20 -20 -20 -4 -20 -20 -20 -20 -20 -20 -20 -20 -20 -20 -20 -20 -20 -20 -20 -20 -20 -20 -20 -20 -20 -20 -20 -20 -20 -20 -20 -20 -20 -20 -20 -20 -20 -20 -20 -20 -20 -20 -20
22 -14 -20 -20 -20 -20 -20 -20 -20 -20 -20 -20 -20 -20 -20 -20 -20 -20 -20 -20 -20 -20 -20 -20 -20 -20 -20 -20 -20 -20 -20 -20 -20 -20 -20 -20 -20 -20 -20 -20 -20 -20 -20
-8 -2 -10 -20 -20 -20 -20 -20 -20 -20 -20 -20 -20 -20 -20 -20 -20 -20 -20 -20 -20 -20 -20 -20 -20 -20 -20 -20 -20 -20 -20 -20 -20 -20 -20 -20 -20 -20 -20 -20 -20 -20 -20
-0 -17 -14 -20 -20 -20 -20 -20 -20 -20 -20 -20 -20 -20 -20 -20 -20 -20 -20 -20 -20 -20 -20 -20 -20 -20 -20 -20 -20 -20 -20 -20 -20 -20 -20 -20 -20 -20 -20 -20 -20 -20 -20
26 -0 -12 -10 -7 -20 -20 -20 -20 -20 -20 -20 -20 -20 -20 -20 -20 -20 -20 -20 -20 -20 -20 -20 -20 -20 -20 -20 -20 -20 -20 -20 -20 -20 -20 -20 -20 -20 -20 -20 -20 -20 -20
3 8 -5 -11 -5 -11 -17 -20 -20 -20 -20 -20 -20 -20 -20 -20 -20 -20 -20 -20 -20 -20 -20 -20 -20 -20 -20 -20 -20 -20 -20 -20 -20 -20 -20 -20 -20 -20 -20 -20 -20 -20 -20
-14 7 12 7 -2 -8 -11 -15 -20 -20 -20 -20 -20 -20 -20 -20 -20 -20 -20 -20 -20 -20 -20 -20 -20 -20 -20 -20 -20 -20 -20 -20 -20 -20 -20 -20 -20 -20 -20 -20 -20 -20 -20
-9 -13 -14 -20 -19 -20 -20 -13 -20 -20 -20 -20 -15 -20 -9 -2 -20 -20 -20 -20 -20 -20 -20 -20 -20 -20 -20 -20 -20 -20 -18 -19 -20 -20 -20 -20 -20 -20 -20 -20 -20 -20 -20
-1 -18 -20 -20 -20 -20 -20 -20 -20 -20 -20 -20 -20 -20 -20 -20 -20 -20 -20 -20 -20 -20 -20 -20 -20 -20 -11 -20 -20 -16 -17 7 -13 -20 -20 -20 -20 -20 -20 -20 -20 -20 -20
-20 -19 -20 -20 -20 -20 -20 -20 -20 -20 -20 -20 -17 -20 -20 -20 7 -20 -20 -20 -20 -20 -15 -20 -20 -20 -20 -20 -20 -17 -14 -20 -14 -20 -20 -20 -20 -20 -20 -20 -20 -20 -10
-20 -20 -20 -20 -20 -20 -20 -20 -20 -20 -20 -20 -20 -20 -20 -20 -20 -20 29 24 9 -20 -20 -20 -20 -20 -20 -20 -20 -20 -20 -20 -7 -17 -8 -5 -20 -20 -20 -20 -20 -20 -20
-20 -20 -20 -20 -20 -20 -20 -20 -20 -20 -20 -20 -20 -20 -20 -20 -20 -20 -20 -20 -20 -20 -20 -20 -20 -20 -20 -20 -20 -20 -20 -20 5 7 -17 6 -15 -12 -18 -20 -20 -20 -20

GFSSE_prec_radar_087.txt.gz
Reflectivity
-20 -20 -20 -15 3 -7 -20 -20 -20 -20 -20 -20 -20 -20 -20 -20 -20 -20 -20 -20 -20 -20 -20 -17 -19 -20 -20 -20 -20 -20 -20 -20 -20 -20 -20 -13 9 -5 -20 -20 -20 -20 -20
-20 -20 -3 -20 6 4 1 -11 -20 -20 -20 -20 -20 -20 -20 -20 -20 -20 -20 -20 -20 -20 -20 -20 -20 -20 -20 -20 -20 -20 -20 -20 -20 -20 -20 -20 -20 -20 -20 -20 -20 -20 -20
-20 -8 -1 -20 3 4 3 -7 -20 -20 -20 -20 -20 -20 -20 -20 -20 -20 -20 -20 -20 -20 -20 -20 -20 -20 -20 -20 -20 -20 -20 -20 -20 -20 -20 -20 -20 -20 -20 -20 -20 -20 -20
-14 -3 10 4 4 8 5 -17 -20 -20 -20 -20 -10 -12 -4 -20 -13 -20 -20 -20 -20 -20 -20 -20 -20 -20 -20 -20 -20 -20 -20 -20 -20 -20 -20 -18 13 -0 8 22 -14 -20 -20
-1 0 7 3 -6 -18 10 10 -11 7 -20 -16 -10 -10 9 -0 8 -20 -20 -20 -20 -20 -20 -20 -20 -20 -20 -20 -20 -20 -20 -20 -6 10 9 -20 -13 -11 -5 -20 -1 -20 -20
4 -16 16 -20 -20 -20 -20 12 -6 -20 13 -2 -20 -20 -20 -20 -19 -20 -20 -20 -20 -20 -20 -20 -20 -20 -20 -20 -19 -20 -20 -20 -20 -11 -20 -20 -20 -17 -15 -20 -17 13 -4
4 -20 12 -20 -20 -20 -12 -20 -20 -11 -13 -9 -20 1 -20 -20 -20 14 -20 -20 -20 -20 -20 -20 -20 -20 -20 -20 -20 -20 -20 -20 -20 -20 -20 -20 -20 -20 -20 -20 -20 -20 -20
-1 1 12 -2 7 -20 -20 -20 -20 -20 12 16 15 14 -20 -20 -20 -20 -20 -20 -20 -20 -20 -20 -20 -20 -20 -20 -20 -20 -20 -20 -20 -20 -20 -20 -20 -20 -20 -20 -20 -20 -20
-20 -15 -20 -20 -20 14 -20 -20 -20 -20 16 7 10 -13 -20 -20 -20 -20 11 -20 -20 -20 -20 -20 -20 -20 -20 -20 -20 -20 -20 -20 -20 -20 -20 -20 -20 -20 -20 -20 -20 -20 -20
-5 -20 -20 -20 10 -20 -20 -20 -20 -20 -20 -20 -20 -20 -20 -20 -20 -20 9 8 -19 -20 -20 -20 -20 -20 -20 -20 -20 -20 -20 -20 -20 -20 -20 -20 -20 -20 -20 -20 -20 -20 -20
11 0 -14 -17 -16 -20 -20 -20 -20 -20 -20 -20 -20 -20 -20 -20 -20 -20 -20 14 -9 -13 -20 -20 -20 -20 -20 -20 -20 -20 -20 -20 -20 -20 -20 -20 -20 -20 -20 -20 -20 -20 -20
8 8 -6 -10 -20 -20 -20 -20 -20 -20 -20 -20 -20 -20 -20 -20 -20 -20 -20 -3 6 -20 -20 -20 -20 -20 -20 -20 -20 -20 -20 -20 -20 -20 -20 -20 -20 -20 -20 -20 -20 -20 -20
12 5 10 12 -4 6 -20 -20 -20 -20 -20 -20 -20 -20 -20 -20 -20 -20 -20 10 5 -20 -20 -20 -20 -20 -20 -20 -20 -20 -20 -20 -20 -20 -20 -20 -20 -20 -20 -20 -20 -20 -20
10 -12 8 12 -11 -20 -20 -20 -20 -20 -20 -20 -20 -20 -20 -20 -20 -20 -20 -20 -20 -20 -20 -20 -20 -20 -20 -20 -20 -20 -20 -20 -20 -20 -20 -20 -20 -20 -20 -20 -20 -20 -20
-19 -19 -20 10 6 -17 -20 -20 -20 -20 -20 -20 -20 -20 -20 -20 -20 -20 -20 -20 -20 -20 -20 -20 -20 -20 -20 -20 -20 -20 -20 -20 -20 -20 -20 -20 -20 -20 -20 -20 -20 -20 -20
-19 13 -20 -10 -20 -1 -20 -20 -20 -20 -20 -20 -20 -20 -20 -20 -20 -20 -20 -20 -20 -20 -20 -20 -20 -20 -20 -20 -20 -20 -20 -20 -20 -20 -20 -20 -20 -20 -20 -20 -20 -20 -20
5 13 10 -2 24 -20 -20 -20 -20 -20 -20 -20 -20 -20 -20 -20 -20 -20 -20 -20 -20 -20 -20 -20 -20 -20 -20 -20 -20 -20 -20 -20 -20 -20 -20 -20 -20 -20 -20 -20 -20 -20 -20
-20 -20 -2 22 25 12 -20 -20 -20 -20 -20 -20 -20 -20 -20 -20 -20 -20 -20 -20 -20 -20 -20 -20 -20 -20 -20 -20 -20 -20 -20 -20 -20 -20 -20 -20 -20 -20 -20 -20 10 -20 -20
-20 -18 -20 6 22 32 3 -20 -20 -20 -20 -20 -20 -20 -20 -20 -20 -20 -20 -20 -20 -20 -20 -20 -20 -20 -20 -20 -20 -20 -20 -20 -20 -20 -20 -20 -20 -20 -20 -20 -20 -20 -20
-20 -11 -20 -8 10 32 32 -2 -18 -20 -20 -20 -20 -20 -20 -20 -20 -20 -20 -20 -20 -20 -20 -20 -20 -20 -20 -20 -20 -20 -20 -20 -20 -20 -20 -20 -20 -20 -20 -20 -20 -20 -20
-20 16 29 30 17 5 -1 -7 -16 -20 -20 -20 -20 -20 -20 -20 -20 -20 -20 -20 -20 -20 -20 -20 -20 -20 -20 -20 -20 -20 -20 -20 -20 -20 -20 -20 -20 -20 -20 -20 -20 -20 -20
-18 -20 -8 32 28 -11 25 29 29 -0 -9 -14 -20 -20 -20 -20 -20 -20 -20 -20 -20 -20 -20 -20 -20 -20 -20 -20 -20 -20 -20 -20 -20 -20 -20 -20 -20 -20 -20 -20 -20 -20 -20
5 8 -20 14 25 17 19 24 23 3 3 -1 -20 -18 -20 -20 -20 -20 -20 -20 -20 -20 -20 -20 -20 -20 -20 -20 -20 -20 -20 -20 -20 -20 -20 -20 -20 -20 -20 -20 -20 -20 -20
-1 -20 -3 7 9 26 20 -14 -10 -18 -12 -7 -18 -20 -20 -20 -9 -20 -20 -20 -20 -18 -20 -20 -20 -20 -20 -20 -20 -20 -20 -20 7 4 -20 -20 -20 -20 -20 -20 -20 -20 -20
8 5 8 9 6 18 -20 -20 -20 -20 -20 -20 -20 -20 -20 -20 -20 -20 -20 -20 22 -20 -20 -20 -20 -20 -20 -20 -20 -20 -20 -18 -11 4 -7 6 -5 -20 -20 -20 -20 -20 -20
-20 2 5 -6 16 10 7 -18 13 -20 -20 -20 -20 -20 -20 -20 -20 -20 -20 -20 -20 -20 -20 -20 -20 -20 -20 -20 -20 -20 -20 -20 -20 -11 -20 -20 -13 -18 -20 -20 -20 -20 -20

GFSSE_prec_radar_090.txt.gz
Reflectivity
-20 -15 5 1 -20 -20 -20 -20 -20 -20 -20 -20 -20 -20 -20 -20 -20 -20 -20 -20 -20 -20 -20 6 -9 -20 -20 -20 -20 -20 -20 -20 -20 -20 -20 -20 -20 -20 -20 -20 -20 -20 -20
-20 -17 7 2 -20 -5 -1 2 0 -5 -20 -20 -20 -20 -20 -20 -20 -20 -20 -20 -20 -20 -20 -20 -20 -20 -20 -20 -20 -20 -20 -20 -20 -20 -20 -20 -20 -20 -20 -20 -20 -20 -20
-20 -17 -6 9 5 -19 -0 -1 -5 -18 -20 -18 -20 -20 -20 -20 -20 -20 -20 -20 -20 -20 -20 -20 -20 -20 -20 -20 -20 -20 -20 -20 -20 -20 -13 -16 -20 -20 -7 -20 -20 -20 -20
-20 -14 -20 9 6 -16 -10 -8 -20 -20 -20 -0 -20 -20 -16 -20 -20 -20 -20 -20 -20 -20 -20 -20 -20 -20 -20 -20 -20 -20 -20 -20 -20 -20 8 -1 -8 13 -6 -5 -20 -20 -14
-20 -9 -2 -7 5 9 -20 -20 -20 -20 -20 1 -20 -20 -15 -20 -20 -20 -20 -20 -20 -20 -20 -20 -20 -20 -20 -20 -20 -20 -20 -20 -20 -20 -20 -20 -20 -20 -20 9 3 23 -9
-20 -17 -19 7 -4 -20 -20 -20 4 -20 -20 12 -20 12 0 14 -20 -20 -20 -20 -20 -20 -20 -20 -20 -20 2 -20 -20 -20 -20 -20 -19 -20 -20 -20 -20 -20 -20 -20 -20 -20 11
-20 -20 -4 3 12 -20 -12 -20 -20 -20 5 8 -18 -20 -20 -4 12 -20 -20 -20 -20 -20 -20 -20 -20 -20 -20 -20 -20 -20 -20 -20 -20 -20 -20 -20 -20 -20 -20 -20 -20 -20 -20
-20 -1 13 14 -12 -16 -19 -20 -20 -17 14 14 14 -18 -20 -20 10 -20 -20 -20 -20 -20 -20 -20 -20 -20 -20 -20 -20 -20 -20 -20 -20 -20 -20 -20 -20 -20 -20 -20 -20 -20 -20
-0 5 12 11 9 15 13 -20 -20 -20 12 -10 9 -14 -20 -20 -20 11 -20 -20 -20 -20 -20 -20 -20 -20 -20 -20 -20 -20 -20 -20 -20 -20 -20 -20 -20 -20 -20 -20 -20 -20 -20
-20 -7 -20 14 16 14 10 -20 -20 -20 -20 -20 -20 -20 -20 -20 -20 11 -20 -7 -20 -20 -20 -20 -20 -20 -20 -20 -20 -20 -20 -20 -20 -20 -20 -20 -20 -20 -20 -20 -20 -20 -20
5 -3 -20 13 15 14 9 0 -20 -20 -20 -20 -20 -20 -20 -20 -20 -11 15 11 -6 -20 -20 -20 -20 -20 -20 -20 -20 -20 -20 -20 -20 -20 -20 -20 -20 -20 -20 -20 -20 -20 -20
10 8 13 15 15 14 11 5 -11 -20 -20 -20 -20 -20 -20 -20 -20 -20 -1 15 14 -6 -16 -20 -20 -20 -20 -20 -20 -20 -20 -20 -20 -20 -20 -20 -20 -20 -20 -20 -20 -20 -20
10 -12 15 2 13 13 11 9 -15 -20 -20 -20 -20 -20 -20 -20 -20 -20 -20 -4 8 -9 -1 -11 -20 -20 -20 -20 -20 -20 -20 -20 -20 -20 -20 -20 -20 -17 -20 -20 -20 -20 -20
-20 5 -20 -2 15 13 9 8 -20 -20 -20 -20 -20 -20 -20 -20 -20 -20 -20 -20 2 -5 -8 3 -0 -20 -20 -20 -20 -20 -20 -20 -20 -20 -20 -20 -20 -12 -9 -20 -20 -20 -20
-5 22 6 -14 13 13 6 -15 -20 -20 -20 -20 -20 -20 -20 -20 -20 -20 -20 -20 -20 -19 -20 -20 -20 -20 -20 -20 -20 -20 -20 -20 -20 -20 -20 -20 -20 -20 -13 -19 -20 -20 -20
-19 9 7 -18 -2 14 12 7 -16 -20 -20 -20 -20 -20 -20 -20 -20 -20 -20 -20 -20 -20 -20 -20 -20 -20 -20 -20 -20 -20 -20 -20 -20 -20 -20 -20 -20 -20 -20 -20 -2 -20 -20
-20 -7 -17 9 -6 -8 19 8 3 -20 -20 -20 -20 -20 -20 -20 -20 -20 -20 -20 -20 -20 -20 -20 -20 -20 -20 -20 -20 -20 -20 -20 -20 -20 -20 -20 -20 -20 -20 -20 -17 -10 -20
-20 -20 -20 -10 6 -19 4 8 10 -12 -20 -20 -20 -20 -20 -20 -20 -20 -20 -20 -20 -20 -20 -20 -20 -20 -20 -20 -20 -20 -20 -20 -20 -20 -20 -20 -20 -20 -20 -20 -16 -9 8
-20 -20 -20 -20 -6 -6 1 18 -12 -1 -20 -20 -20 -20 -20 -20 -20 -20 -20 -20 -20 -20 -20 -20 -20 -20 -20 -20 -20 -20 -20 -20 -20 -20 -20 -20 -20 -20 -20 -20 -20 -20 -12
-8 -20 -20 -7 -17 -2 5 31 20 -2 -20 0 -20 -20 -20 -20 -20 -20 -20 -20 -20 -20 -20 -20 -20 -20 -20 -20 -20 -20 -20 -20 -20 -20 -20 -20 -20 -20 -20 -20 -20 -20 -20
-4 -20 -20 -20 34 -19 0 -20 -9 5 4 -13 -20 -20 -20 -20 -20 -20 -20 -20 -20 -20 -20 -20 -20 -20 -20 -20 -20 -20 -20 -20 -20 -20 -20 -20 -20 -20 -20 -20 -20 -20 -20
-20 -12 -20 -20 -20 24 4 11 -11 -20 15 13 5 -8 -20 -20 -20 -20 -20 -20 -20 -20 -20 -20 -20 -20 -20 -20 -20 -20 -20 -20 -20 -20 -20 -20 -20 -20 -20 -20 -20 -20 -20
21 -2 -20 -20 -18 -19 -6 6 -18 24 -9 19 24 21 11 -18 -19 -20 -20 -20 -20 -20 -20 -20 -20 -20 -20 -20 -20 -20 -20 -20 -20 -20 -20 -20 -20 -20 -20 -20 -20 -20 -20
6 23 -13 16 0 -9 -16 9 11 20 7 27 28 13 -2 3 4 -4 -13 -20 -20 -20 -20 -20 -20 -20 -20 -20 -20 -20 -20 -18 -16 1 -20 -20 -20 -20 -20 -20 -20 -20 -20
-20 -7 5 -20 -4 25 -14 24 29 15 23 26 23 30 30 13 -3 -20 -20 -20 -20 -20 -20 -20 -20 -20 -20 -20 -20 -20 -20 -20 -20 -20 9 -20 -20 -20 -20 -20 -20 -20 -20
-20 -20 -20 16 -20 -19 -7 -3 2 32 12 22 18 15 2 -16 -2 -20 -20 -20 -20 -20 -20 -20 -20 -20 -20 -20 -20 -20 -20 -12 -20 -20 -17 -20 -19 -20 -20 -20 -20 -20 -20

GFSSE_prec_radar_093.txt.gz
Reflectivity
-20 -20 -20 -17 -20 -20 -20 -20 -20 -12 -9 -12 -20 -20 -20 -20 -20 -20 -11 -20 -5 -11 -16 12 6 -20 -20 -20 -20 -18 -20 -20 -20 -20 -20 -20 -20 -20 -20 -20 -20 -20 -20
-20 -20 -20 2 -14 -20 -20 -20 -20 -2 -2 -11 -20 -20 -20 -17 -20 -20 -20 -20 -20 -20 -20 -20 -20 -20 -20 -20 -20 -20 -20 -20 -20 -20 -20 -20 -20 -20 -20 -20 -20 -20 -20
-20 -20 -2 4 -8 -20 -20 -19 -20 -20 -20 -20 -20 -20 -20 -4 -14 -20 -20 -20 -20 -20 -20 -20 -20 -20 -20 -20 -20 -20 -20 -20 -20 -16 12 -10 -11 14 -20 -20 -20 -20 -20
-20 -20 -11 -20 -14 0 4 0 -1 -7 2 -2 -15 -1 -20 -20 -20 -20 -20 -20 -20 -20 -20 -20 -20 -20 -20 -20 -20 -20 -20 -20 -20 5 3 -13 -20 -20 2 -8 8 9 -17
-20 -20 -20 9 -20 -1 -0 -14 -18 4 13 -1 -20 9 -20 -20 -8 -20 -20 -20 -20 -20 -20 -20 -20 -20 -20 -20 -20 -20 -20 -20 -20 -20 -20 -20 -20 -20 -14 -9 -12 9 3
-20 -20 -20 10 -5 -20 -20 -20 -20 -20 -20 -20 -8 14 -20 -20 -20 -20 -20 -20 -20 -0 -7 -20 7 9 -19 -20 -20 -20 -20 -20 1 -20 -20 -20 -20 -20 -20 -20 -20 -20 -8
-20 -1 -20 -13 -3 -12 -20 -20 -20 -20 -20 -20 -20 -20 17 -11 -20 -20 -20 -20 -20 -20 -20 -20 -20 -1 -20 -20 -20 -20 -20 -20 -20 -20 -20 -20 -20 -20 -20 -20 -20 -20 -20
-20 -14 -15 -3 -2 -16 -20 -20 -20 -20 -6 -9 -20 -20 -20 14 -20 -20 -20 -20 -20 -20 -20 -20 -20 -20 -20 -20 -20 -20 -20 -20 -20 -20 -20 -20 -20 -20 -20 -20 -20 -20 -20
-20 -9 -20 2 7 5 -20 4 -20 -1 3 2 -20 -20 -20 -17 -12 -20 -20 -20 -20 -20 -20 -20 -20 -20 -20 -20 -20 -20 -20 -20 -20 -20 -20 -20 -20 -20 -20 -20 -20 -20 -20
-20 -11 -19 -12 -3 16 7 -19 14 3 -20 -20 -20 -20 -20 -20 -1 7 -20 -20 -20 -20 -20 -20 -20 -20 -20 -20 -20 -20 -20 -20 -20 -20 -20 -20 -20 -20 -20 -20 -20 -20 -20
-9 15 16 -20 11 15 12 -0 3 -20 -20 -20 -20 -20 -20 -20 -20 5 -9 -20 -20 -20 -20 -20 -20 -20 -20 -20 -20 -20 -20 -20 -20 -20 -20 -20 -20 -20 -20 -20 -20 -20 -20
-11 -4 17 -6 5 -6 -3 -20 12 -16 -20 -20 -20 -20 -20 -20 -20 -9 -16 7 13 -5 -20 -20 -20 -20 -20 -20 -20 -20 -20 -20 -20 -20 -20 -20 -20 -20 -20 -20 -20 -20 -20
-20 3 -0 10 13 -16 2 -20 10 -12 -20 -20 -20 -20 -20 -20 -20 -20 2 5 10 -0 -20 -20 -20 -20 -20 -20 -20 -20 -20 -20 -20 -20 -20 -20 -20 -20 -20 -20 -20 -20 -20
-5 -12 -20 17 15 6 -17 -20 -16 -19 -20 -20 -20 -20 -20 -20 -20 -20 -20 1 1 7 -1 -20 -20 -20 -20 -20 -20 -20 -20 -20 -20 -20 -20 -20 -20 -20 -11 -20 -20 -20 -20
8 6 12 -6 14 -2 -20 -20 -20 -14 -20 -20 -20 -20 -20 -20 -20 -20 -20 -20 -20 -20 -20 -20 -20 -20 -20 -20 -20 -20 -20 -20 -20 -20 -20 -20 -20 -20 -20 -10 -20 -20 -20
-20 -20 10 4 -20 -14 -11 -14 -20 -20 -20 -20 -20 -20 -20 -20 -20 -20 -20 -20 -20 -20 -20 -20 -20 -20 -20 -20 -20 -20 -20 -20 -20 -20 -20 -20 -20 -20 -20 -20 5 -20 -20
-20 -17 -20 -13 -19 -18 -10 16 -20 -20 -20 -20 -20 -20 -20 -20 -20 -20 -20 -20 -20 -20 -20 -20 -20 -20 -20 -20 -20 -20 -20 -20 -20 -20 -20 -20 -20 -20 -20 -20 -20 -5 -12
-13 -17 -20 -11 -7 22 6 -13 -20 -20 -18 -20 -20 -20 -20 -20 -20 -20 -20 -20 -20 -20 -20 -20 -20 -20 -20 -20 -20 -20 -20 -20 -20 -20 -20 -20 -20 -20 -20 -20 -20 -11 10
-2 -10 7 -12 -17 -20 30 -11 -2 -3 -7 -20 -20 -20 -20 -20 -20 -20 -20 -20 -20 -20 -20 -20 -20 -20 -20 -20 -20 -20 -20 -20 -20 -20 -20 -20 -20 -20 -20 -20 -20 -20 -20
-20 -18 0 -14 -7 -15 2 1 11 27 -4 -20 -1 -9 -12 -20 -20 -20 -20 -20 -20 -20 -20 -20 -20 -20 -20 -20 -20 -20 -20 -20 -20 -20 -20 -20 -20 -20 -20 -20 -20 -20 -20
-20 -20 -1 -6 -15 -20 -0 2 11 -4 30 4 4 -18 -20 -20 -20 -20 -20 -20 -20 -20 -20 -20 -20 -20 -20 -20 -20 -20 -20 -20 -20 -20 -20 -20 -20 -20 -20 -20 -20 -20 -20
-20 -20 -11 -15 -10 -20 -20 -15 -13 -8 -14 -8 10 9 -18 -4 -16 -8 -5 -6 -18 -20 -20 -20 -20 -20 -20 -20 -20 -20 -20 -20 -20 -20 -20 -20 -20 -20 -20 -20 -20 -20 -20
-20 -20 -20 -9 -10 -17 -20 -20 -7 17 -4 -0 -4 -16 28 29 0 -19 -15 -20 -20 -20 -20 -20 -20 -20 -20 -20 -20 -20 -20 -20 -20 -20 -20 -20 -20 -20 -20 -20 -20 -20 -20
-20 -20 -20 -3 -20 20 25 21 -20 3 -10 24 -17 -20 1 30 -9 26 30 27 10 -7 -4 -17 -20 -20 -20 -20 -20 -14 -20 -20 -20 -5 -20 -20 -20 -20 -20 -20 -20 -20 -20
-20 -20 15 -20 -0 -4 -18 25 32 27 -20 26 -4 2 27 -1 -20 16 33 31 32 7 9 -4 -19 -20 -20 -20 -20 -19 -20 -20 -20 -15 4 5 -20 -20 -20 -20 -20 -20 -20
-20 -20 15 -20 1 28 -10 -19 20 17 24 16 -2 12 15 15 16 24 11 19 22 11 -1 -20 -19 -20 -20 -20 -19 1 -20 -20 -20 -20 -20 -20 -20 -16 -20 -20 -20 -20 -20

GFSSE_prec_radar_096.txt.gz
Reflectivity
-20 -20 -20 5 3 -2 -20 -20 -4 -14 3 -20 -20 -20 -20 6 8 13 16 -5 -2 -12 -0 -20 -20 -20 -20 -20 -15 -16 -20 -20 -20 -20 -20 -20 -20 -20 -20 -20 -20 -20 -20
-20 -20 -20 5 4 -20 -20 -1 -1 -5 -19 -20 -20 -20 -20 -18 -20 -20 -18 -20 -20 -20 -20 -20 -20 -20 -20 -20 -20 -20 -20 -20 -20 -20 12 -20 -2 -20 -20 -20 -20 -20 -20
-20 -11 -20 -15 1 -1 -5 0 1 -1 -20 -20 -20 -6 -2 -20 -20 -20 -20 -20 -20 -20 -20 -20 -20 -20 -20 -20 -20 -20 -20 -19 -16 8 -19 -20 9 -20 -14 15 6 5 -20
-20 -20 -20 -20 -9 -20 -19 -1 -16 1 -20 -6 -20 -20 -7 -20 -20 -20 -20 -20 -20 -20 -20 -20 -20 -20 -20 -20 -20 -20 8 -9 -9 -8 -20 -20 -20 17 11 15 9 4 -19
-20 -20 -20 -16 -20 -6 -1 -0 -0 -12 -20 -20 -20 -20 1 -20 -20 -20 -20 -20 -20 -20 -20 -20 -20 -20 -20 -20 -20 -20 -20 -3 3 -20 -20 -20 -20 -17 -1 -20 2 13 17
-20 -20 -20 -20 5 5 5 -19 -20 -20 -20 -20 -20 -20 1 -20 -20 -20 -20 -20 -9 -6 -9 -2 5 -5 -20 -20 -20 -20 -20 -20 -20 -20 -20 -20 -20 -20 -20 -20 -20 1 13
-20 -20 -20 -20 -20 -3 -20 -20 -20 -20 -20 -20 14 -17 -18 -20 -20 -20 -20 -2 1 -5 -20 1 -3 -1 -20 -20 -20 -20 -20 -20 -20 -20 -20 -20 -20 -20 -20 -20 -20 -20 -20
-20 -20 -20 -15 -20 -20 -20 -13 -7 -17 -3 -20 -20 13 8 -20 -20 -20 -20 -20 -2 -13 -20 -20 -19 -20 -20 -20 -20 -20 -20 -20 -20 -20 -20 -20 -20 -20 -20 -20 -20 -20 -20
-20 -20 -20 -13 -5 -20 7 -20 -3 11 -13 5 -20 -20 13 -3 -20 -20 -20 -20 -20 -20 -20 -20 -20 -20 -20 -20 -20 -20 -20 -20 -20 -20 -20 -20 -20 -20 -20 -20 -20 -20 -20
-20 -20 -20 -20 -1 15 15 -19 -20 -20 -14 2 -20 -20 -20 -20 -15 -20 -20 -20 -20 -20 -20 -20 -20 -20 -20 -20 -20 -20 -20 -20 -20 -20 -20 -20 -20 -20 -20 -20 -20 -20 -20
-1 -20 1 -19 11 15 9 -13 -13 -20 -20 -20 -20 -20 -20 -20 -20 -20 -20 -20 -20 -20 -20 -20 -20 -20 -20 -20 -20 -20 -20 -20 -20 -20 -20 -20 -20 -20 -20 -20 -20 -20 -20
12 5 4 -20 -20 15 -8 -20 -20 -20 -20 -20 -20 -20 -20 -20 -20 -13 -20 -16 -20 -20 -20 -20 -20 -20 -20 -20 -20 -20 -20 -20 -20 -20 -20 -20 -20 -20 -20 -20 -20 -20 -20
14 -20 -20 1 7 11 -8 -16 -4 -20 -20 -20 -20 -20 -20 -20 -20 -15 -20 -1 -20 -20 -20 -20 -20 -20 -20 -20 -20 -20 -20 -20 -20 -20 -20 -20 -20 -20 -20 -20 -20 -20 -20
8 12 13 15 7 -15 3 3 2 -20 -20 -20 -20 -20 -20 -20 -20 -20 -20 -20 -17 -20 -3 -20 -20 -20 -20 -20 -20 -20 -20 -20 -20 -20 -20 -20 -20 -20 -20 -20 -20 -20 -20
5 10 -4 17 -20 18 -2 -11 -20 -20 -14 -20 -20 -20 -20 -20 -20 -20 -20 -20 -20 -20 -20 -20 -20 -20 -20 -20 -20 -20 -20 -20 -20 -20 -20 -20 -20 -20 -20 -20 -20 -20 -20
-17 -13 14 0 -6 -20 -2 -14 -20 -20 -20 -20 -20 -20 -20 -20 -20 -20 -20 -20 -20 -20 -20 -20 -20 -20 -20 -20 -20 -20 -20 -20 -20 -20 -20 -20 -20 -20 -20 -20 -12 -20 -20
5 -12 -6 -20 16 16 -20 16 -20 -20 29 -20 -20 -20 -20 -20 -20 -20 -20 -20 -20 -20 -20 -20 -20 -20 -20 -20 -20 -20 -20 -20 -20 -20 -20 -20 -20 -20 -20 -20 -20 -1 -15
15 -17 -20 14 -16 11 13 7 -11 -20 -20 -20 -20 -20 -20 -20 -20 -20 -20 -20 -20 -20 -20 -20 -20 -20 -20 -20 -20 -20 -20 -20 -20 -20 -20 -20 -20 -20 -20 -20 -20 -20 -7
-20 -18 -20 -20 -7 3 -2 -3 11 -12 -20 -20 -20 -20 -20 -20 -20 -20 -20 -20 -20 -20 -20 -20 -20 -20 -20 -20 -20 -20 -20 -20 -20 -20 -20 -20 -20 -20 -20 -20 -20 -20 -11
-20 -20 -20 -19 -10 -20 -19 -11 8 14 7 -20 1 -20 -20 -20 -20 -20 -20 -20 -20 -20 -20 -20 -20 -20 -20 -20 -20 -20 -20 -20 -20 -20 -20 -20 -20 -20 -20 -20 -20 -20 -20
-16 -20 -20 -20 -20 -9 8 -20 -20 -20 9 -2 -14 25 -20 -20 -20 -20 -20 -20 -20 -20 -20 -20 -20 -20 -20 -20 -20 -20 -20 -20 -20 -20 -20 -20 -20 -20 -20 -20 -20 -20 -20
5 -5 -20 -20 -20 -20 -20 -20 -20 -20 -20 9 -18 -3 -6 -18 -20 -20 -20 -20 -20 -20 -17 -12 -7 -17 -20 -20 -20 -20 -20 -20 -20 -20 -20 -20 -20 -20 -20 -20 -20 -20 -20
-20 -20 -20 -20 -20 -20 -20 15 2 -20 -20 -20 24 11 31 25 20 14 16 15 22 -17 -20 -20 -20 -16 -19 -20 -20 -20 -20 -20 -20 -20 -20 -20 -20 -20 -20 -20 -20 -20 -20
-20 -20 -20 -20 -20 -20 -20 -3 11 -0 22 6 32 33 24 28 29 30 23 23 18 13 22 25 29 26 -10 -2 -6 -7 -20 -20 -20 -20 -20 -20 -20 -20 -20 -20 -20 -20 -20
-20 -20 -20 -20 -20 -20 -20 -20 -20 14 -7 -19 -20 -19 26 5 -17 6 28 9 -7 -12 24 23 28 32 32 8 -18 5 -20 -20 -20 -20 -20 -20 -20 -20 -20 -20 -20 -20 -20
-20 -20 -20 -20 -20 -20 -20 11 8 -20 23 26 24 11 10 -6 -13 -17 12 -2 23 23 23 21 29 29 35 13 -20 -20 -20 -1 -20 -20 -20 -20 -20 -20 -20 -20 -20 -20 -20

GFSSE_prec_radar_099.txt.gz
Reflectivity
-20 -3 -20 -18 -20 -8 -3 0 -15 -20 -20 -20 -20 -20 -0 16 0 -20 16 -20 -19 -20 -20 -20 -20 -20 -18 -13 -11 -20 -20 -20 -20 -20 -20 -20 -20 -20 -20 -20 -20 -20 -0
-20 -20 -20 5 3 -20 2 -6 -20 -20 -19 -20 -20 -20 7 9 12 9 2 -20 -20 -20 -20 -20 -20 -20 -20 -20 -20 -20 -20 -20 5 -20 -20 -20 -20 -18 9 -20 -20 -20 1
-20 4 5 4 -20 -17 1 3 1 -20 -20 -12 -6 -20 -17 4 -5 -20 -20 -20 -20 -20 -20 -20 -20 -20 -20 -20 -16 8 9 -20 -20 -20 -20 -3 14 19 -7 18 -19 -20 -20
-20 -20 -9 -4 -6 -12 0 -1 -18 -20 -20 -20 -1 -8 -20 -20 -20 -20 -20 -20 -20 -20 -20 -20 -20 -20 -20 3 -3 -5 -15 -20 -20 -20 -20 -20 3 3 8 -9 14 11 7
-20 -20 -20 -5 -20 -9 -6 0 -20 -3 -20 -20 -20 -20 -20 -20 -20 -20 -20 -20 -20 -20 -12 -20 -20 -20 -20 6 -20 -20 -20 -20 -20 -20 -20 -20 -20 4 16 10 5 -1 12
-20 -20 3 -20 -20 3 5 -20 -20 -20 -20 -20 -20 -20 -20 -20 -20 -20 -20 -20 -20 -20 -20 1 -2 -20 -20 -20 -20 -20 -20 -20 -20 -20 -20 -20 -20 -20 -20 -20 -18 13 19
-20 -20 -20 -20 -11 4 -20 -20 -20 3 -20 -20 -0 -20 -20 -20 -20 -3 3 -3 -20 13 -15 -3 -20 -20 -20 -20 -20 -20 -20 -20 -20 -20 -20 -20 -20 -20 -20 -20 -20 -20 -20
-20 -20 -20 6 -20 -8 -20 -20 -20 -20 -20 -7 -2 -20 -20 -20 -20 -20 -20 -17 -20 -11 -6 -20 -20 -20 -20 -20 -20 -20 -20 -20 -20 -20 -20 -20 -20 -20 -20 -20 -20 -20 -20
-20 -20 -20 -9 -20 -20 -20 -20 -20 -20 -20 -17 5 -19 -20 -20 -20 -20 -20 -20 -20 -20 -16 -17 -20 -20 -20 -20 -20 -20 -20 -20 -20 -20 -20 -20 -20 -20 -20 -20 -20 -20 -20
-20 -20 -20 -20 -20 -20 -19 -9 -6 9 3 -20 3 -20 -20 -20 -20 -20 -20 -20 -20 -20 -20 -20 -20 -20 -20 -20 -20 -20 -20 -20 -20 -20 -20 -20 -20 -20 -20 -20 -20 -20 -20
-13 -20 -20 -20 -20 -11 -6 -20 -20 -11 -20 -20 -20 -20 -20 -20 -20 -20 -20 -20 -20 -20 -20 -20 -20 -20 -20 -20 -20 -20 -20 -20 -20 -20 -20 -20 -20 -20 -20 -20 -20 -20 -20
-16 -20 -20 -20 -20 -11 -20 4 -2 -20 -20 -20 -20 -20 -20 -20 -20 -20 -20 -20 -20 -20 -20 -20 -20 -20 -20 -20 -20 -20 -20 -20 -20 -20 -20 -20 -20 -20 -20 -20 -20 -20 -20
-20 -20 -11 -20 5 5 -20 -20 -20 -20 -20 -20 -20 -20 -20 -20 -20 -20 -20 -20 -20 -20 -20 -20 -20 -20 -20 -20 -20 -20 -20 -20 -20 -20 -20 -20 -20 -20 -20 -20 -20 -20 -20
-20 -20 -4 5 7 -20 -20 -20 -20 -20 -20 -20 -20 -20 -20 -20 -20 -20 -20 -20 -20 -20 -20 -20 -20 -20 -20 -20 -20 -20 -20 -20 -20 -20 -20 -20 -20 -20 -20 -20 -20 -20 -20
-1 1 -3 7 -3 -19 -20 2 -20 -20 -20 -20 -20 -20 -20 -20 -20 -20 -20 -20 -20 -20 -20 -20 -20 -20 -20 -20 -20 -20 -20 -20 -20 -20 -20 -20 -20 -20 -20 -20 -20 -20 -20
-10 12 17 -9 7 4 -20 -20 -20 -20 -20 -20 -20 -20 -20 -20 -20 -20 -20 -20 -20 -20 -20 -20 -20 -20 -20 -20 -20 -20 -20 -20 -20 -20 -20 -20 -20 -20 -20 -20 -20 -20 -20
-20 4 14 14 -8 -20 -20 -20 -20 -20 -20 -20 -20 -20 -20 -20 -20 -20 -20 -20 -20 -20 -20 -20 -20 -20 -20 -20 -20 -20 -20 -20 -20 -20 -20 -20 -20 -20 -20 -20 -20 -11 -13
13 14 -20 -20 -20 -18 2 -20 -20 -20 -20 -20 -20 -20 -20 -20 -20 -20 -20 -20 -20 -20 -20 -20 -20 -20 -20 -20 -20 -20 -20 -20 -20 -20 -20 -20 -20 -20 -20 -20 -20 -20 -20
3 14 9 -6 -20 -20 -15 3 -20 -20 -20 -20 -20 -20 -20 -20 -20 -20 -20 -20 -20 -20 -20 -20 -20 -20 -20 -20 -20 -20 -20 -20 -20 -20 -20 -20 -20 -20 -20 -20 -20 -20 -20
-20 -20 37 -5 30 -2 -2 3 8 -20 -20 -20 -20 -20 -20 -20 -20 -20 -20 -20 -20 -20 -20 -20 -20 -20 -20 -20 -20 -20 -20 -20 -20 -20 -20 -20 -20 -20 -20 -20 -20 -20 -20
-20 -20 -20 -17 -20 4 -11 -20 -20 -20 -20 1 -20 -20 -20 -20 -20 -20 -20 -20 -20 -20 -20 -20 -20 -20 -20 -20 -20 -10 -17 -20 -20 -20 -20 -20 -20 -20 -20 -20 -20 -20 -20
-12 -20 -20 -20 -20 -20 -20 -20 -19 -20 -20 -20 -20 -20 -3 -19 -20 -20 -20 -20 -20 -20 -20 -20 -19 -17 -20 -20 -20 -20 -20 -20 -20 -20 -20 -20 -20 -19 -19 -20 -20 -20 -20
-20 -20 -20 -20 -20 11 -20 8 -5 10 33 33 -18 -14 17 29 30 27 30 25 -10 -12 -20 -13 4 -10 -17 -20 -20 -20 -20 -20 -20 -20 -20 -20 -20 -15 -20 -20 -20 -20 -20
-20 -20 -20 -20 -20 -20 -3 -4 -20 -15 -19 4 8 -10 2 26 29 30 33 31 32 33 30 30 25 20 19 19 29 20 20 16 16 -17 -20 -20 2 -20 -20 -20 -20 -20 -20
-20 -20 -20 -20 -20 -20 -16 21 -13 -20 -20 -20 28 27 24 25 21 19 -2 29 7 28 21 -6 29 28 30 19 19 27 32 26 -19 -9 -17 -20 -20 -20 -20 -20 -20 -20 -20
-20 -20 -20 -20 -20 -20 -20 -8 -2 -18 -7 -20 -5 -4 19 -12 11 24 -7 23 1 23 -16 15 18 14 28 9 25 28 33 31 7 20 7 -5 9 -11 -20 -20 -20 -20 -20

GFSSE_prec_radar_102.txt.gz
Reflectivity
-20 -20 -20 -16 -20 -12 9 1 8 -20 -20 -9 12 5 7 4 -5 7 -20 -20 -20 -20 -20 -20 -11 8 2 -20 -20 -20 -20 2 -11 -20 -20 -1 -20 -20 -20 -20 -20 -2 4
-10 -20 -20 -20 -20 6 -3 -20 -20 -20 -20 -20 13 10 1 10 12 -19 -12 -20 -20 -20 -20 -20 -20 -18 -20 -20 -20 -20 -10 -20 -20 1 -20 -17 13 5 -16 -20 -20 -6 3
-14 -16 -20 -17 -20 2 -20 -20 -11 -20 -20 -20 11 13 15 8 8 -11 -20 -20 -20 -20 -20 -20 -20 -20 -20 -20 4 -20 -20 -20 -20 -20 -20 -20 17 6 -18 -20 -20 -20 3
-20 -4 -14 2 -9 -2 -1 -20 -17 -2 -1 -16 -7 4 13 15 -9 -20 -20 -20 -20 -20 -20 -20 -20 -20 -8 13 7 -20 -20 -20 -20 -20 -20 -20 -20 8 9 6 10 13 17
-20 6 9 -14 1 2 -3 -20 -20 -4 4 -0 -20 -20 -20 -20 -20 -20 -20 -20 -20 -20 -20 -20 -20 -20 10 -20 -20 -20 -20 -20 -20 -20 -20 -20 -18 13 17 -9 -14 8 12
4 2 13 6 1 3 -20 -13 -20 -20 -20 -20 -20 -20 -20 -20 -20 -20 -20 -20 -9 -5 -20 -20 -20 -20 -11 -20 -20 -20 -20 -20 -20 -20 -20 -20 -20 -20 -20 -20 -16 14 14
4 9 12 -20 -1 -16 -20 -20 -20 -20 -4 -20 -20 -20 -20 -20 -20 -20 -20 -20 -15 -20 -4 -20 -20 -20 -20 -20 -20 -20 -20 -20 -20 -20 -20 -20 -20 -20 -20 -20 -20 -20 -20
-12 9 -20 12 -7 -17 -20 -20 -16 -20 6 -20 -20 -20 -20 -20 -15 -20 -20 10 -15 -20 -20 -20 -20 -20 -20 -20 -20 -20 -20 -20 -20 -20 -20 -20 -20 -20 -20 -20 -20 -20 -20
-20 -20 -20 8 -7 -20 -20 -20 -2 -20 13 -20 -20 -20 -20 0 1 -20 -20 -20 -8 -20 -20 -20 -20 -20 -20 -20 -20 -20 -20 -20 -20 -20 -20 -20 -20 -20 -20 -20 -20 -20 -20
-20 -20 -20 6 -8 -20 -20 -20 -20 -20 14 -6 -20 -20 -20 -20 -20 -20 -20 -20 -20 -20 -20 -20 -20 -20 -20 -20 -20 -20 -20 -20 -20 -20 -20 -20 -20 -20 -20 -20 -20 -20 -20
6 -20 -20 -20 -20 -20 -20 15 5 -13 -20 -20 -20 -20 -20 -20 -20 -20 -20 -20 -20 -20 -20 -20 -20 -20 -20 -20 -20 -20 -20 -20 -20 -20 -20 -20 -20 -20 -20 -20 -20 -20 -20
4 -12 -20 -20 -20 6 2 -20 -20 -20 -20 -20 -20 -20 -20 -20 -20 -20 -20 -20 -20 -20 -20 -20 -20 -20 -20 -20 -20 -20 -20 -20 -20 -20 -20 -20 -20 -20 -20 -20 -20 -20 -20
7 -11 -20 -20 -20 -16 -20 -20 -20 -20 -20 -20 -20 -20 -20 -20 -20 -20 -20 -20 -20 -20 -20 -20 -20 -20 -20 -20 -20 -20 -20 -20 -20 -20 -20 -20 -20 -20 -20 -20 -20 -20 -20
20 27 -20 -20 -20 -20 -20 -20 -20 -20 -20 -20 -20 -20 -20 -20 -20 -20 -20 -20 -20 -20 -20 -20 -20 -20 -20 -20 -20 -20 -20 -20 -20 -20 -20 -20 -20 -20 -20 -20 -20 -20 -20
9 -20 -17 -13 -20 -20 -20 -20 -20 -20 -20 -20 -20 -20 -20 -20 -20 -20 -20 -20 -20 -20 -20 -20 -20 -20 -20 -20 -20 -20 -20 -20 -20 -20 -20 -20 -20 -20 -20 -20 -20 -20 -20
-14 -20 -20 8 -3 -20 -20 -20 -20 -20 -20 -20 -20 -20 -20 -20 -20 -20 -20 -20 -20 -20 -20 -20 -20 -20 -20 -20 -20 -20 -20 -20 -20 -20 -20 -20 -20 -20 -20 -20 -20 -20 -20
-15 -20 -20 -0 6 -20 -20 -20 -20 -20 -20 -20 -20 -20 -20 -20 -20 -20 -20 -20 -20 -20 -20 -20 -20 -20 -20 -20 -20 -20 -20 -20 -20 -20 -20 -20 -20 -20 -20 -20 -20 9 -6
29 28 10 13 8 -20 -20 -20 -20 -20 -20 -20 -20 -20 -20 -20 -20 -20 -20 -20 -20 -20 -20 -20 -20 -20 -20 -20 -20 -20 -20 -20 -20 -20 -20 -20 -20 -20 -20 -20 -19 -20 -20
-20 -2 -13 -13 -16 -20 -20 -9 -20 -17 -20 -20 -20 -20 -20 -20 -20 -20 -20 -20 -20 -20 -20 -20 -20 -20 -20 -20 -20 -20 -20 -20 -20 -20 -20 -20 -20 -20 -20 -20 -20 -20 -20
-1 -16 21 -19 -15 -15 -20 -19 -20 1 -20 -20 -20 -20 -20 -20 -20 -20 -20 -20 -20 -20 -20 -20 -20 -20 -20 -20 -20 -20 -20 -20 -20 -20 -20 -20 -20 -20 -20 -20 -20 -20 -20
16 18 35 -20 13 5 13 35 4 -7 -19 6 -20 -20 -13 -20 -20 -20 -20 -20 -20 -20 -20 -20 -20 -20 -20 -20 -20 -10 -8 -20 -20 -20 -20 -20 -20 -20 -18 -20 -20 -20 -20
-6 -15 -11 5 -16 -10 5 36 14 -11 -20 -20 9 -20 -20 -5 16 -20 -20 -20 -20 -20 -20 -14 -19 -3 -20 -10 -7 -19 -20 -20 -20 -20 -20 -20 -20 -20 5 -16 -15 -20 -20
-20 -18 -20 -17 -20 -18 16 -1 27 -2 -20 -20 -20 -20 -20 -1 -5 23 -20 -20 -20 -2 25 31 27 30 5 19 9 -20 -20 -20 -18 -15 -10 -12 1 -1 -20 14 -20 -20 -20
-20 -20 -20 -20 -20 -20 -20 17 -11 2 33 27 -19 -20 -15 -20 12 -20 17 27 20 21 23 31 33 29 30 30 32 30 24 26 15 17 -18 -20 -15 -15 12 4 -14 -20 -20
-20 -20 -20 24 -20 -20 -20 -20 -20 -20 -16 -13 2 -10 -3 27 22 29 26 33 31 28 28 30 29 26 21 26 -14 17 22 29 15 23 34 -18 -19 10 0 -1 -15 -16 -20
-20 -20 -20 -20 -20 -20 -20 16 -20 -20 -20 -20 33 19 8 0 30 21 28 24 15 42 29 7 14 12 15 13 14 18 20 31 20 30 28 10 14 7 -4 -7 -20 -20 -20

GFSSE_prec_radar_105.txt.gz
Reflectivity
-20 -20 -20 -18 -13 -11 -16 -20 -20 -20 0 6 5 3 5 -9 1 -1 -20 -5 -10 -20 -13 13 6 -9 5 5 -2 -2 -18 -8 8 10 3 -20 -20 -17 1 -20 -20 -2 -0
-19 -6 -20 -16 -20 2 -14 -20 -20 -20 -18 5 8 6 1 10 5 1 -20 -20 -20 -20 -20 9 10 8 5 7 1 0 7 0 -3 -20 -20 -18 -20 -20 -20 -20 -16 20 14
-3 -19 -20 -20 -20 -19 -20 -20 -20 -20 4 8 -3 -20 5 17 9 1 -20 -20 -20 -20 -20 -3 6 3 6 -2 -8 -20 -20 -20 -20 -20 -6 9 11 5 8 -15 -19 -3 12
-5 -14 -20 -1 -20 -20 -20 -20 -20 -20 -3 7 11 3 21 9 -4 -20 -20 -20 -20 -20 -20 -20 4 6 -20 -20 -20 -20 -20 -20 -20 -20 -20 -20 -13 5 11 17 6 12 -3
5 -5 -20 -20 -0 -20 -20 -20 -13 -20 -20 -20 11 0 12 14 -20 -20 -20 -20 -20 -20 -20 1 9 -19 -20 -20 -20 -20 -20 -20 -20 -20 -20 -20 -8 -18 -18 -19 -20 -15 1
6 -15 -20 -20 -7 -16 -20 2 -0 -20 -20 -20 5 11 13 2 -20 -20 -20 -20 -20 -20 6 6 -20 -20 -20 -20 -20 -20 -20 -20 -20 -20 -20 -20 -20 -20 -20 -20 -20 -20 -20
-10 -18 -20 4 2 -20 -20 -20 -20 -20 -20 -20 -20 -20 -20 -20 -20 -20 -20 -20 -20 -20 -0 -20 -20 -20 -20 -20 -20 -20 -20 -20 -20 -20 -20 -20 -20 -20 -20 -20 -20 -20 -20
7 8 -11 5 -9 -20 -20 -20 -20 -15 -20 -20 -20 -20 -20 -20 -20 -20 -20 -12 -13 -6 -20 -20 -20 -20 -20 -20 -20 -20 -20 -20 -20 -20 -20 -20 -20 -20 -20 -20 -20 -20 -20
8 12 7 -3 -6 -20 -15 -20 -20 -20 -20 -20 -20 -20 -7 -20 -9 4 11 -1 -1 -1 -18 -20 -20 -20 -20 -20 -20 -20 -20 -20 -20 -20 -20 -20 -20 -20 -20 -20 -20 -20 -20
13 8 13 4 -5 -20 15 -20 -2 -18 -20 -20 -20 -20 -6 -20 -20 -20 -20 -15 -20 -20 -20 -20 -20 -20 -20 -20 -20 -20 -20 -20 -20 -20 -20 -20 -20 -20 -20 -20 -20 -20 -20
-3 -11 -20 11 7 -20 13 -17 -7 4 -20 -20 -20 -20 -20 -20 -20 -20 -20 -20 -20 -20 -20 -20 -20 -20 -20 -20 -20 -20 -20 -20 -20 -20 -20 -20 -20 -20 -20 -20 -20 -20 -20
15 3 16 11 -2 -2 -14 1 -20 8 -20 -20 -20 -20 -20 -20 -20 -20 -20 -20 -20 -20 -20 -20 -20 -20 -20 -20 -20 -20 -20 -20 -20 -20 -20 -20 -20 -20 -20 -20 -20 -20 -20
25 17 10 -15 -20 13 -20 -17 -20 -20 -20 -20 -20 -20 -20 -20 -20 -20 -20 -20 -20 -20 -20 -20 -20 -20 -20 -20 -20 -20 -20 -20 -20 -20 -20 -20 -20 -20 -20 -20 -20 -20 -20
27 14 14 -19 -20 -20 -20 -20 -20 -20 -20 -20 -20 -20 -20 -20 -20 -20 -20 -20 -20 -20 -20 -20 -20 -20 -20 -20 -20 -20 -20 -20 -20 -20 -20 -20 -20 -20 -20 -20 -20 -20 -20
22 21 26 8 -15 -20 -20 -20 -20 -20 -20 -20 -20 -20 -20 -20 -20 -20 -20 -20 -20 -20 -20 -20 -20 -20 -20 -20 -20 -20 -20 -20 -20 -20 -20 -20 -20 -20 -20 -20 -20 -20 -20
27 24 -1 -6 -14 -20 -20 -20 -20 -20 -20 -20 -20 -20 -20 -20 -20 -20 -20 -20 -20 -20 -20 -20 -20 -20 -20 -20 -20 -20 -20 -20 -20 -20 -20 -20 -20 -20 -20 -12 -20 -20 -20
8 15 -13 15 -1 -19 -20 -20 -20 -20 -20 -20 -20 -20 -20 -20 -20 -20 -20 -20 -20 -20 -20 -20 -20 -20 -20 -20 -20 -20 -20 -20 -20 -20 -20 -20 -20 -20 -20 -20 21 -19 -20
-2 -2 -18 -17 10 -20 -20 -20 -20 -20 -20 -20 -20 -20 -20 -20 -20 -20 -20 -20 -20 -20 -20 -20 -20 -20 -20 -20 -20 -20 -20 -20 -20 -20 -20 -20 -20 -20 -20 -20 -20 -20 21
22 26 -11 4 -5 15 -20 -20 -20 -20 -20 -20 -20 -20 -20 -20 -20 -20 -20 -20 -20 -20 -20 -20 -20 -20 -20 -20 -20 -20 -20 -20 -20 -20 -20 -20 -20 -20 -20 -20 -20 -20 -20
34 33 -9 16 10 -4 -20 -20 -20 -20 -20 -20 -20 -20 -20 -20 -20 -20 -20 -20 -20 -20 -20 -20 -20 -20 -20 -20 -20 -20 -20 -20 -20 -12 -13 -20 -20 -20 -20 -20 -20 -20 -20
34 37 9 34 15 16 -20 -20 -20 -20 -20 -20 -19 -20 -20 -20 -20 -20 -20 -20 -20 -20 -20 -20 -20 -20 -20 -20 -20 -20 -20 -20 -20 -20 -20 -20 -20 -20 -20 -20 -10 -12 -12
28 34 34 28 35 36 35 23 26 13 -2 -17 4 17 -19 -20 -20 -20 -20 -20 -20 -20 -20 -20 -20 -20 3 6 7 17 3 -20 -20 -20 -20 -20 -20 -20 -15 -10 -20 -13 -18
33 34 16 12 -7 21 27 36 31 24 28 3 -0 -7 -20 -20 -4 -20 2 -20 -20 -20 -20 -20 -20 -16 24 24 16 17 5 -1 13 3 21 15 0 -14 -12 -20 -20 -20 10
17 30 31 25 -2 2 25 30 36 22 31 34 31 36 3 -18 -6 -20 -10 -20 -12 6 -9 8 19 21 5 28 29 31 23 20 23 10 9 32 3 5 -6 -20 12 -17 -11
-20 -15 -8 23 38 -14 -2 20 -6 -1 -7 -6 35 -4 -20 -20 -18 1 -20 32 31 31 30 22 36 43 35 28 24 26 19 19 16 24 7 22 20 12 26 -2 19 2 9
-20 -8 -20 -14 -15 26 -7 2 10 -6 -16 -15 -13 -11 -10 29 36 35 37 29 20 25 25 24 19 19 36 19 27 31 33 24 12 24 27 25 22 16 4 10 15 -5 -20

GFSSE_prec_radar_111.txt.gz
Reflectivity
-20 -20 15 7 5 -20 -20 -20 -20 -20 -20 -20 -20 -20 -7 -18 -20 -20 -20 -20 -8 10 -17 3 12 9 -20 5 13 13 10 -20 -20 -20 -20 -20 11 4 12 -6 3 6 -15
-20 -20 13 7 -1 -20 -20 -9 -20 -20 -20 -20 -20 7 2 -1 -2 -0 3 -20 1 5 10 -20 4 11 16 9 12 5 -1 -2 -20 -20 -20 -20 -20 -19 -15 7 12 8 -14
-20 -20 11 -1 -20 -20 -20 -4 -20 -20 14 -20 -20 -20 -20 5 -14 8 -7 -20 6 6 1 15 -3 -4 -2 1 5 -2 -10 -20 -20 -20 -20 11 15 9 14 -17 2 -1 -20
-15 0 -7 -20 -20 -20 -20 -9 -20 -20 -10 -20 -20 5 12 -13 2 -20 -20 -15 1 10 -0 -1 -20 -16 -20 -20 -20 -20 -20 -20 -20 -20 -20 -20 -20 -20 4 1 -20 -20 -20
-7 3 -20 -20 -20 -20 -20 6 -20 3 12 -20 -20 -20 14 -2 -20 -20 -20 4 4 -20 -14 -20 -20 -20 -20 -20 -20 -20 -20 -20 -20 -20 -20 -20 -20 -20 -20 -20 -20 -20 -20
4 6 -20 -20 -20 -20 -20 -1 -1 -20 -19 -20 10 27 -1 -6 -20 -20 -20 -11 -13 -20 -20 -20 -20 -20 -20 -20 -20 -20 -20 -20 -20 -20 -20 -20 -20 -20 -20 -20 -20 -20 -20
5 10 -16 -20 -20 -20 -20 12 3 5 -20 21 -16 3 11 -20 -20 -20 -20 -2 -15 -20 -20 -20 -20 -20 -20 -20 -20 -20 -20 -20 -20 -20 -20 -20 -20 -20 -20 -20 -20 -20 -20
5 6 6 -20 -20 -20 -20 5 -20 10 -20 -13 -7 -9 11 -20 -20 -20 -20 4 -8 -20 -20 -20 -20 -20 -20 -20 -20 -20 -20 -20 -20 -20 -20 -20 -20 -20 -20 -20 -20 -20 -20
11 7 12 -20 -20 -20 -20 -20 -20 -17 1 3 -4 9 -2 -20 -20 -20 3 -17 -15 -20 -20 -20 -20 -20 -20 -20 -20 -20 -20 -20 -20 -20 -20 -20 -20 -20 -20 -20 -20 -20 -20
16 11 13 4 -3 -3 -20 -20 -20 -20 -20 -8 7 -1 -20 -20 -20 -5 3 6 10 -20 -20 -20 -20 -20 -20 -20 -20 -20 -20 -20 -20 -20 -20 -20 -20 -20 -20 -20 -20 -20 -20
15 14 14 6 8 -8 -20 -20 -20 -20 -20 -17 -10 -20 -20 -19 -3 -20 -20 3 10 4 -20 -20 -20 -20 -20 -20 -20 -20 -20 -20 -20 -20 -20 -20 -20 -20 -20 -20 -20 -20 -20
8 17 12 -1 5 4 -9 -13 -20 -20 -20 -20 -20 -20 5 7 5 -20 2 10 7 -20 -20 -20 -20 -20 -20 -20 -20 -20 -20 -20 -20 -20 -20 -20 -20 -20 -20 -20 -20 -20 -20
-8 16 3 3 0 -20 4 4 -14 -20 -20 -20 -20 -20 -20 -20 2 -20 9 8 -20 -20 -20 -20 -20 -20 -20 -20 -20 -20 -20 -20 -20 -20 -20 -20 -20 -20 -20 -20 -20 -20 -20
29 18 0 7 -1 -20 12 3 -4 -20 -20 -20 -20 -20 -20 -20 -20 -20 -20 -20 -20 -20 -20 -20 -20 -20 -20 -20 -20 -20 -20 -20 -20 -20 -20 -20 -20 -20 -20 -20 -20 -20 -20
21 12 12 4 -2 -20 -18 4 -0 -20 -20 -20 -20 -20 -20 -20 -20 -20 -20 -20 -20 -20 -20 -20 -20 -20 -20 -20 -20 -20 -20 -20 -20 -20 -20 -20 -20 -20 -20 -20 -20 -20 -20
40 8 7 8 -0 -19 -20 -1 -20 -20 -20 -20 -20 -20 -20 -20 -20 -20 -20 -20 -20 -20 -20 -20 -20 -20 -20 -20 -20 -20 -20 -20 -20 -20 -20 -20 -20 -20 -20 -20 -20 -20 -20
34 30 9 20 -5 -20 -20 -20 -20 -16 -20 -20 -20 -20 -20 -20 -20 -20 -20 -20 -20 -20 -20 -20 -20 -20 -20 -20 -20 -20 -20 -20 -20 -20 -20 -20 -20 -20 -20 -20 -17 -4 -19
33 27 34 8 2 -12 -20 -20 -20 -20 -20 -20 -20 -20 -20 -20 -20 -20 -20 -20 -20 -20 -20 -20 -20 -20 -20 -20 -20 -20 -20 -20 -20 -20 -20 -20 -20 -20 -20 -20 -20 -17 -20
19 13 16 24 13 6 -0 -16 3 -20 -20 -20 -20 -20 -20 -20 -20 -20 -20 -20 -20 -20 -20 -20 -20 -20 -20 -20 -20 -20 -20 -20 -20 -20 -20 -20 -20 -20 -20 -20 -20 -20 -20
29 5 4 31 26 10 4 11 -5 -20 -20 -20 -20 -20 -20 -20 -20 -20 -20 -20 -20 -20 -20 -20 -20 -20 -20 -20 -20 -20 -20 -20 -20 -20 -20 -20 -20 -20 -20 -20 -20 -20 -20
22 13 8 -7 18 22 8 -20 -20 -20 -20 -20 -20 -20 -20 -20 -20 -20 -20 -20 -20 -20 -20 -20 -20 -20 -20 -20 -20 -20 -20 -20 -20 -20 -2 -20 -20 -20 -20 -20 -20 -20 -20
28 1 8 4 7 5 9 5 2 -18 -20 -20 -20 -20 -20 -20 -20 -20 -20 -20 -20 -20 -20 -20 -20 -20 -20 -20 -20 -20 -20 -20 -2 9 -14 -11 -20 4 -18 -20 -16 23 26
19 26 1 -1 21 6 15 -6 -20 -20 -20 -20 -20 -20 -16 -20 -20 -20 -10 2 -15 -20 -12 -20 -20 -19 -11 -13 12 16 -20 -20 -13 25 11 -5 -5 2 17 5 20 -4 16
36 28 27 30 22 4 17 23 29 -19 -17 -20 -20 -0 -19 -11 -16 -20 9 -10 5 14 27 4 12 17 26 28 12 -1 -8 -20 -20 -8 -3 8 -6 22 22 13 -15 2 3
32 41 46 42 33 40 28 29 32 31 31 16 7 16 7 17 7 1 30 25 -14 6 13 36 29 27 18 1 8 10 -19 -18 -20 16 11 31 12 15 19 3 12 11 6
23 29 33 34 39 37 39 38 30 36 38 33 23 2 6 26 20 24 27 30 28 27 15 23 30 28 7 11 9 -15 -16 -20 -17 -20 -15 5 4 -9 6 -11 -2 7 6

GFSSE_prec_radar_114.txt.gz
Reflectivity
-20 -6 -20 -20 -20 -20 -20 -20 -20 -20 -20 -20 -20 -20 -9 -19 -20 -20 -20 -11 -18 3 -12 14 -19 -20 -4 13 -0 -20 -20 -20 -20 -20 -20 -20 -19 10 -5 15 3 -20 -20
-20 -20 -20 -20 -20 -20 -20 -20 -20 -20 -20 -20 -20 -20 -16 -20 -20 -20 20 -20 1 -3 -0 -18 -14 -1 10 13 0 -20 -20 -20 -20 -20 -20 -20 -17 -11 -0 -20 -3 -20 -20
-20 -7 2 -19 -8 -20 -20 -20 -20 -20 -20 -20 -20 -20 -18 -19 -5 -12 -20 -20 5 -20 1 7 -3 14 7 4 7 7 4 -20 -20 -20 11 11 14 11 -20 -20 -20 -20 -20
-20 -9 6 -19 -1 -17 -20 -20 -20 -20 -20 -20 -6 -20 19 -20 3 -12 -20 -20 16 0 7 -20 -20 -6 9 13 12 -20 -20 -20 -20 -20 -20 -20 -20 -20 -18 -20 -20 -20 -20
-20 -1 8 -7 3 -20 -20 -20 -20 -10 -20 -9 -20 -20 -14 7 2 -20 -20 -20 -13 -20 -17 -11 -20 -20 -20 -20 -20 -20 -20 -20 -20 -20 -20 -20 -20 -20 -20 -20 -20 -20 -20
-20 -7 3 -0 -1 -20 -20 -20 -20 9 14 -20 -20 -20 -20 -3 -20 -20 4 -6 -20 -20 -20 -20 -20 -20 -20 -20 -20 -20 -20 -20 -20 -20 -20 -20 -20 -20 -20 -20 -20 -20 -20
-5 -5 11 -16 -20 -12 -12 -20 -18 7 -20 -14 -16 -19 -20 -20 -20 3 10 -5 -20 -20 -20 -20 -20 -20 -20 -20 -20 -20 -20 -20 -20 -20 -20 -20 -20 -20 -20 -20 -20 -20 -20
1 -3 7 -4 -20 -13 5 -20 -20 -20 -20 -20 -20 6 -9 -20 -20 -20 -4 -20 -20 -10 -19 -20 -20 -20 -20 -20 -20 -20 -20 -20 -20 -20 -20 -20 -20 -20 -20 -20 -20 -20 -20
29 19 9 -2 -20 -5 12 -20 -1 -20 12 -8 4 -2 -1 -20 -20 -20 -13 -20 -20 1 -8 -20 -20 -20 -20 -20 -20 -20 -20 -20 -20 -20 -20 -20 -20 -20 -20 -20 -20 -20 -20
-9 28 10 -16 -20 3 13 15 11 3 18 13 6 8 -20 -20 -20 8 -20 -20 -20 -19 -20 -20 -20 -20 -20 -20 -20 -20 -20 -20 -20 -20 -20 -20 -20 -20 -20 -20 -20 -20 -20
16 26 10 -12 -20 -20 14 -6 3 15 -20 -10 -3 6 -20 -20 -20 -5 8 -20 -20 -20 -20 -20 -20 -20 -20 -20 -20 -20 -20 -20 -20 -20 -20 -20 -20 -20 -20 -20 -20 -20 -20
31 23 2 -20 -20 -20 -5 -11 0 -4 -6 -20 -18 -20 -20 -20 -20 -9 -1 12 -17 -20 -20 -20 -20 -20 -20 -20 -20 -20 -20 -20 -20 -20 -20 -20 -20 -20 -20 -20 -20 -20 -20
36 18 24 -15 -2 -20 -20 17 8 -16 5 -13 -15 -20 -20 -20 -20 9 4 3 -13 -18 -20 -20 -20 -20 -20 -20 -20 -20 -20 -20 -20 -20 -20 -20 -20 -20 -20 -20 -20 -20 -20
40 29 22 -4 -13 -20 -20 -20 -20 5 8 -20 -20 -20 -9 1 -20 0 7 1 -20 -20 -20 -20 -20 -20 -20 -20 -20 -20 -20 -20 -20 -20 -20 -20 -20 -20 -20 -20 -20 -20 -20
39 44 25 -1 -20 -20 -20 -20 -20 -20 -20 -20 -20 -20 -20 4 -7 -6 -4 1 -20 -20 -20 -20 -20 -20 -20 -20 -20 -20 -20 -20 -20 -20 -20 -18 -20 -20 -20 -20 -20 -20 -20
32 45 25 7 -20 -10 -11 -20 -20 -20 -20 -20 -20 -20 0 -20 -20 -20 -20 -20 -20 -20 -20 -20 -20 -20 -20 -20 -20 -20 -20 -20 -20 -20 -20 -20 -20 -20 -20 -20 -20 -20 -20
26 45 22 -2 -5 -20 -16 -1 -20 -20 -20 -20 -20 -20 -20 -20 -20 -20 -20 -20 -20 -20 -20 -20 -20 -20 -20 -20 -20 -20 -20 -20 -20 -20 -20 -20 -20 -20 -20 -19 25 -10 -20
15 29 27 13 -3 -20 -20 -20 -2 -20 -20 -20 -20 -20 -20 -20 -20 -20 -20 -20 -20 -20 -20 -20 -20 -20 -20 -20 -20 -20 -20 -20 -20 -20 -20 -20 -20 -20 -20 -20 -20 -20 -20
9 31 28 5 8 7 3 -2 0 -13 -20 -20 -20 -20 -20 -20 -20 -20 -20 -20 -20 -20 -20 -20 -20 -20 -20 -20 -20 -20 -20 -20 -20 -20 -20 -20 -20 -20 -20 -20 -20 -20 -12
32 35 35 14 9 6 9 -2 2 7 -20 -20 -20 -20 -20 -20 -20 -20 -20 -20 -20 -20 -20 -20 -20 -20 -20 -20 -20 -20 -20 -20 -20 -20 -20 -20 -20 -20 -20 -20 -20 -20 -20
36 28 25 28 2 13 9 2 2 -20 -20 -4 3 -18 -20 -20 -20 -20 -20 -20 -20 -20 -20 -20 -20 -20 -20 -20 -20 -20 -20 -20 -20 -20 -20 -20 -20 -20 -20 -20 -20 -20 -20
43 31 20 23 9 3 6 -20 -20 -20 -13 10 -20 -20 -17 -20 -20 -20 -7 -20 -20 -20 -20 -20 -19 -20 -11 -20 -20 -20 -20 -20 -20 -20 -20 -20 -20 -20 -16 -17 -11 -20 8
43 36 29 17 3 -7 8 -2 2 4 16 -1 0 -20 -20 -20 -20 -20 -20 -20 -20 -20 -20 -18 -20 -20 -20 -20 -20 -8 -7 -4 -20 -20 -20 -20 -20 -20 -20 -20 -20 -8 19
41 40 35 28 25 21 15 15 10 13 -4 -20 -20 -20 -20 -20 -20 -20 -17 -17 4 -20 -20 -20 -20 -20 -16 1 -14 -17 -20 9 11 0 -20 -20 -20 -20 -4 -6 -3 7 3
43 42 37 29 26 1 12 31 12 6 -17 5 -11 -20 -20 -19 -18 9 -7 -11 -20 -20 -17 2 26 19 23 10 2 5 -0 -5 1 3 -8 -6 -20 0 16 14 9 5 -1
40 36 41 39 34 27 26 -12 6 -1 -19 28 -3 -5 -1 -3 18 25 25 22 -6 22 32 27 22 -8 7 9 9 7 -17 -20 -3 1 -10 -20 -20 -18 -0 -4 -17 -20 -17

GFSSE_prec_radar_117.txt.gz
Reflectivity
-20 -20 -20 -20 -20 -20 -20 -20 -20 -17 -20 -6 2 -20 -20 -20 -18 -20 -20 1 -20 -10 11 -20 -20 -8 -20 -20 -2 -14 -20 -20 -20 -20 -12 -6 -3 2 -17 -20 -20 -20 -20
-20 -20 -20 -20 -20 -20 -20 -20 -20 -20 -20 -5 -14 -20 -18 -11 -20 -20 8 7 -20 -13 -5 -20 11 -17 1 -20 -20 -20 -20 -20 -20 -20 -20 -20 -20 -20 -20 -20 -20 -20 -20
-20 -20 -20 -20 -20 -20 -19 -20 -20 -20 -20 -20 -20 -4 -3 -20 -20 -0 7 3 -20 -20 -20 10 11 11 0 6 2 -2 -20 -20 -20 11 -18 -9 -20 -20 -20 -20 -20 -20 -20
-20 -20 -20 -20 -20 -20 -20 -0 -20 -20 -20 -20 -20 -20 -13 -20 -20 -20 -16 1 -20 -8 8 8 -18 9 10 6 -19 -20 -20 -20 -20 -20 -20 -20 -20 -20 -20 -20 -13 -20 -20
-20 -20 -20 -20 -20 -20 -20 -8 2 -20 -20 -20 -20 -20 -20 -20 3 -12 -20 -7 -14 -20 -20 -20 9 12 14 -9 -20 -20 -20 -20 -20 -20 -20 -20 -20 -20 -20 -20 -20 -16 -20
-20 -10 6 -20 1 -18 -20 -20 -10 -11 -20 -20 -20 -20 16 9 -14 -20 -19 -1 -19 -20 -20 -20 -20 -19 -20 -20 -20 -20 -20 -20 -20 -20 -20 -20 -20 -20 -20 -20 -20 -20 -20
-20 -14 8 -9 4 -15 -20 -20 -18 -20 -20 -20 -16 -20 -12 2 -16 -0 8 -20 -20 -20 -20 -20 -20 -20 -20 -20 -20 -20 -20 -20 -20 -20 -20 -20 -20 -20 -20 -20 -20 -20 -20
-14 1 11 12 2 1 -9 -20 -20 -20 -20 -20 -20 -19 -18 -20 1 -20 -20 -20 -20 -20 -20 -20 -20 -20 -20 -20 -20 -20 -20 -20 -20 -20 -20 -20 -20 -20 -20 -20 -20 -20 -20
-16 25 30 -8 -3 9 -20 -20 -7 -20 -20 -3 -2 -17 -20 -20 -20 -20 -20 -20 -12 -20 -20 -20 -20 -20 -20 -20 -20 -20 -20 -20 -20 -20 -20 -20 -20 -20 -20 -20 -20 -20 -20
6 -20 32 -4 -20 -2 8 -19 -2 -20 8 -5 -7 7 -20 -20 -2 9 -20 -4 8 -10 -20 -20 -20 -20 -20 -20 -20 -20 -20 -20 -20 -20 -20 -20 -20 -20 -20 -20 -20 -20 -20
34 -8 34 -12 -20 -20 4 -16 -20 -20 -2 -20 -4 -3 -14 -20 -20 -20 4 -20 9 -20 -20 -20 -20 -20 -20 -20 -20 -20 -20 -20 -20 -20 -20 -20 -20 -20 -20 -20 -20 -20 -20
31 10 33 -20 -20 -20 12 7 12 -0 -9 5 -11 -20 -20 -20 -12 12 5 -20 2 -12 2 -20 -20 -20 -20 -20 -20 -20 -20 -20 -20 -20 -20 -20 -20 -20 -20 -20 -20 -20 -20
32 30 39 7 -14 -20 -13 12 24 19 -10 7 -16 -20 -20 -20 0 14 10 -20 -20 -20 -20 -20 -20 -20 -20 -20 -20 -20 -20 -20 -20 -20 -20 -20 -20 -20 -20 -20 -20 -20 -20
19 20 42 27 -11 -20 -20 21 21 18 2 -19 9 -20 -20 -20 -5 11 7 -15 -20 -20 -20 -20 -20 -20 -20 -20 -20 -20 -20 -20 -20 -20 -20 -20 -20 -20 -20 -20 -20 -20 -20
15 29 35 41 -18 -20 -19 -7 -2 14 -12 -16 -6 -20 -20 -20 -20 -20 -4 -6 -20 -20 -20 -20 -20 -20 -20 -20 -20 -20 -20 -20 -20 -20 -20 -20 -20 -20 -20 -20 -20 -20 -20
34 35 26 49 28 -16 -20 -16 -6 -20 -7 -19 -20 -20 -20 -20 -20 -20 -5 6 -20 -20 -20 -20 -20 -20 -20 -20 -20 -20 -20 -20 -20 -20 -20 -20 -20 -20 -20 -20 -20 -20 -20
29 32 38 45 37 13 -20 -20 -20 -20 13 -20 -20 -20 -18 -20 -20 -20 -20 -20 -20 -20 -20 -20 -20 -20 -20 -20 -20 -20 -20 -20 -20 -20 -20 -20 -20 -20 -20 -20 8 -12 -20
46 38 9 44 33 8 -20 -20 -20 -20 -20 -20 -20 -20 -20 -20 -20 -20 -20 -20 -20 -20 -20 -20 -20 -20 -20 -20 -20 -20 -20 -20 -20 -20 -20 -20 -20 -20 -20 -20 -20 -20 -5
31 41 28 35 34 13 -14 -20 -20 -20 -20 -20 -20 -20 -20 -20 -20 -20 -20 -20 -20 -20 -20 -20 -20 -20 -17 -20 -20 -20 -20 -20 -20 -20 -20 -20 -20 -20 -20 -20 -20 -20 -20
29 38 26 31 39 18 -20 -13 -2 -20 -20 -20 -20 -20 -20 -20 -20 -20 -20 -20 -20 -20 -20 -20 -20 -20 -19 -18 -20 -20 -20 -20 -20 -20 -20 -20 -20 -20 -20 -20 -20 -20 -20
18 41 43 36 39 23 -6 16 13 -3 -7 -20 -20 -20 -20 -20 -20 -20 -20 -20 -20 -20 -20 -20 -20 -20 -20 -20 -20 -20 -20 -20 -20 -20 -20 -20 -20 -20 -20 -20 19 26 -20
13 37 44 35 31 22 -10 -14 14 9 -0 -20 -20 -20 -19 -20 -20 -20 -20 -20 -20 -20 -20 -20 -20 -20 -20 -20 -20 -20 -0 -18 -20 -20 -20 -20 -20 -20 -20 -20 6 -20 -19
19 33 37 38 31 12 13 20 26 24 10 8 5 -7 -20 -20 -20 -20 -20 -20 -20 -20 -13 -20 -20 -20 -20 -20 -20 -11 -7 12 -1 -20 -20 -20 -20 -20 -20 -20 -20 -20 -20
6 14 36 28 35 16 9 9 4 -20 -16 -8 -15 -19 -20 -20 -1 -20 -16 -20 -20 -20 -20 -20 -10 -5 29 24 -10 -20 1 -8 14 6 -20 -20 -20 -20 -20 -20 -4 -8 -9
9 26 26 44 42 28 -3 -0 7 2 -19 -20 2 -8 -20 -9 -6 -20 -20 -20 -20 -20 -20 -20 -18 -20 -18 -3 11 -3 -19 -19 -19 2 1 -16 -9 -18 -20 -20 -15 -5 6
20 27 31 33 46 38 29 21 27 12 2 5 5 10 6 -6 -19 -20 -20 -20 -20 -20 -4 -14 22 27 24 4 -11 -14 -8 14 -7 -3 -2 -1 -1 -20 -20 -20 -20 -20 -20

GFSSE_prec_radar_120.txt.gz
Reflectivity
-20 -20 -20 -20 -20 -3 -20 -20 -20 -1 -1 7 -20 -20 -20 -20 -14 -20 -20 -20 -20 6 -20 -20 -20 -20 11 2 18 10 -0 -20 -20 -20 -20 -13 2 -20 -20 -20 -20 -20 -20
-20 -20 -20 -20 -20 -20 -20 -7 -20 -20 -20 -20 -0 -19 -20 -3 -18 -4 -2 -20 9 -20 -20 12 4 -20 9 -13 -20 -20 -20 -20 -20 -20 -20 -20 -20 -20 -20 -20 -20 -14 -15
-20 -20 -20 -20 -20 -20 -20 -20 -20 -20 -12 -20 -20 -20 -20 -0 -20 -4 -11 4 13 -20 15 3 -17 -17 -14 -15 -20 -20 -20 -20 15 -17 -20 -20 -20 -20 -20 -20 -18 -9 -20
1 -20 -20 -11 -20 -20 -20 -20 -20 -20 -20 -20 -5 -7 -15 -10 -20 4 -20 -12 -20 -9 -7 -20 -8 -7 -20 -20 -20 -20 -20 -20 -20 -14 -20 -20 -20 -20 -20 -11 1 -20 -13
21 -13 -20 1 -4 8 -20 -20 -20 -20 -20 -20 -20 -20 -20 -13 -20 2 -20 -20 -20 -9 -11 -16 -1 -13 -20 -20 -20 -20 -20 -20 -20 -20 -20 -20 -20 -18 -14 -20 -13 -12 -6
-3 -20 -20 -13 9 9 -19 -20 -20 -20 -20 -20 -20 -20 -20 -20 -20 9 -20 -20 -20 -20 -20 -20 6 7 -20 -20 -20 -20 -20 -20 -20 -20 -20 -20 -20 -20 -20 -20 -6 -20 -2
-5 -4 -20 -20 -20 -4 -9 -13 -17 -20 -20 -20 -20 -20 -18 -3 -20 -20 -20 -20 -20 -20 -20 -20 -9 -20 -20 -20 -20 -20 -20 -20 -20 -20 -20 -20 -20 -20 -20 -20 -19 -5 -17
-20 -20 -20 -20 -11 7 5 6 9 -10 -20 -20 -20 -20 8 -0 -20 -20 -20 -20 -20 -20 -20 -20 -20 -20 -20 -20 -20 -20 -20 -20 -20 -20 -20 -20 -20 -20 -20 -20 -20 -20 -20
-20 -20 -20 -20 -20 -15 -20 -6 9 -2 -20 -20 -20 -20 17 16 -20 -20 -20 -20 -20 -20 -20 -20 -20 -20 -20 -20 -20 -20 -20 -20 -20 -20 -20 -20 -20 -20 -20 -20 -20 -20 -20
-20 -20 -20 -20 -20 -20 3 -20 7 10 11 -20 -19 -20 -20 -20 9 -20 -20 -20 -20 -20 -20 -20 -20 -20 -20 -20 -20 -20 -20 -20 -20 -20 -20 -20 -20 -20 -20 -20 -20 -20 -20
-4 -6 -20 -20 -20 -20 -19 -20 -0 -17 15 -11 13 -20 -20 -12 4 5 -20 -20 -20 -20 -20 -20 -20 -20 -20 -20 -20 -20 -20 -20 -20 -20 -20 -20 -20 -20 -20 -20 -20 -20 -20
14 -20 -20 -20 -20 -20 -20 1 -14 18 0 14 -20 -19 -20 -20 4 -11 -16 -20 -20 -20 -20 -20 -20 -20 -20 -20 -20 -20 -20 -20 -20 -20 -20 -20 -20 -20 -20 -20 -20 -20 -20
3 13 7 4 26 27 3 11 -20 14 -0 14 -16 -20 -20 -20 13 4 3 5 -20 -20 -20 -20 -20 -20 -20 -20 -20 -20 -20 -20 -20 -20 -20 -20 -20 -20 -20 -20 -20 -20 -20
31 8 32 21 15 29 0 14 8 24 -20 -2 11 7 -20 -12 13 -3 -20 -20 -20 -20 -20 -20 -20 -20 -20 -20 -20 -20 -20 -20 -20 -20 -20 -20 -20 -20 -20 -20 -20 -20 -20
18 -8 3 19 29 47 32 -4 -9 8 -19 15 15 -7 -20 -14 4 -20 -20 -20 -20 -20 -20 -20 -20 -20 -20 -20 -20 -20 -20 -20 -20 -20 -20 -20 -20 -20 -20 -20 -20 -20 -20
-13 35 -12 19 17 45 36 -10 -1 12 -20 24 0 -19 -20 -10 -18 -15 -20 -20 -20 -20 -20 -20 -20 -20 -20 -20 -20 -20 -20 -20 -20 -20 -20 -20 -20 -20 -20 -20 -20 -20 -20
-20 34 16 5 22 31 44 22 21 13 14 11 13 -20 -20 -20 -20 -20 -20 -20 -20 -20 -20 -20 -20 -20 -20 -20 -20 -20 -20 -20 -20 -20 -20 -20 -20 -20 -20 -20 -14 -20 -20
-20 13 39 6 10 30 48 25 -9 19 18 7 -14 -20 -20 -20 -18 -20 -20 -11 -20 -20 -20 -20 -20 -20 -20 -20 -20 -20 -20 -20 -20 -20 -20 -20 -20 -20 -20 -20 -15 -16 -6
-20 -1 27 23 0 35 35 30 14 22 13 -20 -20 -20 -20 -20 -15 -20 -20 -20 -20 -20 -20 -20 -20 -20 -20 -20 -20 -20 -20 -20 -20 -20 -20 -20 -20 -20 -20 -20 -20 -20 -20
-20 8 28 31 27 34 38 24 -1 -7 -7 -17 -20 -20 -20 -20 -20 -20 -20 -20 -20 -20 -20 -20 -20 -20 -20 -20 -20 -20 -20 -20 -20 -20 -20 -20 -20 -20 -20 -20 -20 -20 -18
-20 10 32 41 39 24 34 15 14 -0 -20 -12 -20 -20 -20 -20 -20 -20 -20 -20 -20 -20 -20 -20 -20 -20 -20 -20 -20 -20 -20 -20 -20 -20 -20 -20 -20 -20 -20 -20 -20 -20 -10
-17 3 11 40 39 30 29 11 11 -20 -18 -18 -20 -20 -20 -19 -20 -20 -20 -20 -20 -20 -20 -20 -20 -20 -20 -20 -20 -20 -20 -20 -20 -20 -20 -20 -20 -20 -20 -20 -16 -20 -20
-3 5 18 34 40 34 34 17 6 -20 -13 -20 -20 -20 -20 -20 -20 -20 -20 -20 -20 -20 -20 -20 -20 -20 -20 -20 -20 -20 -20 -20 1 -20 -20 -20 -20 -20 -20 -20 -20 -20 -15
-1 -6 9 37 45 33 34 29 14 -8 -8 -14 -17 2 0 -20 -20 -20 -20 -20 -20 -20 -20 -20 -20 -20 -20 -20 -20 -20 -20 -20 -20 -20 -20 -20 -20 -20 -20 -20 -20 -20 -10
12 4 21 30 39 41 36 13 27 4 -8 13 13 13 -20 -19 -20 -20 -20 -12 -20 -20 -20 -20 -20 -20 -20 -7 -18 -20 8 -20 -20 -20 -20 -20 -20 -20 -20 -20 -20 -20 -20
23 7 12 15 35 42 40 20 37 -3 -8 16 12 12 8 11 10 -20 -20 -20 -20 -10 -20 -20 -20 -17 5 5 -12 -15 -14 -20 -20 -20 -20 -20 -20 -20 -20 -20 -20 -20 -20